[[{"header":{"parameterUnit":"m.s-1","parameterCategory":1,"la1":30.6,"la2":29.2853,"lo1":-89.7004,"lo2":-87.6739,"dy":0.0162,"dx":0.0183,"nx":112,"ny":82,"refTime":"2023-03-17T00:00:00:Z","depth":0,"parameterNumber":2,"parameterNumberName":"U-component_of_WINDS"},"data":[0.0,0.0,0.0,0.0,0.0,0.0,0.0,0.0,0.0,0.0,0.0,0.0,0.0,0.0,0.0,0.0,0.0,0.0,0.0,0.0,0.0,0.0,0.0,0.0,0.0,0.0,0.0,0.0,0.0,0.0,0.0,0.0,0.0,0.0,0.0,0.0,0.0,0.0,0.0,0.0,0.0,0.0,0.0,0.0,0.0,0.0,0.0,0.0,0.0,0.0,0.0,0.0,0.0,0.0,0.0,0.0,0.0,0.0,0.0,0.0,0.0,0.0,0.0,0.0,0.0,0.0,0.0,0.0,0.0,0.0,0.0,0.0,0.0,0.0,0.0,0.0,0.0,0.0,0.0,0.0,0.0,0.0,0.0,0.0,0.0,0.0,0.0,0.0,0.0,0.0,0.9463,0.8775,0.8703,0.8703,0.8703,0.8703,0.8703,0.8703,0.0,0.0,0.0,0.0,0.0,0.0,0.0,0.0,0.0,0.0,0.0,0.0,0.0,0.0,0.0,0.0,0.0,0.0,0.0,0.0,0.0,0.0,0.0,0.0,0.0,0.0,0.0,0.0,0.0,0.0,0.0,0.0,0.0,0.0,0.0,0.0,0.0,0.0,0.0,0.0,0.0,0.0,0.0,0.0,0.0,0.0,0.0,0.0,0.0,0.0,0.0,0.0,0.0,0.0,0.0,0.0,0.0,0.0,0.0,0.0,0.0,0.0,0.0,0.0,0.0,0.0,0.0,0.0,0.0,0.0,0.0,0.0,0.0,0.0,0.0,0.0,0.0,0.0,0.0,0.0,0.0,0.0,0.0,0.0,0.0,0.0,0.0,0.0,0.0,0.0,0.0,0.0,0.0,0.0,0.0,0.0,0.0,0.0,0.0,0.0,0.0,0.0,0.0,0.0,0.8818,0.8703,0.8703,0.8703,0.8703,0.8703,0.8703,0.8703,0.0,0.0,0.0,0.0,0.0,0.0,0.0,0.0,0.0,0.0,0.0,0.0,0.0,0.0,0.0,0.0,0.0,0.0,0.0,0.0,0.0,0.0,0.0,0.0,0.0,0.0,0.0,0.0,0.0,0.0,0.0,0.0,0.0,0.0,0.0,0.0,0.0,0.0,0.0,0.0,0.0,0.0,0.0,0.0,0.0,0.0,0.0,0.0,0.0,0.0,0.0,0.0,0.0,0.0,0.0,0.0,0.0,0.0,0.0,0.0,0.0,0.0,0.0,0.0,0.0,0.0,0.0,0.0,0.0,0.0,0.0,0.0,0.0,0.0,0.0,0.0,0.0,0.0,0.0,0.0,0.0,0.0,0.0,0.0,0.0,0.0,0.0,0.0,0.0,0.0,0.0,0.0,0.0,0.0,0.0,0.0,0.0,0.0,0.0,0.0,0.0,0.0,0.0,0.8965,0.8703,0.8703,0.8703,0.8703,0.8703,0.8703,0.8703,0.8703,0.8703,0.0,0.0,0.0,0.0,0.0,0.0,0.0,0.0,0.0,0.0,0.0,0.0,0.0,0.0,0.0,0.0,0.0,0.0,0.0,0.0,0.0,0.0,0.0,0.0,0.0,0.0,0.0,0.0,0.0,0.0,0.0,0.0,0.0,0.0,0.0,0.0,0.0,0.0,0.0,0.0,0.0,0.0,0.0,0.0,0.0,0.0,0.0,0.0,0.0,0.0,0.0,0.0,0.0,0.0,0.0,0.0,0.0,0.0,0.0,0.0,0.0,0.0,0.0,0.0,0.0,0.0,0.0,0.0,0.0,0.0,0.0,0.0,0.0,0.0,0.0,0.0,0.0,0.0,0.0,0.0,0.0,0.0,0.0,0.0,0.0,0.0,0.0,0.0,0.0,0.0,0.0,0.0,0.0,0.0,0.0,0.0,0.0,0.0,0.0,0.0,0.0,0.0,0.9207,0.885,0.885,0.885,0.885,0.885,0.885,0.885,0.885,0.885,0.0,0.0,0.0,0.0,0.0,0.0,0.0,0.0,0.0,0.0,0.0,0.0,0.0,0.0,0.0,0.0,0.0,0.0,0.0,0.0,0.0,0.0,0.0,0.0,0.0,0.0,0.0,0.0,0.0,0.0,0.0,0.0,0.0,0.0,0.0,0.0,0.0,0.0,0.0,0.0,0.0,0.0,0.0,0.0,0.0,0.0,0.0,0.0,0.0,0.0,0.0,0.0,0.0,0.0,0.0,0.0,0.0,0.0,0.0,0.0,0.0,0.0,0.0,0.0,0.0,0.0,0.0,0.0,0.0,0.0,0.0,0.0,0.0,0.0,0.0,0.0,0.0,0.0,0.0,0.0,0.0,0.0,0.0,0.0,0.0,0.0,0.0,0.0,0.0,0.0,0.0,0.0,0.0,0.0,0.0,0.0,0.0,0.0,0.0,0.0,0.0,0.0,0.9162,0.9239,0.9239,0.9239,0.9239,0.9239,0.9239,0.9239,0.9239,0.9239,0.0,0.0,0.0,0.0,0.0,0.0,0.0,0.0,0.0,0.0,0.0,0.0,0.0,0.0,0.0,0.0,0.0,0.0,0.0,0.0,0.0,0.0,0.0,0.0,0.0,0.0,0.0,0.0,0.0,0.0,0.0,0.0,0.0,0.0,0.0,0.0,0.0,0.0,0.0,0.0,0.0,0.0,0.0,0.0,0.0,0.0,0.0,0.0,0.0,0.0,0.0,0.0,0.0,0.0,0.0,0.0,0.0,0.0,0.0,0.0,0.0,0.0,0.0,0.0,0.0,0.0,0.0,0.0,0.0,0.0,0.0,0.0,0.0,0.0,0.0,0.0,0.0,0.0,0.0,0.0,0.0,0.0,0.0,0.0,0.0,0.0,0.0,0.0,0.0,0.0,0.0,0.0,0.0,0.0,0.0,0.0,0.0,0.0,0.0,0.0,0.0,0.0,0.9235,0.9282,0.0,0.9282,0.9282,0.9282,0.9282,0.9282,0.9282,0.0,0.0,0.0,0.0,0.0,0.0,0.0,0.0,0.0,0.0,0.0,0.0,0.0,0.0,0.0,0.0,0.0,0.0,0.0,0.0,0.0,0.0,0.0,0.0,0.0,0.0,0.0,0.0,0.0,0.0,0.0,0.0,0.0,0.0,0.0,0.0,0.0,0.0,0.0,0.0,0.0,0.0,0.0,0.0,0.0,0.0,0.0,0.0,0.0,0.0,0.0,0.0,0.0,0.0,0.0,0.0,0.0,0.0,0.0,0.0,0.0,0.0,0.0,0.0,0.0,0.0,0.0,0.0,0.0,0.0,0.0,0.0,0.0,0.0,0.0,0.0,0.0,0.0,0.0,0.0,0.0,0.0,0.0,0.0,0.0,0.0,0.0,0.0,0.0,0.0,0.0,0.0,0.0,0.0,0.0,0.0,0.0,0.0,0.0,0.0,0.0,0.0,0.9385,0.9483,0.9521,0.0,0.9521,0.9521,0.9521,0.9521,0.9521,0.9521,0.0,0.0,0.0,0.0,0.0,0.0,0.0,0.0,0.0,0.0,0.0,0.0,0.0,0.0,0.0,0.0,0.0,0.0,0.0,0.0,0.0,0.0,0.0,0.0,0.0,0.0,0.0,0.0,0.0,0.0,0.0,0.0,0.0,0.0,0.0,0.0,0.0,0.0,0.0,0.0,0.0,0.0,0.0,0.0,0.0,0.0,0.0,0.0,0.0,0.0,0.0,0.0,0.0,0.0,0.0,0.0,0.0,0.0,0.0,0.0,0.0,0.0,0.0,0.0,0.0,0.0,0.0,0.0,0.0,0.0,0.0,0.0,0.0,0.0,0.0,0.0,0.0,0.0,0.0,0.0,0.0,0.0,0.0,0.0,0.0,0.0,0.0,0.0,0.0,0.0,0.0,0.0,0.0,0.0,0.0,0.0,0.0,0.0,0.0,0.0,0.0,0.0,0.9606,0.9828,0.9994,0.9994,0.9994,0.9994,0.9994,0.9994,0.9994,0.0,0.0,0.0,0.0,0.0,0.0,0.0,0.0,0.0,0.0,0.0,0.0,0.0,0.0,0.0,0.0,0.0,0.0,0.0,0.0,0.0,0.0,0.0,0.0,0.0,0.0,0.0,0.0,0.0,0.0,0.0,0.0,0.0,0.0,0.0,0.0,0.0,0.0,0.0,0.0,0.0,0.0,0.0,0.0,0.0,0.0,0.0,0.0,0.0,0.0,0.0,0.0,0.0,0.0,0.0,0.0,0.0,0.0,0.0,0.0,0.0,0.0,0.0,0.0,0.0,0.0,0.0,0.0,0.0,0.0,0.0,0.0,0.0,0.0,0.0,0.0,0.0,0.0,0.0,0.0,0.0,0.0,0.0,0.0,0.0,0.0,0.0,0.0,0.0,0.0,0.0,0.0,0.0,0.0,0.0,0.0,0.0,0.0,0.0,0.0,0.0,0.0,0.0,0.9861,0.9956,0.9994,0.9994,0.9994,0.9994,0.9994,0.9994,0.9994,0.9994,0.0,0.0,0.0,0.0,0.0,0.0,0.0,0.0,0.0,0.0,0.0,0.0,0.0,0.0,0.0,0.0,0.0,0.0,0.0,0.0,0.0,0.0,0.0,0.0,0.0,0.0,0.0,0.0,0.0,0.0,0.0,0.0,0.0,0.0,0.0,0.0,0.0,0.0,0.0,0.0,0.0,0.0,0.0,0.0,0.0,0.0,0.0,0.0,0.0,0.0,0.0,0.0,0.0,0.0,0.0,0.0,0.0,0.0,0.0,0.0,0.0,0.0,0.0,0.0,0.0,0.0,0.0,0.0,0.0,0.0,0.0,0.0,0.0,0.0,0.0,0.0,0.0,0.0,0.0,0.0,0.0,0.0,0.0,0.0,0.0,0.0,0.0,0.0,0.0,0.0,0.0,0.0,0.0,0.0,0.0,0.0,0.0,0.0,0.0,0.0,0.0,0.0,0.9994,0.9994,0.9994,0.9994,0.9994,0.9994,0.9994,0.9994,0.9994,0.9994,0.0,0.0,0.0,0.0,0.0,0.0,0.0,0.0,0.0,0.0,0.0,0.0,0.0,0.0,0.0,0.0,0.0,0.0,0.0,0.0,0.0,0.0,0.0,0.0,0.0,0.0,0.0,0.0,0.0,0.0,0.0,0.0,0.0,0.0,0.0,0.0,0.0,0.0,0.0,0.0,0.0,0.0,0.0,0.0,0.0,0.0,0.0,0.0,0.0,0.0,0.0,0.0,0.0,0.0,0.0,0.0,0.0,0.0,0.0,0.0,0.0,0.0,0.0,0.0,0.0,0.0,0.0,0.0,0.0,0.0,0.0,0.0,0.0,0.0,0.0,0.0,0.0,0.0,0.0,0.0,0.0,0.0,0.0,0.0,0.0,0.0,0.0,0.0,0.0,0.0,0.0,0.0,0.0,0.0,0.0,0.0,0.0,0.0,0.0,0.0,0.0,0.0,0.9994,0.9994,0.9994,0.9994,0.9994,0.9994,0.9994,0.9994,0.9994,0.9994,0.0,0.0,0.0,0.0,0.0,0.0,0.0,0.0,0.0,0.0,0.0,0.0,0.0,0.0,0.0,0.0,0.0,0.0,0.0,0.0,0.0,0.0,0.0,0.0,0.0,0.0,0.0,0.0,0.0,0.0,0.0,0.0,0.0,0.0,0.0,0.0,0.0,0.0,0.0,0.0,0.0,0.0,0.0,0.0,0.0,0.0,0.0,0.0,0.0,0.0,0.0,0.0,0.0,0.0,0.0,0.0,0.0,0.0,0.0,0.0,0.2531,0.0,0.0,0.0,0.0,0.0,0.0,0.0,0.0,0.0,0.0,0.0,0.0,0.0,0.0,0.0,0.0,0.0,0.0,0.0,0.0,0.0,0.0,0.0,0.0,0.0,0.0,0.0,0.0,0.0,0.0,0.0,0.0,0.0,0.0,0.0,0.0,0.0,0.0,0.0,0.0,0.0,0.9994,0.9994,0.9994,0.9994,0.9994,0.9994,0.9994,0.9994,0.9994,0.9994,0.9994,0.0,0.0,0.0,0.0,0.0,0.0,0.0,0.0,0.0,0.0,0.0,0.0,0.0,0.0,0.0,0.0,0.0,0.0,0.0,0.0,0.0,0.0,0.0,0.0,0.0,0.0,0.0,0.0,0.0,0.0,0.0,0.0,0.0,0.0,0.0,0.0,0.0,0.0,0.0,0.0,0.0,0.0,0.0,0.0,0.0,0.0,0.0,0.0,0.0,0.0,0.0,0.0,0.0,0.0,0.0,0.0,0.0,0.0,0.0,0.0,0.2571,0.0,0.0,0.0,0.0,0.0,0.0,0.0,0.0,0.0,0.0,0.0,0.0,0.0,0.0,0.0,0.0,0.0,0.0,0.0,0.0,0.0,0.0,0.0,0.0,0.0,0.0,0.0,0.0,0.0,0.0,0.0,0.0,0.0,0.0,0.0,0.0,0.0,0.0,0.0,0.0,0.9951,0.9994,0.9994,0.9994,0.9994,0.9994,0.9994,0.9994,0.9994,0.9994,0.9994,0.0,0.0,0.0,0.0,0.0,0.0,0.0,0.0,0.0,0.0,0.0,0.0,0.0,0.0,0.0,0.0,0.0,0.0,0.0,0.0,0.0,0.0,0.0,0.0,0.0,0.0,0.0,0.0,0.0,0.0,0.0,0.0,0.0,0.0,0.0,0.0,0.0,0.0,0.0,0.0,0.0,0.0,0.0,0.0,0.0,0.0,0.0,0.0,0.0,0.0,0.0,0.0,0.0,0.0449,0.0866,0.1429,0.1429,0.1726,0.2325,0.2281,0.2407,0.2692,0.2692,0.0,0.0,0.0,0.0,0.0,0.0,0.0,0.0,0.0,0.0,0.0,0.0,0.0,0.0,0.0,0.0,0.0,0.0,0.0,0.0,0.0,0.0,0.0,0.0,0.7702,0.8009,0.0,0.0,0.0,0.0,0.0,0.0,0.0,0.0,0.0,0.0,0.0,0.0,0.9907,0.9994,0.9994,0.9994,0.9994,0.9994,0.9994,0.9994,0.9994,0.9994,0.9994,0.9994,0.0,0.0,0.0,0.0,0.0,0.0,0.0,0.0,0.0,0.0,0.0,0.0,0.0,0.0,0.0,0.0,0.0,0.0,0.0,0.0,0.0,0.0,0.0,0.0,0.0,0.0,0.0,0.0,0.0,0.0,0.0,0.0,-0.3802,-0.3802,0.0,0.0,0.0,0.0,0.0,0.0,0.0,0.0,0.0,0.0,0.0,0.0,0.0,-0.1186,-0.1127,-0.0583,-0.0292,-0.0293,0.0251,0.0545,0.063,0.063,0.0722,0.0864,0.0862,0.0,0.2692,0.2692,0.0,0.0,0.0,0.0,0.0,0.0,0.0,0.0,0.0,0.0,0.0,0.0,0.0,0.0,0.0,0.0,0.0,0.0,0.0,0.0,0.0,0.0,0.7085,0.7658,0.7349,0.7129,0.0,0.8584,0.9021,0.8934,0.889,0.0,0.0,0.0,0.0,0.0,0.0,0.0,0.9907,0.9994,0.9994,0.9994,0.9994,0.9994,0.9994,0.9994,0.9994,0.9994,0.9994,0.9994,0.9994,0.9994,0.0,0.0,0.0,0.0,0.0,0.0,0.0,0.0,0.0,0.0,0.0,0.0,0.0,0.0,0.0,0.0,0.0,0.0,0.0,0.0,0.0,0.0,0.0,0.0,0.0,0.0,0.0,0.0,0.0,-0.3802,-0.3802,-0.3802,-0.3802,-0.3802,0.0,0.0,0.0,0.0,0.0,0.0,0.0,0.0,0.0,-0.1987,-0.1782,-0.1583,-0.1305,-0.1052,-0.0931,-0.0942,-0.0685,-0.0388,0.0,0.0,0.0219,0.0663,0.0663,0.1012,0.1614,0.2007,0.2444,0.2797,0.0,0.0,0.0,0.0,0.292,0.292,0.292,0.3053,0.0,0.3187,0.0,0.0,0.0,0.0,0.0,0.0,0.0,0.0,0.0,0.0,0.6257,0.6564,0.639,0.6257,0.6564,0.718,0.7702,0.0,0.7702,0.7573,0.718,0.0,0.0,0.0,0.0,0.8536,0.9288,0.9728,0.9994,0.9994,0.9994,0.9994,0.9994,0.9994,0.9994,0.9994,0.9994,0.9994,0.9994,0.9994,0.9994,0.0,0.0,0.0,0.0,0.0,0.0,0.0,0.0,0.0,0.0,0.0,0.0,0.0,0.0,0.0,0.0,0.0,0.0,0.0,0.0,0.0,0.0,0.0,0.0,0.0,0.0,0.0,0.0,-0.4267,-0.4188,-0.4386,-0.4068,-0.3991,0.0,0.0,0.0,0.0,0.0,0.0,-0.3193,-0.2943,-0.2613,-0.2203,-0.1992,-0.1659,-0.1327,-0.1327,-0.1338,-0.1401,-0.1401,-0.1148,-0.0673,-0.0673,-0.0359,0.0179,0.0179,0.0269,0.0493,0.1211,0.1839,0.2334,0.2558,0.2604,0.2649,0.2829,0.292,0.292,0.292,0.2963,0.3097,0.3097,0.3409,0.381,0.3942,0.0,0.0,0.0,0.0,0.5272,0.5272,0.5549,0.5822,0.5822,0.5822,0.5822,0.5822,0.6223,0.6642,0.0,0.6779,0.6605,0.6083,0.0,0.0,0.0,0.0,0.779,0.854,0.9109,0.9419,0.9419,0.9598,0.9728,0.9728,0.9907,0.9994,0.9994,0.9994,0.9994,0.9994,0.9994,0.9994,0.9994,0.0,0.0,0.0,0.0,0.0,0.0,0.0,0.0,0.0,0.0,0.0,0.0,0.0,0.0,0.0,0.0,0.0,0.0,0.0,0.0,0.0,0.0,0.0,0.0,0.0,0.0,0.0,0.0,0.0,-0.6004,-0.4848,0.0,0.0,0.0,0.0,-0.536,-0.5368,-0.5199,-0.4733,-0.3861,-0.3179,-0.277,-0.1907,-0.1401,-0.1386,-0.1386,-0.1387,-0.1388,-0.1388,-0.1389,-0.1345,-0.1345,-0.1345,-0.13,-0.13,-0.0942,-0.0269,0.0448,0.0762,0.0897,0.157,0.1839,0.193,0.2649,0.292,0.292,0.292,0.3187,0.3544,0.3544,0.39,0.4342,0.4788,0.5037,0.0,0.0,0.5606,0.6067,0.6067,0.6067,0.6067,0.6067,0.6067,0.6067,0.6067,0.6114,0.6276,0.0,0.6779,0.6779,0.6735,0.0,0.5952,0.6691,0.682,0.7085,0.779,0.7878,0.7921,0.7921,0.854,0.8934,0.8934,0.9598,0.9994,0.9994,0.9994,0.9994,0.9994,0.9994,0.9994,0.9994,0.9994,0.0,0.0,0.0,0.0,0.0,0.0,0.0,0.0,0.0,0.0,0.0,0.0,0.0,0.0,0.0,0.0,0.0,0.0,0.0,0.0,0.0,0.0,0.0,0.0,0.0,0.0,0.0,0.0,-0.615,-0.5735,0.0,-0.6025,-0.5852,-0.569,-0.5565,-0.5588,-0.5412,-0.4932,-0.4459,-0.4124,-0.3978,-0.3493,-0.3284,-0.3264,-0.3264,-0.3264,-0.3264,-0.2642,-0.2376,-0.2331,-0.1704,-0.1391,-0.1391,-0.1391,-0.1256,-0.1031,-0.0762,-0.0134,0.0718,0.0987,0.1076,0.1121,0.1391,0.148,0.157,0.2019,0.2288,0.2562,0.3417,0.3829,0.4144,0.4935,0.5241,0.5319,0.5694,0.5912,0.6086,0.6086,0.6086,0.6086,0.6086,0.6086,0.6086,0.6086,0.6086,0.6153,0.6293,0.6368,0.6368,0.6368,0.614,0.6051,0.6322,0.6734,0.7102,0.7329,0.7742,0.8063,0.8063,0.8291,0.8428,0.8428,0.8706,0.9071,0.9581,0.9508,0.966,1.0159,1.007,0.9994,0.9994,0.9994,0.9994,0.0,0.0,0.0,0.0,0.0,0.0,0.0,0.0,0.0,0.0,0.0,0.0,0.0,0.0,0.0,0.0,0.0,0.0,0.0,0.0,0.0,0.0,0.0,0.0,0.0,0.0,-0.671,-0.6968,-0.6587,-0.6414,-0.6837,-0.6672,-0.6511,-0.6384,-0.6417,-0.6287,-0.5847,-0.5439,-0.5145,-0.5056,-0.4637,-0.4427,-0.4427,-0.4427,-0.4427,-0.4427,-0.3427,-0.2972,-0.2926,-0.1923,-0.142,-0.142,-0.142,-0.142,-0.142,-0.142,-0.087,0.0,0.0225,0.0314,0.0359,0.0587,0.068,0.0771,0.1234,0.1375,0.1561,0.2558,0.292,0.3139,0.4087,0.4395,0.4562,0.5377,0.5643,0.5721,0.6109,0.6203,0.6203,0.6203,0.6203,0.6203,0.6203,0.6203,0.6203,0.6203,0.614,0.6086,0.6086,0.6086,0.6086,0.6086,0.6461,0.6741,0.6741,0.7211,0.749,0.749,0.7677,0.7818,0.7818,0.8052,0.8426,0.8944,0.8878,0.9134,0.9967,0.9606,0.9638,1.0108,1.0104,1.0137,1.0203,0.0,0.0,0.0,0.0,0.0,0.0,0.0,0.0,0.0,0.0,0.0,0.0,0.0,0.0,0.0,0.0,0.0,0.0,0.0,0.0,0.0,0.0,0.0,-0.8612,-0.7981,-0.7801,-0.852,-0.7319,-0.6918,-0.8116,-0.7588,-0.7374,-0.7915,-0.7959,-0.7827,-0.7565,-0.6795,-0.6219,-0.5985,-0.5218,-0.48,-0.48,-0.48,-0.48,-0.48,-0.3706,-0.3185,-0.3137,-0.2095,-0.1573,-0.1573,-0.1573,-0.1526,-0.1478,-0.1478,-0.1478,-0.1425,-0.073,-0.0449,-0.036,0.0368,0.0648,0.065,0.0568,0.0572,0.0668,0.1143,0.1286,0.143,0.2237,0.2508,0.2889,0.426,0.4716,0.4983,0.6034,0.6337,0.6337,0.6337,0.6387,0.6387,0.6387,0.6387,0.6387,0.6387,0.6252,0.6097,0.6097,0.6097,0.6097,0.6097,0.6097,0.0,0.6097,0.6097,0.6097,0.6097,0.6706,0.708,0.708,0.7738,0.816,0.816,0.8157,0.8531,0.9329,0.8617,0.8864,1.0241,1.0282,1.0426,1.0621,0.0,0.0,0.0,0.0,0.0,0.0,0.0,0.0,0.0,0.0,0.0,0.0,0.0,0.0,0.0,0.0,0.0,0.0,0.0,0.0,0.0,0.0,-0.8612,-0.8612,-0.8432,-0.8384,-0.8568,-0.8256,-0.8167,-0.86,-0.8429,-0.8438,-0.8754,-0.8766,-0.867,-0.8387,-0.7966,-0.7616,-0.7336,-0.7004,-0.6791,-0.6791,-0.6791,-0.6791,-0.6791,-0.579,-0.5362,-0.5315,-0.4277,-0.3376,-0.2664,-0.2664,-0.2238,-0.1478,-0.1478,-0.1478,-0.1477,-0.1272,-0.122,-0.1173,-0.0991,-0.0567,-0.0095,-0.0095,0.024,0.0681,0.0826,0.0883,0.1042,0.1685,0.199,0.235,0.3098,0.346,0.3726,0.4028,0.468,0.5236,0.5236,0.5834,0.6387,0.6387,0.6387,0.6387,0.6387,0.6336,0.6339,0.6339,0.6339,0.6339,0.6339,0.6339,0.0,0.6339,0.6339,0.6339,0.6339,0.6486,0.6585,0.6585,0.6778,0.7122,0.771,0.7614,0.789,0.8695,0.8396,0.8641,0.962,1.0214,1.0518,0.0,0.0,0.0,0.0,0.0,0.0,0.0,0.0,0.0,0.0,0.0,0.0,0.0,0.0,0.0,0.0,0.0,0.0,0.0,0.0,0.0,0.0,-0.8674,-0.8702,-0.8779,-0.8723,-0.8674,-0.8674,-0.8743,-0.8828,-0.8926,-0.8934,-0.8978,-0.9088,-0.9096,-0.8999,-0.8707,-0.8639,-0.8492,-0.8208,-0.8034,-0.7928,-0.7928,-0.7832,-0.7784,-0.7735,-0.6759,-0.6273,-0.6225,-0.5206,-0.438,-0.3796,-0.3796,-0.3214,-0.2197,-0.2197,-0.1953,0.0,0.0,0.0,0.0,0.0,-0.1262,-0.088,-0.088,-0.0639,-0.0248,-0.0248,-0.025,-0.0151,0.0302,0.0554,0.0857,0.1864,0.2266,0.2469,0.3073,0.3676,0.413,0.413,0.4933,0.5734,0.5734,0.6087,0.6387,0.6387,0.6387,0.0,0.6387,0.6387,0.6387,0.6387,0.6387,0.6387,0.6387,0.6387,0.6387,0.6387,0.6387,0.6387,0.6387,0.6387,0.0,0.0,0.0,0.7116,0.7602,0.8085,0.0,0.0,0.0,1.0274,1.036,0.0,0.0,0.0,1.082,1.0768,0.0,0.0,0.0,0.0,0.0,0.0,0.0,0.0,0.0,0.0,0.0,0.0,0.0,0.0,0.0,0.0,-0.8985,-0.9042,-0.9076,-0.897,-0.8873,-0.8852,-0.8999,-0.9104,-0.9125,-0.9129,-0.9137,-0.9153,-0.9157,-0.9059,-0.8765,0.0,0.0,0.0,0.0,-0.8432,-0.8382,-0.8187,-0.8038,-0.7988,-0.7036,-0.6587,-0.6537,-0.5577,-0.5074,-0.4974,-0.4974,-0.4375,-0.3374,-0.3374,-0.2773,-0.1762,-0.1605,-0.1488,-0.154,-0.1566,-0.1594,-0.1617,-0.1617,0.0,0.0,-0.1617,-0.1617,-0.1566,-0.1314,-0.1212,-0.0909,0.0555,0.1009,0.131,0.2519,0.2922,0.3022,0.3022,0.3827,0.4634,0.4784,0.5536,0.6237,0.6387,0.6387,0.6387,0.6387,0.6387,0.6387,0.6387,0.6387,0.6387,0.6387,0.6387,0.6387,0.6387,0.0,0.0,0.6387,0.6387,0.6387,0.6387,0.6387,0.6387,0.6387,0.77,0.8133,0.7627,0.8919,0.9749,1.0019,1.0703,1.1096,1.1189,1.1014,1.0929,0.0,0.0,0.0,0.0,0.0,0.0,0.0,0.0,0.0,0.0,0.0,0.0,0.0,0.0,0.0,-1.0255,-1.0265,-0.996,-0.9232,-0.9185,-0.9202,-0.906,-0.9076,-0.9153,-0.9339,-0.9351,-0.9368,-0.9514,-0.9527,-0.938,-0.9131,-0.9117,-0.9034,-0.878,-0.8761,-0.863,-0.8382,-0.8333,-0.8237,-0.7988,0.0,0.0,-0.769,-0.7484,-0.6883,-0.6084,-0.6084,-0.5479,-0.4474,-0.4474,-0.3874,-0.2821,-0.1904,-0.1599,-0.16,-0.1606,-0.1612,-0.1617,-0.1617,-0.1617,-0.1617,-0.1617,-0.1617,-0.1566,-0.1516,-0.1364,0.0,-0.0555,-0.0252,0.0,0.0505,0.1261,0.1915,0.1915,0.272,0.3728,0.4634,0.4985,0.5386,0.6237,0.6387,0.6387,0.6387,0.6387,0.6387,0.6387,0.6387,0.6387,0.6387,0.6387,0.6387,0.6387,0.6387,0.6387,0.6387,0.6387,0.6387,0.6387,0.6387,0.6387,0.6387,0.7304,0.77,0.758,0.8495,0.9337,1.0019,1.0167,1.056,1.1194,1.1156,1.1137,0.0,0.0,0.0,0.0,0.0,0.0,0.0,0.0,0.0,0.0,0.0,-1.2032,0.0,0.0,-1.1415,-1.1522,-1.1543,-1.1397,-1.0953,-1.101,-1.0612,-0.9389,-0.9307,-0.9397,-0.9482,-0.949,-0.9531,-0.9571,-0.9579,-0.9529,-0.9381,-0.9381,-0.9321,-0.9149,-0.9002,-0.8841,-0.8674,-0.8517,-0.8361,-0.8262,-0.8262,-0.8262,-0.8262,-0.8262,-0.7952,-0.7437,-0.7437,-0.6816,-0.5784,-0.527,-0.4757,-0.414,-0.3006,-0.2155,-0.1617,-0.1617,-0.1617,-0.1617,-0.1617,-0.1617,-0.1617,-0.1617,-0.1617,-0.1617,-0.1617,-0.1516,-0.1364,-0.1061,-0.0808,-0.0556,-0.0253,0.0303,0.0807,0.0807,0.1613,0.2569,0.3073,0.3626,0.4178,0.4678,0.4778,0.4981,0.5484,0.5584,0.5787,0.6337,0.6387,0.6387,0.6387,0.6387,0.6387,0.6387,0.6387,0.6387,0.6387,0.6387,0.6387,0.6387,0.6387,0.6387,0.6387,0.6786,0.6983,0.6983,0.7779,0.8375,0.8825,0.9221,0.9616,1.001,1.0408,1.0806,0.0,0.0,0.0,0.0,0.0,0.0,0.0,0.0,-1.4832,-1.4332,-1.3921,-1.3738,-1.3921,-1.3233,-1.2644,-1.2839,-1.2867,-1.2797,-1.27,-1.277,-1.2145,-1.0338,-1.0187,-1.0212,-1.0212,-1.0246,-1.0317,-1.0317,-1.0347,-1.0369,-1.0369,-1.0174,-1.0042,-0.998,-0.9532,-0.9194,-0.8965,-0.8748,-0.8587,-0.8482,-0.8482,-0.8482,-0.8482,-0.8482,-0.8482,-0.8482,-0.8482,-0.8006,-0.7106,-0.6052,-0.5629,-0.547,-0.4307,-0.3242,-0.2244,-0.1786,-0.1634,-0.1633,-0.1628,-0.1626,-0.1624,-0.1619,-0.1617,-0.1617,-0.1617,-0.1617,-0.1566,-0.1263,-0.1061,-0.0808,-0.0505,-0.0253,-0.0051,0.0,0.0656,0.1361,0.1563,0.2267,0.2972,0.3173,0.3224,0.3475,0.4331,0.4481,0.4933,0.6184,0.6387,0.6387,0.6387,0.6387,0.6387,0.6387,0.6387,0.6387,0.6387,0.6387,0.6387,0.6387,0.6387,0.6387,0.6387,0.6387,0.6387,0.6387,0.7033,0.7431,0.758,0.8226,0.8627,0.8825,0.9472,1.0212,-1.6404,-1.6407,-1.6123,-1.5042,-1.5564,-1.5692,0.0,0.0,-1.4374,-1.318,-1.2892,-1.3132,-1.4058,-1.416,-1.407,-1.41,-1.4106,-1.3776,-1.2823,-1.2964,-1.3034,-1.2809,-1.2552,-1.2344,-1.2344,-1.2625,-1.2796,-1.2796,-1.3037,-1.3153,-1.3153,-1.2189,-1.1639,-1.1611,-1.0642,-0.9827,-0.9276,-0.9223,-0.8958,-0.8482,-0.8482,-0.8482,-0.8482,-0.8482,-0.8482,-0.8482,-0.8482,-0.843,-0.8217,-0.7159,-0.6737,-0.6632,-0.5523,-0.5035,-0.4648,-0.2486,-0.1695,-0.1691,-0.1666,-0.1709,-0.1705,-0.1626,-0.1617,-0.1617,-0.1617,-0.1617,-0.1566,-0.1263,-0.1162,-0.1061,-0.0556,-0.0354,-0.0303,-0.0051,0.0101,0.0454,0.1412,0.1714,0.2066,0.3022,0.3224,0.3224,0.3374,0.3374,0.4076,0.6084,0.6387,0.6387,0.6387,0.6387,0.6387,0.6387,0.6387,0.6387,0.6387,0.6387,0.6387,0.6387,0.6387,0.6387,0.6387,0.6387,0.6387,0.6387,0.6487,0.6883,0.758,0.768,0.8077,0.8825,0.8874,0.9369,-1.6879,-1.6934,-1.6857,-1.6371,-1.653,-1.6506,-1.5175,-1.5253,-1.5391,-1.4663,-1.4519,-1.4615,-1.5112,-1.5159,-1.5159,0.0,-1.5348,-1.5305,-1.4856,-1.5041,-1.5258,-1.5258,-1.5109,-1.4535,-1.3336,-1.3328,-1.3438,-1.3438,-1.3531,-1.3585,-1.3585,-1.2515,-1.1855,-1.1773,-1.0676,-0.9937,-0.9611,-0.9453,-0.9237,-0.9017,-0.8801,-0.8747,-0.8747,-0.8747,-0.8747,-0.8747,-0.8747,-0.8747,-0.8693,-0.8256,-0.8039,-0.7928,-0.6782,-0.6347,-0.6061,-0.3643,-0.2767,-0.2659,-0.1954,-0.1686,-0.1684,-0.1671,-0.1667,-0.1667,-0.1667,-0.1667,-0.1615,-0.1511,-0.1355,-0.1198,-0.099,-0.0834,-0.0626,-0.0313,-0.0209,-0.0052,0.0521,0.0677,0.0782,0.125,0.1354,0.151,0.2186,0.2289,0.3004,0.5169,0.5471,0.5687,0.6337,0.6387,0.6387,0.6387,0.6387,0.6387,0.6387,0.6387,0.6387,0.6387,0.6387,0.6387,0.6387,0.6387,0.6387,0.6387,0.6387,0.6584,0.6883,0.6883,0.7083,0.7431,0.7879,0.8276,-1.7267,-1.7239,-1.7192,-1.7145,-1.6918,-1.6697,-1.6447,-1.6211,-1.6028,-1.5832,-1.5784,-1.5784,-1.5784,-1.5784,-1.5804,-1.5939,-1.6132,-1.6348,-1.638,-1.664,-1.6827,-1.6827,-1.6901,-1.6374,-1.4871,-1.4652,-1.4612,-1.4612,-1.4676,-1.4716,-1.4716,-1.3626,-1.298,-1.2878,-1.171,-1.0924,-1.041,-1.0194,-0.9923,-0.9489,-0.9213,-0.9047,-0.9047,-0.8937,-0.8885,-0.8885,-0.8885,-0.8885,-0.8885,-0.8885,-0.8885,-0.8826,-0.7934,-0.7598,-0.7354,-0.5277,-0.41,-0.3345,-0.2149,-0.1717,-0.1715,-0.1707,-0.1704,-0.1704,-0.1704,-0.1704,-0.1704,-0.1704,-0.1544,-0.1385,-0.1331,-0.1172,-0.0907,-0.0587,-0.0533,-0.048,-0.016,-0.0107,-0.0107,0.0,0.0,0.0267,0.1012,0.1172,0.1802,0.3653,0.3917,0.4532,0.6192,0.6387,0.6387,0.6387,0.6387,0.6387,0.6387,0.6387,0.6387,0.6387,0.6387,0.6387,0.6387,0.6387,0.6387,0.6387,0.6387,0.6387,0.6387,0.6387,0.6387,0.6437,0.6983,0.7282,-1.7279,-1.7153,-1.6932,-1.6683,-1.6407,-1.617,-1.5879,-1.5825,-1.5832,-1.5784,-1.5784,-1.5784,-1.5784,-1.5784,-1.5925,-1.6213,-1.6315,-1.6373,-1.6653,-1.6947,-1.7186,-1.7186,-1.7434,-1.7555,0.0,-1.725,-1.7083,-1.7083,-1.7343,-1.7503,-1.7503,-1.6427,-1.5784,-1.5796,-1.4609,-1.3318,-1.1928,-1.1928,-1.1223,-0.9761,-0.9489,-0.9379,-0.9379,-0.9047,-0.8885,-0.8885,-0.8885,-0.8885,-0.8885,-0.8885,-0.8885,-0.8881,-0.8881,-0.883,-0.8716,-0.7423,-0.5526,-0.34,-0.2196,-0.1803,-0.1798,-0.1714,-0.1704,-0.1704,-0.1704,-0.1704,-0.1704,-0.1704,-0.1704,-0.1651,-0.1385,-0.1278,-0.1225,-0.096,-0.0907,-0.08,-0.048,-0.0373,-0.032,-0.0053,0.0,0.0,0.0053,0.0053,0.0426,0.1543,0.1701,0.2831,0.6012,0.6387,0.6387,0.6387,0.6387,0.6387,0.6387,0.6387,0.6387,0.6387,0.6387,0.6387,0.6387,0.6387,0.6387,0.6387,0.6387,0.6387,0.6387,0.6387,0.6387,0.6387,0.6437,0.6434,-1.7466,-1.7239,-1.7192,-1.7099,-1.6918,-1.6697,-1.6595,-1.6312,-1.6076,-1.6076,-1.6238,-1.6326,-1.6174,-1.6432,-1.665,-1.6596,-1.6777,-1.6938,-1.7038,-1.7306,-1.7494,-1.7494,-1.7522,0.0,0.0,0.0,0.0,-1.7494,-1.7528,-1.7582,-1.7582,-1.6505,-1.5914,-1.5914,-1.4728,-1.3863,-1.3383,-1.3221,-1.2516,-1.1223,-0.9978,-0.9268,-0.9047,-0.8937,-0.8885,-0.8885,-0.8885,-0.8885,-0.8885,-0.8885,-0.8885,-0.8885,-0.8885,-0.8885,-0.8771,-0.7543,-0.6594,-0.5639,-0.3668,-0.2998,-0.2884,-0.2043,-0.1765,-0.1765,-0.1765,-0.1765,-0.1765,-0.1765,-0.1765,-0.171,-0.1378,-0.1323,-0.1158,-0.0662,-0.0552,-0.0496,-0.0221,-0.011,-0.011,0.0,0.0,0.0,0.0,0.0,0.0384,0.1464,0.2892,0.4232,0.5326,0.6155,0.6679,0.6679,0.6605,0.6556,0.6556,0.6433,0.6387,0.6387,0.6387,0.6387,0.6387,0.6387,0.6387,0.6387,0.6387,0.6387,0.6387,0.6387,0.6387,0.6387,0.6387,0.6387,-1.8017,-1.7552,-1.7279,-1.7192,-1.7113,-1.6979,-1.6878,-1.6595,-1.6312,-1.6224,-1.656,-1.6718,-1.637,-1.6718,-1.7055,-1.6898,-1.7072,-1.7239,-1.734,-1.7514,-1.7582,-1.7582,-1.7582,-1.7582,0.0,0.0,0.0,-1.7582,-1.7582,-1.7582,-1.7582,-1.6935,-1.6505,-1.6505,-1.5749,-1.5156,-1.4728,-1.4561,-1.3652,-1.1982,-1.0735,-0.9757,-0.9051,-0.894,-0.8885,-0.8885,-0.8885,-0.8885,-0.8885,-0.8885,-0.8885,-0.8885,-0.8885,-0.8885,-0.8826,-0.8045,-0.7768,-0.7432,-0.5029,-0.397,-0.3469,-0.2688,-0.213,-0.1795,-0.1795,-0.1795,-0.1795,-0.1795,-0.1795,-0.1739,-0.1402,-0.129,-0.1177,-0.0673,-0.0561,-0.0505,-0.0224,-0.0168,-0.0112,0.0,0.0,0.0,0.0,0.0,0.0223,0.0938,0.2617,0.4147,0.4892,0.5682,0.6323,0.6748,0.6733,0.6684,0.6684,0.6611,0.6567,0.6567,0.6567,0.6567,0.6567,0.6567,0.6567,0.6567,0.6567,0.6567,0.6567,0.6567,0.6567,0.6567,0.6567,0.6567,-1.888,-1.8149,-1.7333,-1.7207,-1.716,-1.7066,-1.677,-1.6723,-1.6643,-1.638,-1.6814,-1.7078,0.0,0.0,-1.7257,-1.723,-1.7226,-1.732,-1.7542,-1.7582,-1.7582,0.0,0.0,0.0,0.0,0.0,0.0,-1.7582,0.0,-1.7582,-1.7582,-1.7582,-1.7582,-1.7582,-1.7582,-1.7094,-1.6021,-1.5914,-1.462,-1.2146,-1.1705,-1.0785,-0.9434,-0.9047,-0.8885,-0.8885,-0.8885,-0.8885,-0.8885,-0.8885,-0.8885,-0.8885,-0.8885,-0.8885,-0.8885,-0.8885,-0.8885,-0.8602,-0.6364,-0.4804,-0.3748,-0.3636,-0.28,-0.1907,-0.1795,-0.1795,-0.1795,-0.1795,-0.1795,-0.1739,-0.1346,-0.129,-0.1234,-0.0897,-0.0841,-0.0785,-0.0449,-0.0393,-0.028,-0.0056,0.0,0.0,0.0,0.0,0.0,0.0,0.0953,0.2489,0.4544,0.4951,0.5483,0.6606,0.6762,0.6812,0.6812,0.6806,0.6801,0.6801,0.6801,0.6801,0.6801,0.6801,0.6801,0.6801,0.6801,0.6801,0.6801,0.6801,0.6801,0.6801,0.6801,0.6801,-1.9824,-1.9147,-1.8557,-1.9239,-1.9376,-1.9193,-1.8419,-1.8056,-1.8039,-1.829,-1.8657,-1.8863,0.0,0.0,0.0,-1.7932,-1.7632,0.0,-1.7569,-1.7582,0.0,-1.7582,0.0,-1.7582,-1.7582,-1.7582,0.0,0.0,-1.7582,-1.7582,-1.7582,-1.7582,-1.7582,-1.7582,-1.7582,-1.7477,-1.7153,-1.608,-1.506,-1.4196,-1.2191,-1.0891,-1.0351,-0.9375,-0.8885,-0.8885,-0.8885,-0.8885,-0.8885,-0.8885,-0.8885,-0.8885,-0.8885,-0.8885,-0.8885,-0.8885,-0.8885,-0.8826,-0.8211,-0.7204,-0.5924,-0.4195,-0.3413,-0.2967,-0.2074,-0.1795,-0.1795,-0.1795,-0.1795,-0.1683,-0.1121,-0.1009,-0.0897,-0.0336,-0.0224,-0.0224,-0.0112,-0.0112,-0.0056,0.0,0.0,0.0,0.0,0.0,0.0,0.0,0.028,0.1005,0.2433,0.4195,0.5412,0.5744,0.6446,0.694,0.694,0.6855,0.6801,0.6801,0.6801,0.6801,0.6801,0.6801,0.6801,0.6801,0.6801,0.6801,0.6801,0.6801,0.6801,0.6801,0.6801,0.6801,-2.0737,-1.9832,-1.9018,-1.9968,-2.0187,-2.0138,-1.9803,-1.9614,-1.9581,-1.9947,-2.0345,-2.0549,-2.0339,-2.0159,-1.9731,0.0,0.0,0.0,-1.7582,-1.7582,-1.7582,0.0,-1.7582,0.0,-1.7582,-1.7582,-1.7582,0.0,-1.7582,-1.7582,-1.7582,-1.7582,-1.7582,-1.7582,-1.7582,-1.7582,-1.7582,-1.6677,-1.5873,-1.5173,-1.2891,-1.1483,-1.0836,-0.9482,-0.8885,-0.8885,0.0,-0.8885,-0.8885,-0.8885,-0.8885,-0.8885,-0.8885,-0.8885,-0.8885,-0.8885,-0.8885,-0.8885,-0.8885,-0.8436,-0.7598,-0.5755,-0.4418,-0.3469,-0.28,-0.2242,-0.1795,-0.1795,-0.1795,-0.1683,-0.1065,-0.0897,-0.0729,-0.0168,0.0,0.0,0.0,0.0,0.0,0.0,0.0,0.0,0.0,0.0,0.0,0.0,0.0,0.0224,0.0896,0.263,0.4252,0.526,0.5936,0.6508,0.7059,0.6997,0.6956,0.6956,0.6956,0.6956,0.6956,0.6956,0.6956,0.6956,0.6956,0.6956,0.6956,0.6956,0.6956,0.6956,0.6956,0.6956,-2.1596,-2.0557,-1.9422,-2.0367,-2.0593,-2.0652,-2.0989,-2.1084,-2.1142,-2.138,-2.1812,-2.1996,-2.159,-2.0761,-2.003,-1.9723,0.0,-1.7582,-1.7582,-1.7582,-1.7582,-1.7582,-1.7582,-1.7582,-1.7582,-1.7582,-1.7582,-1.7582,-1.7582,-1.7582,-1.7582,-1.7582,-1.7582,-1.7582,-1.7582,-1.7582,-1.7582,-1.7272,-1.6636,-1.5553,-1.3809,-1.2398,-1.1214,-0.9809,-0.9047,-0.8885,-0.8885,-0.8885,-0.8885,-0.8885,-0.8885,-0.8885,-0.8885,-0.8885,-0.8885,-0.8885,-0.8885,-0.8885,-0.8885,-0.8885,-0.8716,-0.7487,-0.5644,-0.3804,-0.3636,-0.2744,-0.1795,-0.1795,-0.1795,-0.1683,-0.1121,-0.0953,-0.0729,-0.0168,0.0,0.0,0.0,0.0,0.0,0.0,0.0,0.0,0.0,0.0,0.0,0.0,0.0,0.0,0.0,0.1064,0.2574,0.4698,0.5202,0.5817,0.6877,0.7099,0.721,0.721,0.721,0.721,0.721,0.721,0.721,0.721,0.721,0.721,0.721,0.721,0.721,0.721,0.721,0.721,-2.2599,-2.205,-2.1418,-2.2369,-2.2589,-2.2517,-2.2144,-2.2053,0.0,-2.2617,-2.2753,-2.2899,-2.3091,-2.1855,-2.0646,-2.0038,-1.8603,-1.7582,-1.7582,-1.7582,-1.7582,0.0,-1.7582,-1.7582,-1.7582,-1.7582,0.0,0.0,-1.7582,-1.7582,-1.7582,-1.7582,-1.7582,-1.7582,-1.7582,-1.7582,-1.7582,-1.7054,-1.6677,-1.6465,-1.4745,-1.3344,-1.2141,-1.0945,-0.986,-0.8885,-0.8885,0.0,-0.8885,-0.8885,-0.8885,-0.8885,-0.8885,-0.8885,-0.8885,-0.8885,-0.8885,-0.8885,-0.8885,-0.8885,-0.8716,-0.7487,-0.62,-0.4916,-0.3916,-0.2744,-0.1795,-0.1795,-0.1795,-0.1739,-0.1346,-0.1065,-0.0785,-0.0449,-0.0168,0.0,0.0,0.0,0.0,0.0,0.0,0.0,0.0,0.0,0.0,0.0,0.0,0.0,0.0,0.1064,0.1959,0.2407,0.4196,0.5483,0.5706,0.6652,0.721,0.721,0.721,0.721,0.721,0.721,0.721,0.721,0.721,0.721,0.721,0.721,0.721,0.721,0.721,0.721,-2.2872,-2.2413,-2.1926,-2.2872,-2.3091,-2.3169,-2.3345,-2.3235,-2.3263,-2.3946,-2.3898,-2.3766,-2.3918,-2.2895,-2.1707,-2.0686,-1.9456,-1.8401,-1.7687,-1.7582,-1.7582,-1.7582,-1.7582,-1.7582,-1.7582,-1.7582,-1.7582,-1.7582,-1.7582,-1.7582,-1.7582,-1.7582,-1.7582,-1.7582,-1.7582,-1.7582,-1.7582,-1.6995,-1.6677,-1.6677,-1.5024,-1.3894,-1.329,-1.1487,-1.0402,-0.9805,-0.9154,0.0,-0.8885,-0.8885,-0.8885,-0.8885,-0.8885,-0.8885,-0.8885,-0.8885,-0.8885,-0.8885,-0.8885,-0.8885,-0.8826,-0.8214,-0.726,-0.6089,-0.4918,-0.3692,-0.2632,-0.1963,-0.1795,-0.1739,-0.1402,-0.1121,-0.0841,-0.0505,-0.0168,0.0,0.0,0.0,0.0,0.0,0.0,0.0,0.0,0.0,0.0,0.0,0.0,0.0,0.0,0.0504,0.112,0.1735,0.2854,0.4029,0.5316,0.5929,0.6541,0.7154,0.721,0.721,0.721,0.721,0.721,0.721,0.721,0.721,0.721,0.721,0.721,0.721,0.721,0.721,-2.2916,-2.2555,-2.2192,-2.2916,-2.3091,-2.3296,-2.4102,-2.4033,-2.3984,-2.4705,-2.4521,-2.4277,-2.4277,-2.3523,-2.2545,-2.1582,-2.0413,-1.922,-1.8199,-1.7786,-1.7582,-1.7582,-1.7582,0.0,-1.7582,-1.7582,0.0,-1.7582,-1.7582,-1.7582,-1.7582,-1.7582,-1.7582,-1.7582,-1.7582,-1.7582,-1.7582,-1.6995,-1.6677,-1.6677,-1.5238,-1.4439,-1.4164,-1.2309,-1.1164,-1.0672,-0.9699,0.0,0.0,-0.8885,-0.8885,-0.8885,-0.8885,-0.8885,-0.8885,-0.8885,-0.8885,-0.8885,-0.8885,-0.8885,-0.8885,-0.8885,-0.81,-0.693,-0.6031,-0.4751,-0.3413,-0.2465,-0.2019,-0.1739,-0.1458,-0.1177,-0.0785,-0.0393,-0.0168,0.0,0.0,0.0,0.0,0.0,0.0,0.0,0.0,0.0,0.0,0.0,0.0,0.0,0.0,0.0,0.0336,0.1288,0.1623,0.2686,0.4812,0.526,0.5929,0.7099,0.721,0.721,0.721,0.721,0.721,0.721,0.721,0.721,0.721,0.721,0.721,0.721,0.721,0.721,-2.3091,-2.3047,-2.3003,-2.3091,-2.3091,-2.3218,-2.374,-2.3818,-2.3809,-2.3887,-2.3877,-2.3848,-2.3848,-2.3103,-2.2539,-2.2783,-2.1018,-1.9576,-1.942,-1.8349,-1.7582,-1.7582,0.0,0.0,-1.7582,-1.7582,-1.7582,-1.7582,-1.7582,-1.7582,-1.7582,-1.7582,-1.7582,-1.7582,-1.7582,-1.7582,-1.7582,-1.6995,-1.6677,-1.6677,-1.6045,-1.519,-1.4169,-1.4002,-1.2748,-1.0672,-1.0562,0.0,0.0,-0.8885,-0.8885,-0.8885,-0.8885,-0.8885,-0.8885,-0.8885,-0.8885,-0.8885,-0.8885,-0.8885,-0.8885,-0.8885,-0.81,-0.7096,-0.6985,-0.5365,-0.358,-0.3469,-0.2633,-0.1795,-0.1739,-0.1346,-0.0729,-0.0168,0.0,0.0,0.0,0.0,0.0,0.0,0.0,0.0,0.0,0.0,0.0,0.0,0.0,0.0,0.0,0.0,0.0056,0.0168,0.112,0.2351,0.3636,0.4756,0.5929,0.7099,0.721,0.721,0.721,0.721,0.721,0.721,0.721,0.721,0.721,0.721,0.721,0.721,0.721,0.721,-2.3091,-2.3091,-2.3091,-2.3091,-2.3091,-2.3208,-2.3691,-2.3584,-2.3467,-2.374,-2.3584,-2.3398,-2.3398,-2.3491,-2.3374,-2.2765,-2.1627,-2.059,-1.9731,-1.8454,-1.7582,-1.7582,-1.7582,0.0,0.0,0.0,-1.7582,-1.7582,-1.7582,-1.7582,-1.7582,-1.7582,-1.7582,-1.7582,-1.7582,-1.7582,-1.7582,-1.6995,-1.6677,-1.6677,-1.6152,-1.5672,-1.519,-1.3781,-1.2635,-1.1651,-1.0241,0.0,0.0,-0.8885,-0.8885,-0.8885,-0.8885,-0.8885,-0.8885,-0.8885,-0.8885,-0.8885,-0.8885,-0.8885,-0.8885,-0.8885,-0.8549,-0.8045,-0.7321,-0.5977,-0.4528,-0.3804,-0.2744,-0.1795,-0.1795,-0.1346,-0.0785,-0.0336,-0.0112,0.0,0.0,0.0,0.0,0.0,0.0,0.0,0.0,0.0,0.0,0.0,0.0,0.0,0.0,0.0,0.0,0.0,0.1064,0.2295,0.3525,0.4698,0.5929,0.7099,0.721,0.721,0.721,0.721,0.721,0.721,0.721,0.721,0.721,0.721,0.721,0.721,0.721,0.721,-2.3091,-2.3091,-2.3091,-2.3091,-2.3091,-2.3179,-2.3525,-2.3359,-2.3179,-2.3535,-2.3305,-2.3091,-2.3091,-2.374,-2.3798,-2.2586,-2.1884,-2.1073,-1.9767,-1.8454,-1.7582,-1.7582,0.0,-1.7582,0.0,-1.7582,-1.7582,-1.7582,-1.7582,-1.7582,-1.7582,-1.7582,-1.7582,-1.7582,-1.7582,-1.7582,-1.7582,-1.6995,-1.6677,-1.6677,-1.6152,-1.5891,-1.5832,-1.4207,-1.3068,-1.2304,-1.0625,0.0,0.0,-0.8885,-0.8885,-0.8885,-0.8885,-0.8885,-0.8885,-0.8885,-0.8885,-0.8885,-0.8885,-0.8885,-0.8885,-0.8885,-0.8885,-0.8716,-0.7878,-0.6813,-0.5641,-0.4472,-0.3024,-0.1795,-0.1683,-0.129,-0.0841,-0.0505,-0.0168,0.0,0.0,0.0,0.0,0.0,0.0,0.0,0.0,0.0,0.0,0.0,0.0,0.0,0.0,0.0,0.0,0.0,0.1064,0.2295,0.3525,0.4364,0.5536,0.7099,0.721,0.721,0.721,0.721,0.721,0.721,0.721,0.721,0.721,0.721,0.721,0.721,0.721,0.721,-2.3091,-2.3091,-2.3091,-2.3091,-2.3091,-2.3091,-2.3101,-2.3101,-2.3091,-2.3101,-2.3101,-2.3091,-2.3091,-2.3496,-2.3508,-2.2541,-2.1613,-2.069,-1.973,-1.8454,-1.7582,0.0,0.0,-1.7582,-1.7582,-1.7582,-1.7582,-1.7582,-1.7582,0.0,-1.7582,-1.7582,-1.7582,-1.7582,-1.7582,-1.7582,-1.7582,-1.6995,-1.6677,-1.6677,-1.6152,-1.5891,-1.5891,-1.5891,-1.4589,0.0,0.0,0.0,0.0,-0.8885,-0.8885,-0.8885,-0.8885,-0.8885,-0.8885,-0.8885,-0.8885,-0.8885,-0.8885,-0.8885,-0.8885,-0.8885,-0.8885,-0.8885,-0.8881,-0.8045,-0.6818,-0.5695,-0.3636,-0.1739,-0.1402,-0.1121,-0.0841,-0.0505,-0.0168,0.0,0.0,0.0,0.0,0.0,0.0,0.0,0.0,0.0,0.0,0.0,0.0,0.0,0.0,0.0,0.0,0.0,0.1064,0.2295,0.3525,0.3636,0.4641,0.7041,0.721,0.721,0.721,0.721,0.721,0.721,0.721,0.721,0.721,0.721,0.721,0.721,0.721,0.721,-2.3091,-2.3091,-2.3091,-2.3091,-2.3091,-2.3091,-2.3091,-2.3091,-2.3091,-2.3091,-2.3091,-2.3091,-2.3091,-2.2933,-2.2695,-2.2447,-2.1078,-1.9946,0.0,0.0,0.0,-1.7582,-1.7582,-1.7582,0.0,0.0,-1.7582,-1.7582,-1.7582,-1.7582,-1.7582,-1.7582,-1.7582,-1.7582,-1.7582,-1.7582,-1.7582,-1.6995,-1.6677,-1.6677,-1.6152,-1.5891,-1.5891,-1.5083,-1.3889,0.0,0.0,0.0,0.0,-0.8885,-0.8885,-0.8885,-0.8885,-0.8885,-0.8885,-0.8885,-0.8885,-0.8885,-0.8885,-0.8885,-0.8885,-0.8885,-0.8885,-0.8885,-0.8885,-0.8045,-0.6705,-0.4751,-0.3023,-0.1739,-0.1402,-0.1121,-0.0841,-0.0505,-0.0168,0.0,0.0,0.0,0.0,0.0,0.0,0.0,0.0,0.0,0.0,0.0,0.0,0.0,0.0,0.0,0.0,0.0,0.0336,0.14,0.3413,0.4364,0.5481,0.7099,0.721,0.721,0.721,0.721,0.721,0.721,0.721,0.721,0.721,0.721,0.721,0.721,0.721,0.721,-2.3091,-2.3091,-2.3091,-2.3091,-2.3091,-2.3091,-2.3091,-2.3091,-2.3091,-2.3091,-2.3091,-2.3003,-2.2643,-2.2385,-2.1995,-2.1198,-2.0197,0.0,0.0,0.0,0.0,-1.7582,0.0,0.0,0.0,-1.7582,-1.7582,-1.7582,-1.7582,-1.7582,-1.7582,-1.7582,-1.7582,-1.7582,-1.7582,-1.7582,-1.7582,-1.6995,-1.6677,-1.6677,-1.6152,-1.5891,-1.5891,-1.519,-1.3943,0.0,0.0,0.0,0.0,-0.8885,-0.8885,-0.8885,-0.8885,-0.8885,-0.8885,-0.8885,-0.8885,-0.8885,-0.8885,-0.8885,-0.8885,-0.8885,-0.8885,-0.8885,-0.8885,-0.7765,-0.6144,-0.4695,-0.3079,-0.1739,-0.1402,-0.1121,-0.0841,-0.0505,-0.0168,0.0,0.0,0.0,0.0,0.0,0.0,0.0,0.0,0.0,0.0,0.0,0.0,0.0,0.0,0.0,0.0,0.0,0.0392,0.1456,0.3413,0.4308,0.5425,0.7099,0.721,0.721,0.721,0.721,0.721,0.721,0.721,0.721,0.721,0.721,0.721,0.721,0.721,0.721,0.0,-2.3091,-2.3091,-2.3091,-2.3091,-2.3091,-2.3091,-2.3091,0.0,-2.3091,-2.3091,-2.2818,-2.1872,-2.1889,-2.1346,-1.9215,-1.9124,0.0,0.0,-1.7582,0.0,0.0,-1.7582,0.0,-1.7582,-1.7582,-1.7582,-1.7582,-1.7582,-1.7582,-1.7582,-1.7582,-1.7582,-1.7582,-1.7582,-1.7582,-1.7582,-1.6995,-1.6677,-1.6683,-1.6152,-1.5891,-1.5891,-1.5832,-1.453,0.0,0.0,0.0,-0.8885,-0.8885,-0.8885,-0.8885,-0.8885,-0.8885,-0.8885,-0.8885,-0.8885,-0.8885,-0.8885,-0.8885,-0.8885,-0.8885,-0.8885,-0.8885,-0.8885,-0.7315,-0.5528,-0.5417,-0.3748,-0.1851,-0.1402,-0.1065,-0.0785,-0.0449,-0.0168,0.0,0.0,0.0,0.0,0.0,0.0,0.0,0.0,0.0,0.0,0.0,0.0,0.0,0.0,0.0,0.0,0.0,0.1064,0.2295,0.3525,0.3692,0.4697,0.7041,0.721,0.721,0.721,0.721,0.721,0.721,0.721,0.721,0.721,0.721,0.721,0.721,0.721,0.721,-2.3091,0.0,-2.3091,-2.3091,-2.3091,-2.3091,0.0,-2.3091,-2.3091,-2.3091,-2.3091,-2.2818,-2.1872,-2.1198,-2.0354,-1.9077,-1.834,-1.786,-1.7647,-1.7582,0.0,-1.7582,-1.7582,-1.7582,-1.7582,-1.7582,-1.7582,-1.7582,-1.7582,-1.7582,-1.7582,-1.7582,-1.7582,-1.7582,-1.7582,-1.7483,-1.7279,-1.6895,-1.6577,-1.6371,-1.6051,-1.5891,-1.5891,-1.4976,-1.3776,0.0,0.0,-1.0241,-0.8885,-0.8885,-0.8885,-0.8885,-0.8885,-0.8885,-0.8885,-0.8885,-0.8885,-0.8885,-0.8885,-0.8885,-0.8885,-0.8885,-0.8885,-0.8885,-0.8885,-0.7875,-0.6536,-0.5641,-0.4305,-0.2855,-0.1401,-0.0953,-0.0785,-0.0224,-0.0056,0.0,0.0,0.0,0.0,0.0,0.0,0.0,0.0,0.0,0.0,0.0,0.0,0.0,0.0,0.0,0.0,0.0,0.1064,0.2295,0.3525,0.4419,0.5592,0.7099,0.721,0.721,0.721,0.721,0.721,0.721,0.721,0.721,0.721,0.721,0.721,0.721,0.721,0.721,-2.3091,-2.3091,-2.3091,-2.3091,-2.3091,-2.3091,-2.3091,-2.3091,-2.3091,-2.3091,-2.2775,-2.216,-2.1246,-2.0386,-1.9469,-1.8438,-1.7967,0.0,0.0,0.0,-1.7582,-1.7582,-1.7582,-1.7582,0.0,-1.7582,-1.7582,-1.7582,-1.7582,-1.7582,-1.7582,-1.7582,-1.7582,-1.7582,-1.7582,-1.7483,-1.7179,-1.6849,-1.6577,-1.6271,-1.5512,-1.5137,-1.5083,-1.4493,-1.3236,0.0,0.0,-1.0515,-0.8885,-0.8885,-0.8885,-0.8885,-0.8885,-0.8885,-0.8885,-0.8885,-0.8885,-0.8885,-0.8885,-0.8885,-0.8885,-0.8885,-0.8885,-0.8885,-0.8885,-0.8436,-0.7598,-0.5862,-0.4528,-0.3189,-0.1345,-0.0897,-0.0729,-0.0168,0.0,0.0,0.0,0.0,0.0,0.0,0.0,0.0,0.0,0.0,0.0,0.0,0.0,0.0,0.0,0.0,0.0,0.0,0.1064,0.2295,0.3525,0.4698,0.5929,0.7099,0.721,0.721,0.721,0.721,0.721,0.721,0.721,0.721,0.721,0.721,0.721,0.721,0.721,0.721,-2.3091,-2.3003,-2.2916,-2.3047,-2.3091,-2.3091,-2.3091,-2.3091,-2.3047,-2.2916,-2.2239,-2.1392,-2.028,-1.9638,-1.8885,0.0,0.0,0.0,-1.7635,-1.7582,-1.7582,-1.7582,-1.7582,0.0,-1.7582,-1.7582,-1.7582,-1.7582,-1.7582,-1.7582,-1.7582,-1.7582,-1.7582,-1.7582,-1.7582,-1.743,-1.712,-1.6842,-1.6471,-1.5951,-1.4761,-1.411,-1.3894,-1.3727,-1.258,-1.0726,0.0,0.0,-0.8885,-0.8885,-0.8885,-0.8885,-0.8885,-0.8885,-0.8885,-0.8885,-0.8885,-0.8885,-0.8885,-0.8885,-0.8885,-0.8885,-0.8885,-0.8885,-0.8885,-0.8885,-0.8432,-0.6086,-0.4637,-0.3413,-0.1401,-0.0897,-0.0729,-0.0168,0.0,0.0,0.0,0.0,0.0,0.0,0.0,0.0,0.0,0.0,0.0,0.0,0.0,0.0,0.0,0.0,0.0,0.0,0.1064,0.2295,0.3525,0.4698,0.5929,0.7099,0.721,0.721,0.721,0.721,0.721,0.721,0.721,0.721,0.721,0.721,0.721,0.721,0.721,0.721,-2.3091,-2.2511,-2.2104,-2.2916,-2.3091,-2.3091,-2.3091,-2.3091,-2.2862,-2.2104,-2.1834,-2.1254,-1.9454,-1.9063,-1.8694,0.0,0.0,-1.7635,0.0,0.0,-1.7582,-1.7582,0.0,-1.7582,-1.7582,-1.7582,-1.7582,-1.7582,-1.7582,-1.7582,-1.7582,-1.7582,-1.7582,-1.7582,-1.7378,-1.712,-1.6783,-1.673,-1.5986,-1.4546,-1.4277,-1.3673,-1.2635,-1.1651,-1.1055,-1.0672,0.0,-0.921,-0.8885,-0.8885,-0.8885,-0.8885,-0.8885,-0.8885,-0.8885,-0.8885,-0.8885,-0.8885,-0.8885,-0.8885,-0.8885,-0.8885,-0.8885,-0.8885,-0.8885,-0.8885,-0.8432,-0.6086,-0.525,-0.447,-0.1625,-0.0897,-0.0729,-0.0168,0.0,0.0,0.0,0.0,0.0,0.0,0.0,0.0,0.0,0.0,0.0,0.0,0.0,0.0,0.0,0.0,0.0,0.0,0.1064,0.2295,0.3525,0.4698,0.5929,0.7099,0.721,0.721,0.721,0.721,0.721,0.721,0.721,0.721,0.721,0.721,0.721,0.721,0.721,0.721,-2.3091,-2.2784,-2.2457,-2.2369,-2.1828,-2.1373,-2.1373,-2.1347,-2.1263,-2.0798,-2.0458,-1.9974,-1.9112,0.0,-1.8061,-1.7615,0.0,-1.7582,-1.7582,-1.7582,-1.7582,0.0,0.0,-1.7582,-1.7582,-1.7582,-1.7582,-1.7582,-1.7582,-1.7582,-1.7582,-1.7582,-1.7582,-1.7582,-1.7483,-1.7166,-1.6677,-1.6086,-1.5232,-1.4169,-1.3565,-1.2635,-1.1433,-1.0945,-1.0347,-0.9754,0.0,-0.9478,-0.8885,-0.8885,-0.8885,-0.8885,-0.8885,-0.8885,-0.8885,-0.8885,-0.8885,-0.8885,-0.8885,-0.8885,-0.8885,-0.8885,-0.8885,-0.8885,-0.8885,-0.8885,-0.8546,-0.6813,-0.575,-0.4467,-0.1624,-0.0785,-0.0505,-0.0112,0.0,0.0,0.0,0.0,0.0,0.0,0.0,0.0,0.0,0.0,0.0,0.0,0.0,0.0,0.0,0.0,0.0,0.0,0.1064,0.2295,0.3525,0.4698,0.5929,0.7099,0.721,0.721,0.721,0.721,0.721,0.721,0.721,0.721,0.721,0.721,0.721,0.721,0.721,0.721,-2.3091,-2.2775,-2.2227,-2.1507,-2.0836,-2.0257,-1.9985,-1.9924,-1.9892,-1.961,-1.9244,-1.8892,-1.8658,-1.8016,0.0,-1.7601,-1.7582,-1.7582,-1.7582,-1.7582,-1.7582,-1.7582,-1.7582,-1.7582,-1.7582,-1.7582,-1.7582,-1.7582,-1.7582,-1.7582,-1.7582,-1.7582,-1.7582,-1.7582,-1.7477,-1.7153,-1.6677,-1.5441,-1.4482,-1.3781,-1.258,-1.1383,-1.0296,-1.0296,-0.9754,-0.8937,-0.986,-0.975,-0.8885,-0.8885,-0.8885,-0.8885,-0.8885,-0.8885,-0.8885,-0.8885,-0.8885,-0.8885,-0.8885,-0.8885,-0.8885,-0.8885,-0.8885,-0.8885,-0.8885,-0.8885,-0.866,-0.7432,-0.5975,-0.4244,-0.1903,-0.0841,-0.0336,-0.0056,0.0,0.0,0.0,0.0,0.0,0.0,0.0,0.0,0.0,0.0,0.0,0.0,0.0,0.0,0.0,0.0,0.0,0.0,0.084,0.1959,0.3469,0.4977,0.6207,0.7154,0.721,0.721,0.721,0.721,0.721,0.721,0.721,0.721,0.721,0.721,0.721,0.721,0.721,0.721,-2.3091,-2.1774,-2.0367,-2.0322,-2.0962,-2.1293,-2.0158,-2.0079,-1.9956,-1.8822,-1.8818,-1.8723,0.0,-1.7576,-1.7608,-1.7582,-1.7582,-1.7582,-1.7582,0.0,-1.7582,-1.7582,-1.7582,-1.7582,-1.7582,-1.7582,-1.7582,-1.7582,-1.7582,-1.7582,-1.7582,-1.7582,-1.7582,-1.7582,-1.7047,-1.673,-1.6677,-1.5078,-1.3673,-1.2526,-1.1378,-1.0186,-0.9047,-0.9047,-0.8992,-0.8885,-0.8992,-0.8992,-0.8885,-0.8885,-0.8885,-0.8885,-0.8885,-0.8885,-0.8885,-0.8885,-0.8885,-0.8885,-0.8885,-0.8885,-0.8885,-0.8885,-0.8885,-0.8885,-0.8885,-0.8885,-0.866,-0.7432,-0.5866,-0.4247,-0.2907,-0.1512,-0.0336,-0.0056,0.0,0.0,0.0,0.0,0.0,0.0,0.0,0.0,0.0,0.0,0.0,0.0,0.0,0.0,0.0,0.0,0.0,0.0,0.0056,0.1064,0.3413,0.5757,0.7099,0.721,0.721,0.721,0.721,0.721,0.721,0.721,0.721,0.721,0.721,0.721,0.721,0.721,0.721,0.721,-2.3091,-2.2041,-2.0764,-2.0322,-1.9946,-1.9424,-1.8361,-1.8197,-1.8201,-1.7761,-1.7939,-1.8033,0.0,0.0,-1.7582,-1.7582,-1.7582,-1.7582,-1.7582,-1.7582,-1.7582,-1.7582,-1.7582,-1.7582,-1.7582,-1.7582,-1.7582,-1.7582,-1.7582,-1.7582,-1.7582,-1.7582,-1.7582,-1.7582,-1.7219,-1.6577,-1.5654,-1.4083,-1.2679,-1.1328,-1.0891,-1.0076,-0.8885,-0.8885,-0.8885,-0.8885,-0.8885,-0.8885,-0.8885,-0.8885,-0.8885,-0.8885,-0.8885,-0.8885,-0.8885,-0.8885,-0.8885,-0.8885,-0.8885,-0.8885,-0.8885,-0.8885,-0.8885,-0.8885,-0.8885,-0.8885,-0.8826,-0.8325,-0.6422,-0.4247,-0.3018,-0.1456,-0.0112,0.0,0.0,0.0,0.0,0.0,0.0,0.0,0.0,0.0,0.0,0.0,0.0,0.0,0.0,0.0,0.0,0.0,0.0,0.0,0.1344,0.291,0.4587,0.626,0.721,0.721,0.721,0.721,0.721,0.721,0.721,0.721,0.721,0.721,0.721,0.721,0.721,0.721,0.721,0.721,-2.2643,-2.1587,-2.0359,-1.9778,-1.891,-1.7967,-1.7211,-1.7138,-1.7218,-1.721,-1.7434,-1.7582,-1.7582,0.0,0.0,0.0,-1.7582,-1.7582,-1.7582,-1.7582,-1.7582,-1.7582,-1.7582,-1.7582,-1.7582,-1.7582,-1.7582,-1.7582,-1.7582,-1.7582,-1.7582,-1.7582,-1.7582,-1.7483,-1.7166,-1.6358,-1.49,-1.3431,-1.2023,-1.0726,-1.0292,-0.9699,-0.8885,-0.8885,-0.8885,-0.8885,-0.8885,-0.8885,-0.8885,-0.8885,-0.8885,-0.8885,-0.8885,-0.8885,-0.8885,-0.8885,-0.8885,-0.8885,-0.8885,-0.8885,-0.8885,-0.8885,-0.8885,-0.8885,-0.8885,-0.8885,-0.8881,-0.8826,-0.67,-0.4303,-0.3353,-0.1567,0.0,0.0,0.0,0.0,0.0,0.0,0.0,0.0,0.0,0.0,0.0,0.0,0.0,0.0,0.0,0.0,0.0,0.0,0.0,0.0,0.2183,0.3916,0.4756,0.626,0.721,0.721,0.721,0.721,0.721,0.721,0.721,0.721,0.721,0.721,0.721,0.721,0.721,0.721,0.721,0.721,-2.1695,-2.0286,-1.875,-1.8481,-1.7906,-1.7336,-1.7152,-1.7302,-1.7463,-1.7257,-1.7434,-1.7582,-1.7582,-1.7582,0.0,-1.7582,-1.7582,-1.7582,-1.7582,-1.7582,-1.7582,-1.7582,-1.7582,-1.7582,-1.7582,-1.7582,-1.7582,-1.7582,-1.7582,-1.7582,-1.7582,-1.7582,-1.7483,-1.7232,-1.6842,-1.6033,-1.4578,-1.3117,-1.1814,-1.0672,-0.9482,-0.8885,-0.8885,-0.8885,-0.8885,-0.8885,-0.8885,-0.8885,-0.8885,-0.8885,-0.8885,-0.8885,-0.8885,-0.8885,-0.8885,-0.8885,-0.8885,-0.8885,-0.8885,-0.8885,-0.8885,-0.8885,-0.8885,-0.8885,-0.8885,-0.8885,-0.8826,-0.8598,-0.6586,-0.4414,-0.4078,-0.2014,0.0,0.0,0.0,0.0,0.0,0.0,0.0,0.0,0.0,0.0,0.0,0.0,0.0,0.0,0.0,0.0,0.0,0.0,0.0,0.0,0.2183,0.358,0.3636,0.5813,0.721,0.721,0.721,0.721,0.721,0.721,0.721,0.721,0.721,0.721,0.721,0.721,0.721,0.721,0.721,0.721,-2.1872,-2.0503,-1.9139,-1.8565,-1.7632,-1.6948,-1.705,-1.7302,-1.7517,-1.746,-1.7522,-1.7582,-1.7582,-1.7582,0.0,-1.7582,-1.7582,-1.7582,-1.7582,-1.7582,-1.7582,-1.7582,-1.7582,-1.7582,-1.7582,-1.7582,-1.7582,-1.7582,-1.7582,-1.7582,-1.7582,-1.7582,-1.7483,-1.7232,-1.6092,-1.4787,-1.3372,-1.1919,-1.0621,-0.9427,-0.9047,-0.8885,-0.8885,-0.8885,-0.8885,-0.8885,-0.8885,-0.8885,-0.8885,-0.8885,-0.8885,-0.8885,-0.8885,-0.8885,-0.8885,-0.8885,-0.8885,-0.8885,-0.8885,-0.8885,-0.8885,-0.8885,-0.8885,-0.8885,-0.8885,-0.8885,-0.8881,-0.8826,-0.67,-0.447,-0.4359,-0.2181,0.0,0.0,0.0,0.0,0.0,0.0,0.0,0.0,0.0,0.0,0.0,0.0,0.0,0.0,0.0,0.0,0.0,0.0,0.0336,0.1176,0.2686,0.3971,0.481,0.6318,0.721,0.721,0.721,0.721,0.721,0.721,0.721,0.721,0.721,0.721,0.721,0.721,0.721,0.721,0.721,0.721,-2.0656,-1.9368,-1.8226,-1.7645,-1.7189,-1.6924,-1.7211,-1.7407,-1.7531,-1.7601,-1.7582,-1.7582,-1.7582,-1.7582,0.0,-1.7582,-1.7582,-1.7582,-1.7582,-1.7582,-1.7582,-1.7582,-1.7582,-1.7582,-1.7582,-1.7582,-1.7582,-1.7582,-1.7582,-1.7582,-1.7582,-1.7582,-1.7213,-1.6365,-1.5441,-1.403,-1.1964,-1.1105,-1.0076,-0.8885,-0.8885,-0.8885,-0.8885,-0.8885,-0.8885,-0.8885,-0.8885,-0.8885,-0.8885,-0.8885,-0.8885,-0.8885,-0.8885,-0.8885,-0.8885,-0.8885,-0.8885,-0.8885,-0.8885,-0.8885,-0.8885,-0.8885,-0.8885,-0.8885,-0.8885,-0.8885,-0.883,-0.8605,-0.6589,-0.4472,-0.4193,-0.207,0.0,0.0,0.0,0.0,0.0,0.0,0.0,0.0,0.0,0.0,0.0,0.0,0.0,0.0,0.0,0.0,0.0,0.0,0.0448,0.1679,0.2854,0.4083,0.5316,0.6485,0.721,0.721,0.721,0.721,0.721,0.721,0.721,0.721,0.721,0.721,0.721,0.721,0.721,0.721,0.721,0.721,-1.8796,-1.7645,-1.6629,-1.6265,-1.6627,-1.7177,-1.7501,-1.7582,-1.7582,-1.7582,-1.7582,-1.7582,-1.7582,-1.7582,-1.7582,-1.7582,-1.7582,-1.7582,-1.7582,-1.7582,-1.7582,-1.7582,-1.7582,-1.7582,-1.7582,-1.7582,-1.7582,-1.7582,-1.7582,-1.7582,-1.7582,-1.7477,-1.667,-1.506,-1.4793,-1.3383,-1.0726,-1.0562,-0.997,-0.8885,-0.8885,-0.8885,-0.8885,-0.8885,-0.8885,-0.8885,-0.8885,-0.8885,-0.8885,-0.8885,-0.8885,-0.8885,-0.8885,-0.8885,-0.8885,-0.8885,-0.8885,-0.8885,-0.8885,-0.8885,-0.8885,-0.8885,-0.8885,-0.8885,-0.8885,-0.8885,-0.8771,-0.8211,-0.6366,-0.4359,-0.3804,-0.1847,0.0,0.0,0.0,0.0,0.0,0.0,0.0,0.0,0.0,0.0,0.0,0.0,0.0,0.0,0.0,0.0,0.0,0.0,0.0504,0.1847,0.2966,0.4139,0.5427,0.6596,0.721,0.721,0.721,0.721,0.721,0.721,0.721,0.721,0.721,0.721,0.721,0.721,0.721,0.721,0.721,0.721,-1.984,-1.8565,-1.7279,-1.6407,-1.6523,-1.6911,-1.7501,-1.7582,-1.7582,-1.7582,-1.7582,-1.7582,-1.7582,-1.7582,-1.7582,-1.7582,-1.7582,-1.7582,-1.7582,-1.7582,-1.7582,-1.7582,-1.7582,-1.7582,-1.7582,-1.7582,-1.7582,-1.7582,-1.7582,-1.7582,-1.7582,-1.6776,-1.5861,-1.5013,-1.3221,-1.1755,-1.0726,-0.975,-0.9154,-0.8885,-0.8885,-0.8885,-0.8885,-0.8885,-0.8885,-0.8885,-0.8885,-0.8885,-0.8885,-0.8885,-0.8885,-0.8885,-0.8885,-0.8885,-0.8885,-0.8885,-0.8885,-0.8885,-0.8885,-0.8885,-0.8885,-0.8885,-0.8885,-0.8885,-0.8885,-0.8885,-0.8881,-0.8716,-0.67,-0.447,-0.436,-0.2182,0.0,0.0,0.0,0.0,0.0,0.0,0.0,0.0,0.0,0.0,0.0,0.0,0.0,0.0,0.0,0.0,0.0,0.0,0.084,0.2965,0.3469,0.4474,0.6652,0.7043,0.721,0.721,0.721,0.721,0.721,0.721,0.721,0.721,0.721,0.721,0.721,0.721,0.721,0.721,0.721,0.721,-1.9285,-1.801,-1.6888,-1.6525,-1.6578,-1.686,-1.7448,-1.7582,-1.7582,-1.7582,-1.7582,-1.7582,-1.7582,-1.7582,-1.7582,-1.7582,-1.7582,-1.7582,-1.7582,-1.7582,-1.7582,-1.7582,-1.7582,-1.7582,-1.7582,-1.7582,-1.7582,-1.7582,-1.7582,-1.7364,-1.6829,-1.624,-1.5102,-1.3383,-1.2136,-1.0945,-0.986,-0.921,-0.8885,-0.8885,-0.8885,-0.8885,-0.8885,-0.8885,-0.8885,-0.8885,-0.8885,-0.8885,-0.8885,-0.8885,-0.8885,-0.8885,-0.8885,-0.8885,-0.8885,-0.8885,-0.8885,-0.8885,-0.8885,-0.8885,-0.8885,-0.8885,-0.8885,-0.8885,-0.8885,-0.8885,-0.8881,-0.8768,-0.67,-0.447,-0.4303,-0.2125,0.0,0.0,0.0,0.0,0.0,0.0,0.0,0.0,0.0,0.0,0.0,0.0,0.0,0.0,0.0,0.0,0.0,0.0,0.0953,0.3357,0.358,0.4585,0.6988,0.721,0.721,0.721,0.721,0.721,0.721,0.721,0.721,0.721,0.721,0.721,0.721,0.721,0.721,0.721,0.721,0.721,-1.8588,-1.7271,-1.6266,-1.661,-1.6707,-1.686,-1.7448,-1.7582,-1.7582,-1.7582,-1.7582,-1.7582,-1.7582,-1.7582,-1.7582,-1.7582,-1.7582,-1.7582,-1.7582,-1.7582,-1.7582,-1.7582,-1.7582,-1.7582,-1.7582,-1.7582,-1.7582,-1.7582,-1.7417,-1.6882,-1.5968,-1.5535,-1.4132,-1.1596,-1.1328,-1.0457,-0.894,-0.8885,-0.8885,-0.8885,-0.8885,-0.8885,-0.8885,-0.8885,-0.8885,-0.8885,-0.8885,-0.8885,-0.8885,-0.8885,-0.8885,-0.8885,-0.8885,-0.8885,-0.8885,-0.8885,-0.8885,-0.8885,-0.8885,-0.8885,-0.8885,-0.8885,-0.8885,-0.8885,-0.8885,-0.8885,-0.8826,-0.8598,-0.6586,-0.4414,-0.4078,-0.2014,0.0,0.0,0.0,0.0,0.0,0.0,0.0,0.0,0.0,0.0,0.0,0.0,0.0,0.0,0.0,0.0,0.0,0.0,0.0953,0.3357,0.358,0.4585,0.6988,0.721,0.721,0.721,0.721,0.721,0.721,0.721,0.721,0.721,0.721,0.721,0.721,0.721,0.721,0.721,0.721,0.721,-1.9704,-1.7971,-1.6266,-1.661,-1.6707,-1.686,-1.7448,-1.7582,-1.7582,0.0,-1.7582,-1.7582,-1.7582,-1.7582,-1.7582,-1.7582,-1.7582,-1.7582,-1.7582,-1.7582,-1.7582,-1.7582,-1.7582,-1.7582,-1.7582,-1.7582,-1.7582,-1.7582,-1.667,-1.6074,-1.5914,-1.3976,-1.2467,-1.1542,-1.0515,-0.9651,-0.8885,-0.8885,-0.8885,-0.8885,-0.8885,-0.8885,-0.8885,-0.8885,-0.8885,-0.8885,-0.8885,-0.8885,-0.8885,-0.8885,-0.8885,-0.8885,-0.8885,-0.8885,-0.8885,-0.8885,-0.8885,-0.8885,-0.8885,-0.8885,-0.8885,-0.8885,-0.8885,-0.8885,-0.8885,-0.8885,-0.8826,-0.8598,-0.6586,-0.4414,-0.4078,-0.2014,0.0,0.0,0.0,0.0,0.0,0.0,0.0,0.0,0.0,0.0,0.0,0.0,0.0,0.0,0.0,0.0,0.0,0.0,0.0953,0.3357,0.358,0.4585,0.6988,0.721,0.721,0.721,0.721,0.721,0.721,0.721,0.721,0.721,0.721,0.721,0.721,0.721,0.721,0.721,0.721,0.721,-1.8419,-1.7138,-1.6266,-1.661,-1.6707,-1.686,-1.7448,-1.7582,-1.7582,-1.7582,-1.7582,-1.7582,-1.7582,-1.7582,-1.7582,-1.7582,-1.7582,-1.7582,-1.7582,-1.7582,-1.7582,-1.7582,-1.7582,-1.7582,-1.7582,-1.7041,-1.6664,-1.6664,-1.5535,-1.462,-1.3976,-1.2847,-1.1655,-1.057,-0.9923,-0.9379,-0.8885,-0.8885,-0.8885,-0.8885,-0.8885,-0.8885,-0.8885,-0.8885,-0.8885,-0.8885,-0.8885,-0.8885,-0.8885,-0.8885,-0.8885,-0.8885,-0.8885,-0.8885,-0.8885,-0.8885,-0.8885,-0.8885,-0.8885,-0.8885,-0.8885,-0.8885,-0.8885,-0.8885,-0.8885,-0.8885,-0.8716,-0.7931,-0.6144,-0.4303,-0.3465,-0.1623,0.0,0.0,0.0,0.0,0.0,0.0,0.0,0.0,0.0,0.0,0.0,0.0,0.0,0.0,0.0,0.0,0.0,0.0,0.0953,0.3357,0.358,0.4585,0.6988,0.721,0.721,0.721,0.721,0.721,0.721,0.721,0.721,0.721,0.721,0.721,0.721,0.721,0.721,0.721,0.721,0.7268,-1.7178,-1.6447,-1.6361,-1.661,-1.6707,-1.686,-1.7448,-1.7582,-1.7582,0.0,-1.7582,-1.7582,-1.7582,-1.7582,-1.7582,-1.7582,-1.7582,-1.7582,-1.7582,-1.7364,-1.7259,-1.7582,-1.7312,-1.7259,-1.7582,-1.6558,-1.5914,-1.5914,-1.4513,-1.3275,-1.2472,-1.1928,-1.1118,-0.9816,-0.9596,-0.9323,-0.8885,-0.8885,-0.8885,-0.8885,-0.8885,-0.8885,-0.8885,-0.8885,-0.8885,-0.8885,-0.8885,-0.8885,-0.8885,-0.8885,-0.8885,-0.8885,-0.8885,-0.8885,-0.8885,-0.8885,-0.8885,-0.8885,-0.8885,-0.8885,-0.8885,-0.8885,-0.8885,-0.8885,-0.8885,-0.8885,-0.866,-0.7374,-0.581,-0.4191,-0.2908,-0.1288,0.0,0.0,0.0,0.0,0.0,0.0,0.0,0.0,0.0,0.0,0.0,0.0,0.0,0.0,0.0,0.0,0.0,0.0,0.0953,0.3357,0.358,0.4585,0.6988,0.721,0.721,0.721,0.721,0.721,0.721,0.721,0.721,0.721,0.721,0.721,0.721,0.721,0.721,0.721,0.721,0.7324,-1.6998,-1.6588,-1.6593,-1.6659,-1.6707,-1.686,-1.7448,0.0,-1.7582,-1.7582,-1.7582,-1.7582,-1.7582,-1.7582,-1.7582,-1.7582,-1.7582,-1.7582,-1.7582,-1.6664,-1.6399,-1.7477,-1.6664,-1.6399,-1.7477,-1.6558,-1.5914,-1.5914,-1.376,-1.2467,-1.2417,-1.1337,-1.0472,-0.9816,-0.9761,-0.9485,-0.8885,-0.8885,-0.8885,-0.8885,-0.8885,-0.8885,-0.8885,-0.8885,-0.8885,-0.8885,-0.8885,-0.8885,-0.8885,-0.8885,-0.8885,-0.8885,-0.8885,-0.8885,-0.8885,-0.8885,-0.8885,-0.8885,-0.8885,-0.8885,-0.8885,-0.8885,-0.8885,-0.8885,-0.8885,-0.8885,-0.8602,-0.7149,-0.5641,-0.4136,-0.263,-0.1121,0.0,0.0,0.0,0.0,0.0,0.0,0.0,0.0,0.0,0.0,0.0,0.0,0.0,0.0,0.0,0.0,0.0,0.0,0.0953,0.3357,0.358,0.4585,0.6988,0.721,0.721,0.721,0.721,0.721,0.721,0.721,0.721,0.721,0.721,0.721,0.721,0.721,0.721,0.721,0.721,0.721,-1.6998,-1.6588,-1.6592,-1.6473,-1.6567,-1.6814,-1.7266,-1.7501,-1.7582,-1.7582,-1.7582,-1.7582,-1.7582,-1.7582,-1.7582,-1.7582,-1.7582,-1.7582,-1.7582,-1.7259,-1.6882,-1.6558,-1.6776,-1.6558,-1.5476,-1.4995,-1.446,-1.3706,-1.22,-1.1286,-1.1286,-1.0747,-1.0257,-0.9816,-0.9651,-0.9323,-0.8885,-0.8885,-0.8885,-0.8885,-0.8885,-0.8885,-0.8885,-0.8885,-0.8885,-0.8885,-0.8885,-0.8885,-0.8885,-0.8885,-0.8885,-0.8885,-0.8885,-0.8885,-0.8885,-0.8885,-0.8885,-0.8885,-0.8885,-0.8885,-0.8885,-0.8885,-0.8885,-0.8885,-0.8885,-0.8885,-0.8436,-0.6195,-0.5025,-0.3968,-0.1624,-0.0504,0.0,0.0,0.0,0.0,0.0,0.0,0.0,0.0,0.0,0.0,0.0,0.0,0.0,0.0,0.0,0.0,0.0,0.0672,0.1791,0.3413,0.4308,0.5423,0.7043,0.721,0.721,0.721,0.721,0.721,0.721,0.721,0.721,0.721,0.721,0.721,0.721,0.721,0.721,0.721,0.721,0.7376,-1.6911,0.0,-1.6669,-1.6486,-1.664,-1.6934,-1.728,-1.7442,-1.7582,-1.7582,-1.7582,-1.7582,-1.7582,-1.7582,-1.7582,-1.7582,-1.7582,-1.7582,-1.7582,-1.7259,-1.6776,-1.5968,-1.6234,-1.5802,-1.4245,-1.3755,-1.3221,-1.2467,-1.1341,0.0,-1.0692,-1.0472,-1.0091,-0.9651,-0.9379,-0.9103,-0.8885,-0.8885,-0.8885,-0.8885,-0.8885,-0.8885,-0.8885,-0.8885,-0.8885,-0.8885,-0.8885,-0.8885,-0.8885,-0.8885,-0.8885,-0.8885,-0.8885,-0.8885,-0.8885,-0.8885,-0.8885,-0.8885,-0.8885,-0.8885,-0.8885,-0.8885,-0.8885,-0.8885,-0.8885,-0.8885,-0.8377,-0.5804,-0.4803,-0.3913,-0.1233,-0.028,0.0,0.0,0.0,0.0,0.0,0.0,0.0,0.0,0.0,0.0,0.0,0.0,0.0,0.0,0.0,0.0,0.0,0.1064,0.2239,0.3469,0.4698,0.5873,0.7099,0.721,0.721,0.721,0.721,0.721,0.721,0.721,0.721,0.721,0.721,0.721,0.721,0.721,0.721,0.721,0.7268,0.7657,0.0,0.0,0.0,0.0,0.0,0.0,-1.7508,0.0,-1.7582,-1.7582,-1.7582,-1.7582,-1.7582,-1.7582,-1.7582,-1.7582,-1.7582,-1.7582,-1.7582,-1.6664,-1.5914,-1.5914,-1.4888,-1.4132,-1.4078,-1.3058,-1.2413,-1.2358,-1.1341,-1.0692,-1.0692,-1.0421,-1.0036,-0.9434,-0.9051,-0.8885,-0.8885,-0.8885,-0.8885,-0.8885,-0.8885,-0.8885,-0.8885,-0.8885,-0.8885,-0.8885,-0.8885,-0.8885,-0.8885,-0.8885,-0.8885,-0.8885,-0.8885,-0.8885,-0.8885,-0.8885,-0.8885,-0.8885,-0.8885,-0.8885,-0.8885,-0.8885,-0.8885,-0.8885,-0.8885,-0.8885,-0.8432,-0.6028,-0.4972,-0.3914,-0.1513,-0.0449,0.0,0.0,0.0,0.0,0.0,0.0,0.0,0.0,0.0,0.0,0.0,0.0,0.0,0.0,0.0,0.0,0.0,0.1064,0.2295,0.3469,0.4698,0.5929,0.7099,0.721,0.721,0.721,0.721,0.721,0.721,0.721,0.721,0.721,0.721,0.721,0.721,0.721,0.721,0.721,0.7493,0.7937,-1.7652,0.0,0.0,0.0,0.0,0.0,0.0,0.0,-1.7582,-1.7582,-1.7582,-1.7582,-1.7582,-1.7582,-1.7582,-1.7582,-1.7582,-1.7582,-1.7582,-1.7312,-1.6829,-1.6021,-1.5589,-1.4728,-1.3058,-1.2575,-1.2037,0.0,-1.0852,-1.0692,-1.0692,-1.0202,-0.9761,-0.9434,-0.9051,-0.8885,-0.8885,-0.8885,-0.8885,-0.8885,-0.8885,-0.8885,-0.8885,-0.8885,-0.8885,-0.8885,-0.8885,-0.8885,-0.8885,-0.8885,-0.8885,-0.8885,-0.8885,-0.8885,-0.8885,-0.8885,-0.8885,-0.8885,-0.8885,-0.8885,-0.8885,-0.8885,-0.8885,-0.8885,-0.8885,-0.8885,-0.8377,-0.5748,-0.4803,-0.3857,-0.1009,-0.0112,0.0,0.0,0.0,0.0,0.0,0.0,0.0,0.0,0.0,0.0,0.0,0.0,0.0,0.0,0.0,0.0,0.0,0.1791,0.3245,0.358,0.5479,0.6821,0.7154,0.721,0.721,0.721,0.721,0.721,0.721,0.721,0.721,0.721,0.721,0.721,0.721,0.721,0.721,0.721,0.7657,0.81,0.0,0.0,0.0,0.0,0.0,0.0,-1.738,-1.7514,-1.7582,-1.7582,-1.7582,-1.7582,-1.7582,-1.7582,-1.7582,-1.7582,-1.7582,-1.7582,-1.7582,-1.7582,-1.7206,-1.6021,-1.5482,-1.4406,-1.2575,-1.1987,-1.1391,-1.0747,-1.0692,-1.0582,-1.0363,-0.9981,-0.9596,-0.9213,-0.8992,-0.8885,-0.8885,-0.8885,-0.8885,-0.8885,-0.8885,-0.8885,-0.8885,-0.8885,-0.8885,-0.8885,-0.8885,-0.8885,-0.8885,-0.8885,-0.8885,-0.8885,-0.8885,-0.8885,-0.8885,-0.8885,-0.8885,-0.8885,-0.8885,-0.8885,-0.8885,-0.8885,-0.8885,-0.8885,-0.8885,-0.8885,-0.8377,-0.5804,-0.4078,-0.2518,-0.0504,0.0,0.0,0.0,0.0,0.0,0.0,0.0,0.0,0.0,0.0,0.0,0.0,0.0,0.0,0.0,0.0,0.0,0.0,0.2127,0.358,0.358,0.5757,0.721,0.721,0.721,0.721,0.721,0.721,0.721,0.721,0.721,0.721,0.721,0.721,0.721,0.721,0.721,0.7321,0.7543,0.7878,0.8266,0.0,0.0,0.0,0.0,0.0,0.0,-1.7582,-1.7582,-1.7582,-1.7582,-1.7582,-1.7582,-1.7582,-1.7582,-1.7582,-1.7582,-1.7582,-1.7582,-1.7582,-1.7582,-1.7206,-1.6234,-1.4888,-1.3706,-1.2684,-1.1446,-1.0692,-1.0692,-1.0692,-1.0417,-0.9816,-0.9816,-0.9541,-0.894,-0.8885,-0.8885,-0.8885,-0.8885,-0.8885,-0.8885,-0.8885,-0.8885,-0.8885,-0.8885,-0.8885,-0.8885,-0.8885,-0.8885,-0.8885,-0.8885,-0.8885,-0.8885,-0.8885,-0.8885,-0.8885,-0.8885,-0.8885,-0.8885,-0.8885,-0.8885,-0.8885,-0.8885,-0.8885,-0.8885,-0.8885,-0.8826,-0.8211,-0.5808,-0.3075,-0.0785,-0.0168,0.0,0.0,0.0,0.0,0.0,0.0,0.0,0.0,0.0,0.0,0.0,0.0,0.0,0.0,0.0,0.0,0.0,0.0,0.2127,0.358,0.358,0.5757,0.721,0.721,0.721,0.721,0.721,0.721,0.721,0.721,0.721,0.721,0.721,0.721,0.721,0.721,0.721,0.749,0.7989,0.7989,0.8325,0.0,0.0,0.0,0.0,0.0,0.0,-1.7582,-1.7582,-1.7582,-1.7582,-1.7582,-1.7582,-1.7582,-1.7582,-1.7582,-1.7582,-1.7582,-1.7582,-1.7582,-1.7582,-1.7529,-1.7312,-1.537,-1.403,-1.3809,-1.1932,-1.0692,-1.0692,-1.0692,-1.0417,-0.9816,-0.9816,-0.9541,-0.894,-0.8885,-0.8885,-0.8885,-0.8885,-0.8885,-0.8885,-0.8885,-0.8885,-0.8885,-0.8885,-0.8885,-0.8885,-0.8885,-0.8885,-0.8885,-0.8885,-0.8885,-0.8885,-0.8885,-0.8885,-0.8885,-0.8885,-0.8885,-0.8885,-0.8885,-0.8885,-0.8885,-0.8885,-0.8885,-0.8885,-0.8885,-0.8214,-0.6927,-0.4303,-0.2295,-0.0785,-0.0449,-0.0168,0.0,0.0,0.0,0.0,0.0,0.0,0.0,0.0,0.0,0.0,0.0,0.0,0.0,0.0,0.0,0.0,0.0,0.2127,0.358,0.358,0.5757,0.721,0.721,0.721,0.721,0.721,0.721,0.721,0.721,0.721,0.721,0.721,0.721,0.721,0.721,0.721,0.749,0.7989,0.7989,0.8325,0.0,0.0,0.0,-1.8422,0.0,0.0,0.0,-1.7582,-1.7582,-1.7582,-1.7582,-1.7582,-1.7582,-1.7582,-1.7582,-1.7582,-1.7582,-1.7582,-1.7582,-1.7582,-1.7582,-1.7582,-1.553,-1.4078,-1.4078,-1.2041,-1.0692,-1.0692,-1.0692,-1.0417,-0.9816,-0.9816,-0.9541,-0.894,-0.8885,-0.8885,-0.8885,-0.8885,-0.8885,-0.8885,-0.8885,-0.8885,-0.8885,-0.8885,-0.8885,-0.8885,-0.8885,-0.8885,-0.8885,-0.8885,-0.8885,-0.8885,-0.8885,-0.8885,-0.8885,-0.8885,-0.8885,-0.8885,-0.8885,-0.8885,-0.8885,-0.8885,-0.8885,-0.8771,-0.8211,-0.676,-0.5029,-0.3522,-0.2016,-0.0841,-0.0505,-0.0224,0.0,0.0,0.0,0.0,0.0,0.0,0.0,0.0,0.0,0.0,0.0,0.0,0.0,0.0,0.0,0.0224,0.084,0.2463,0.3804,0.4419,0.6093,0.721,0.721,0.721,0.721,0.721,0.721,0.721,0.721,0.721,0.721,0.721,0.721,0.721,0.721,0.7324,0.7601,0.7989,0.7989,0.8325,0.0,0.0,0.0,0.0,0.0,-1.7911,0.0,0.0,0.0,-1.7582,-1.7582,0.0,0.0,0.0,0.0,0.0,0.0,0.0,0.0,-1.7462,0.0,-1.7575,-1.5749,-1.4454,-1.4454,-1.2575,-1.1177,-1.0747,-1.0907,-1.0688,-0.9871,-0.9816,-0.9541,-0.894,-0.8885,-0.8885,-0.8885,-0.8885,-0.8885,-0.8885,-0.8885,-0.8885,-0.8885,-0.8885,-0.8885,-0.8885,-0.8885,-0.8885,-0.8885,-0.8885,-0.8885,-0.8885,-0.8885,-0.8885,-0.8885,-0.8885,-0.8885,-0.8885,-0.8885,-0.8885,-0.8885,-0.8885,-0.8716,-0.8269,-0.6871,-0.5087,-0.3469,-0.2909,-0.1848,-0.0841,-0.0505,-0.0224,0.0,0.0,0.0,0.0,0.0,0.0,0.0,0.0,0.0,0.0,0.0,0.0,0.0,0.0,0.0,0.0336,0.1344,0.2686,0.3971,0.4923,0.6318,0.721,0.721,0.721,0.721,0.721,0.721,0.721,0.721,0.721,0.721,0.721,0.721,0.721,0.721,0.7493,0.7718,0.7989,0.8045,0.838,0.0,0.0,0.0,0.0,-1.822,0.0,0.0,0.0,-1.7582,-1.7582,0.0,0.0,0.0,0.0,0.0,0.0,0.0,0.0,-1.6881,-1.7085,-1.7347,-1.7555,-1.6452,-1.5701,-1.5701,-1.4513,-1.2901,-1.0857,-1.166,-1.1496,-0.9871,-0.9816,-0.9541,-0.894,-0.8885,-0.8885,-0.8885,-0.8885,-0.8885,-0.8885,-0.8885,-0.8885,-0.8885,-0.8885,-0.8885,-0.8885,-0.8885,-0.8885,-0.8885,-0.8885,-0.8885,-0.8885,-0.8885,-0.8885,-0.8885,-0.8885,-0.8885,-0.8885,-0.8885,-0.8885,-0.8885,-0.8885,-0.8156,-0.6871,-0.4697,-0.3804,-0.3301,-0.1905,-0.1234,-0.0841,-0.0505,-0.0224,0.0,0.0,0.0,0.0,0.0,0.0,0.0,0.0,0.0,0.0,0.0,0.0,0.0,0.0,0.0,0.0056,0.0168,0.2183,0.3636,0.3804,0.5813,0.721,0.721,0.721,0.721,0.721,0.721,0.721,0.721,0.721,0.721,0.721,0.721,0.721,0.721,0.7493,0.7718,0.7989,0.8318,0.8598,0.0,0.0,0.0,0.0,0.0,0.0,-1.7635,0.0,-1.7582,0.0,0.0,0.0,0.0,0.0,0.0,0.0,-1.7422,0.0,0.0,0.0,-1.7246,0.0,0.0,0.0,-1.3763,-1.3896,-1.3166,-1.0852,-1.1769,-1.1655,-0.9868,-0.9816,-0.9541,-0.894,-0.8885,-0.8885,-0.8885,-0.8885,-0.8885,-0.8885,-0.8885,-0.8885,-0.8885,-0.8885,-0.8885,-0.8885,-0.8885,-0.8885,-0.8885,-0.8885,-0.8885,-0.8885,-0.8885,-0.8885,-0.8885,-0.8885,-0.8885,-0.8885,-0.8885,-0.8885,-0.8771,-0.81,-0.7038,-0.581,-0.4137,-0.3135,-0.2353,-0.1514,-0.1121,-0.0841,-0.0505,-0.0224,0.0,0.0,0.0,0.0,0.0,0.0,0.0,0.0,0.0,0.0,0.0,0.0,0.0,0.0,0.0,0.028,0.0953,0.2519,0.386,0.4587,0.6204,0.721,0.721,0.721,0.721,0.721,0.721,0.721,0.721,0.721,0.721,0.721,0.721,0.7268,0.7438,0.7715,0.7989,0.8318,0.8429,0.8654,-1.8959,0.0,0.0,0.0,0.0,0.0,0.0,0.0,0.0,0.0,0.0,0.0,0.0,0.0,0.0,0.0,0.0,0.0,0.0,0.0,0.0,0.0,0.0,0.0,0.0,-1.3794,-1.3491,-1.1205,-1.1855,-1.1607,-0.9868,-0.9816,-0.9541,-0.894,-0.8885,-0.8885,-0.8885,-0.8885,-0.8885,-0.8885,-0.8885,-0.8885,-0.8885,-0.8885,-0.8885,-0.8885,-0.8885,-0.8885,-0.8885,-0.8885,-0.8885,-0.8885,-0.8885,-0.8885,-0.8885,-0.8885,-0.8885,-0.8885,-0.8885,-0.866,-0.8211,-0.7038,-0.5866,-0.4693,-0.3469,-0.2521,-0.1739,-0.129,-0.1065,-0.0785,-0.0393,-0.0168,0.0,0.0,0.0,0.0,0.0,0.0,0.0,0.0,0.0,0.0,0.0,0.0,0.0,0.0,0.0,0.0448,0.1623,0.2854,0.4083,0.526,0.6485,0.721,0.721,0.721,0.721,0.721,0.721,0.721,0.721,0.721,0.721,0.721,0.721,0.7324,0.7493,0.7823,0.81,0.8374,0.8543,0.8712,0.0,0.0,0.0,-1.8069,0.0,0.0,0.0,0.0,-1.7582,0.0,0.0,0.0,0.0,0.0,0.0,0.0,0.0,0.0,0.0,0.0,0.0,0.0,0.0,0.0,0.0,-1.505,-1.4282,-1.2106,-1.2124,-1.1523,-0.986,-0.9816,-0.9541,-0.894,-0.8885,-0.8885,-0.8885,-0.8885,-0.8885,-0.8885,-0.8885,-0.8885,-0.8885,-0.8885,-0.8885,-0.8885,-0.8885,-0.8885,-0.8885,-0.8885,-0.8885,-0.8885,-0.8885,-0.8885,-0.8885,-0.8885,-0.8885,-0.8885,-0.8885,-0.8156,-0.6982,-0.5808,-0.4639,-0.3413,-0.2242,-0.1851,-0.1683,-0.1065,-0.0897,-0.0785,-0.0168,0.0,0.0,0.0,0.0,0.0,0.0,0.0,0.0,0.0,0.0,0.0,0.0,0.0,0.0,0.0,0.0,0.0448,0.1623,0.2854,0.4083,0.526,0.6485,0.721,0.721,0.721,0.721,0.721,0.721,0.721,0.721,0.721,0.721,0.721,0.721,0.721,0.721,0.7768,0.7989,0.8045,0.8605,0.8881,0.0,0.0,-1.8115,-1.8016,0.0,0.0,0.0,0.0,0.0,0.0,0.0,0.0,0.0,0.0,0.0,0.0,0.0,0.0,0.0,0.0,0.0,0.0,0.0,0.0,0.0,0.0,-1.4435,-1.2158,-1.2024,-1.1376,-0.9868,-0.9651,-0.9323,-0.894,-0.8885,-0.8885,-0.8885,-0.8885,-0.8885,-0.8885,-0.8885,-0.8885,-0.8885,-0.8885,-0.8885,-0.8885,-0.8885,-0.8885,-0.8885,-0.8885,-0.8885,-0.8885,-0.8885,-0.8885,-0.8885,-0.8885,-0.8885,-0.8771,-0.7989,-0.7432,-0.6763,-0.4862,-0.3914,-0.3358,-0.2186,-0.1795,-0.1683,-0.1065,-0.0897,-0.0785,-0.0168,0.0,0.0,0.0,0.0,0.0,0.0,0.0,0.0,0.0,0.0,0.0,0.0,0.0,0.0,0.0,0.0,0.0448,0.1623,0.2854,0.4083,0.526,0.6485,0.721,0.721,0.721,0.721,0.721,0.721,0.721,0.721,0.721,0.721,0.721,0.721,0.7268,0.7493,0.7823,0.81,0.8318,0.8712,0.8885,-1.8108,-1.801,0.0,-1.7859,-1.7747,0.0,-1.7582,0.0,0.0,0.0,0.0,0.0,0.0,0.0,0.0,0.0,0.0,0.0,0.0,0.0,0.0,0.0,0.0,0.0,0.0,0.0,-1.3737,-1.2045,-1.1434,-1.0762,-0.9864,-0.9541,-0.9268,-0.8885,-0.8885,-0.8885,-0.8885,-0.8885,-0.8885,-0.8885,-0.8885,-0.8885,-0.8885,-0.8885,-0.8885,-0.8885,-0.8885,-0.8885,-0.8885,-0.8885,-0.8885,-0.8885,-0.8885,-0.8885,-0.8885,-0.8885,-0.8605,-0.8156,-0.7376,-0.6538,-0.5588,-0.4083,-0.3301,-0.28,-0.2018,-0.1795,-0.1683,-0.1065,-0.0897,-0.0785,-0.0168,0.0,0.0,0.0,0.0,0.0,0.0,0.0,0.0,0.0,0.0,0.0,0.0,0.0,0.0,0.0,0.0,0.0616,0.2239,0.3134,0.425,0.5871,0.6763,0.721,0.721,0.721,0.721,0.721,0.721,0.721,0.721,0.721,0.7232,0.722,0.722,0.7332,0.7502,0.7894,0.8146,0.8318,0.8712,0.8885]},{"header":{"parameterUnit":"m.s-1","parameterCategory":1,"la1":30.6,"la2":29.2853,"lo1":-89.7004,"lo2":-87.6739,"dy":0.0162,"dx":0.0183,"nx":112,"ny":82,"refTime":"2023-03-17T00:00:00:Z","depth":0,"parameterNumber":3,"parameterNumberName":"V-component_of_WINDS"},"data":[0.0,0.0,0.0,0.0,0.0,0.0,0.0,0.0,0.0,0.0,0.0,0.0,0.0,0.0,0.0,0.0,0.0,0.0,0.0,0.0,0.0,0.0,0.0,0.0,0.0,0.0,0.0,0.0,0.0,0.0,0.0,0.0,0.0,0.0,0.0,0.0,0.0,0.0,0.0,0.0,0.0,0.0,0.0,0.0,0.0,0.0,0.0,0.0,0.0,0.0,0.0,0.0,0.0,0.0,0.0,0.0,0.0,0.0,0.0,0.0,0.0,0.0,0.0,0.0,0.0,0.0,0.0,0.0,0.0,0.0,0.0,0.0,0.0,0.0,0.0,0.0,0.0,0.0,0.0,0.0,0.0,0.0,0.0,0.0,0.0,0.0,0.0,0.0,0.0,0.0,3.471,3.487,3.4908,3.4908,3.4908,3.4908,3.4908,3.4908,0.0,0.0,0.0,0.0,0.0,0.0,0.0,0.0,0.0,0.0,0.0,0.0,0.0,0.0,0.0,0.0,0.0,0.0,0.0,0.0,0.0,0.0,0.0,0.0,0.0,0.0,0.0,0.0,0.0,0.0,0.0,0.0,0.0,0.0,0.0,0.0,0.0,0.0,0.0,0.0,0.0,0.0,0.0,0.0,0.0,0.0,0.0,0.0,0.0,0.0,0.0,0.0,0.0,0.0,0.0,0.0,0.0,0.0,0.0,0.0,0.0,0.0,0.0,0.0,0.0,0.0,0.0,0.0,0.0,0.0,0.0,0.0,0.0,0.0,0.0,0.0,0.0,0.0,0.0,0.0,0.0,0.0,0.0,0.0,0.0,0.0,0.0,0.0,0.0,0.0,0.0,0.0,0.0,0.0,0.0,0.0,0.0,0.0,0.0,0.0,0.0,0.0,0.0,0.0,3.4879,3.4908,3.4908,3.4908,3.4908,3.4908,3.4908,3.4908,0.0,0.0,0.0,0.0,0.0,0.0,0.0,0.0,0.0,0.0,0.0,0.0,0.0,0.0,0.0,0.0,0.0,0.0,0.0,0.0,0.0,0.0,0.0,0.0,0.0,0.0,0.0,0.0,0.0,0.0,0.0,0.0,0.0,0.0,0.0,0.0,0.0,0.0,0.0,0.0,0.0,0.0,0.0,0.0,0.0,0.0,0.0,0.0,0.0,0.0,0.0,0.0,0.0,0.0,0.0,0.0,0.0,0.0,0.0,0.0,0.0,0.0,0.0,0.0,0.0,0.0,0.0,0.0,0.0,0.0,0.0,0.0,0.0,0.0,0.0,0.0,0.0,0.0,0.0,0.0,0.0,0.0,0.0,0.0,0.0,0.0,0.0,0.0,0.0,0.0,0.0,0.0,0.0,0.0,0.0,0.0,0.0,0.0,0.0,0.0,0.0,0.0,0.0,3.4821,3.4908,3.4908,3.4908,3.4908,3.4908,3.4908,3.4908,3.4908,3.4908,0.0,0.0,0.0,0.0,0.0,0.0,0.0,0.0,0.0,0.0,0.0,0.0,0.0,0.0,0.0,0.0,0.0,0.0,0.0,0.0,0.0,0.0,0.0,0.0,0.0,0.0,0.0,0.0,0.0,0.0,0.0,0.0,0.0,0.0,0.0,0.0,0.0,0.0,0.0,0.0,0.0,0.0,0.0,0.0,0.0,0.0,0.0,0.0,0.0,0.0,0.0,0.0,0.0,0.0,0.0,0.0,0.0,0.0,0.0,0.0,0.0,0.0,0.0,0.0,0.0,0.0,0.0,0.0,0.0,0.0,0.0,0.0,0.0,0.0,0.0,0.0,0.0,0.0,0.0,0.0,0.0,0.0,0.0,0.0,0.0,0.0,0.0,0.0,0.0,0.0,0.0,0.0,0.0,0.0,0.0,0.0,0.0,0.0,0.0,0.0,0.0,0.0,3.5283,3.5495,3.5495,3.5495,3.5495,3.5495,3.5495,3.5495,3.5495,3.5495,0.0,0.0,0.0,0.0,0.0,0.0,0.0,0.0,0.0,0.0,0.0,0.0,0.0,0.0,0.0,0.0,0.0,0.0,0.0,0.0,0.0,0.0,0.0,0.0,0.0,0.0,0.0,0.0,0.0,0.0,0.0,0.0,0.0,0.0,0.0,0.0,0.0,0.0,0.0,0.0,0.0,0.0,0.0,0.0,0.0,0.0,0.0,0.0,0.0,0.0,0.0,0.0,0.0,0.0,0.0,0.0,0.0,0.0,0.0,0.0,0.0,0.0,0.0,0.0,0.0,0.0,0.0,0.0,0.0,0.0,0.0,0.0,0.0,0.0,0.0,0.0,0.0,0.0,0.0,0.0,0.0,0.0,0.0,0.0,0.0,0.0,0.0,0.0,0.0,0.0,0.0,0.0,0.0,0.0,0.0,0.0,0.0,0.0,0.0,0.0,0.0,0.0,3.6746,3.723,3.723,3.723,3.723,3.723,3.723,3.723,3.723,3.723,0.0,0.0,0.0,0.0,0.0,0.0,0.0,0.0,0.0,0.0,0.0,0.0,0.0,0.0,0.0,0.0,0.0,0.0,0.0,0.0,0.0,0.0,0.0,0.0,0.0,0.0,0.0,0.0,0.0,0.0,0.0,0.0,0.0,0.0,0.0,0.0,0.0,0.0,0.0,0.0,0.0,0.0,0.0,0.0,0.0,0.0,0.0,0.0,0.0,0.0,0.0,0.0,0.0,0.0,0.0,0.0,0.0,0.0,0.0,0.0,0.0,0.0,0.0,0.0,0.0,0.0,0.0,0.0,0.0,0.0,0.0,0.0,0.0,0.0,0.0,0.0,0.0,0.0,0.0,0.0,0.0,0.0,0.0,0.0,0.0,0.0,0.0,0.0,0.0,0.0,0.0,0.0,0.0,0.0,0.0,0.0,0.0,0.0,0.0,0.0,0.0,0.0,3.7211,3.7401,0.0,3.7401,3.7401,3.7401,3.7401,3.7401,3.7401,0.0,0.0,0.0,0.0,0.0,0.0,0.0,0.0,0.0,0.0,0.0,0.0,0.0,0.0,0.0,0.0,0.0,0.0,0.0,0.0,0.0,0.0,0.0,0.0,0.0,0.0,0.0,0.0,0.0,0.0,0.0,0.0,0.0,0.0,0.0,0.0,0.0,0.0,0.0,0.0,0.0,0.0,0.0,0.0,0.0,0.0,0.0,0.0,0.0,0.0,0.0,0.0,0.0,0.0,0.0,0.0,0.0,0.0,0.0,0.0,0.0,0.0,0.0,0.0,0.0,0.0,0.0,0.0,0.0,0.0,0.0,0.0,0.0,0.0,0.0,0.0,0.0,0.0,0.0,0.0,0.0,0.0,0.0,0.0,0.0,0.0,0.0,0.0,0.0,0.0,0.0,0.0,0.0,0.0,0.0,0.0,0.0,0.0,0.0,0.0,0.0,0.0,3.7818,3.8035,3.8186,0.0,3.8186,3.8186,3.8186,3.8186,3.8186,3.8186,0.0,0.0,0.0,0.0,0.0,0.0,0.0,0.0,0.0,0.0,0.0,0.0,0.0,0.0,0.0,0.0,0.0,0.0,0.0,0.0,0.0,0.0,0.0,0.0,0.0,0.0,0.0,0.0,0.0,0.0,0.0,0.0,0.0,0.0,0.0,0.0,0.0,0.0,0.0,0.0,0.0,0.0,0.0,0.0,0.0,0.0,0.0,0.0,0.0,0.0,0.0,0.0,0.0,0.0,0.0,0.0,0.0,0.0,0.0,0.0,0.0,0.0,0.0,0.0,0.0,0.0,0.0,0.0,0.0,0.0,0.0,0.0,0.0,0.0,0.0,0.0,0.0,0.0,0.0,0.0,0.0,0.0,0.0,0.0,0.0,0.0,0.0,0.0,0.0,0.0,0.0,0.0,0.0,0.0,0.0,0.0,0.0,0.0,0.0,0.0,0.0,0.0,3.8709,3.9418,3.99,3.99,3.99,3.99,3.99,3.99,3.99,0.0,0.0,0.0,0.0,0.0,0.0,0.0,0.0,0.0,0.0,0.0,0.0,0.0,0.0,0.0,0.0,0.0,0.0,0.0,0.0,0.0,0.0,0.0,0.0,0.0,0.0,0.0,0.0,0.0,0.0,0.0,0.0,0.0,0.0,0.0,0.0,0.0,0.0,0.0,0.0,0.0,0.0,0.0,0.0,0.0,0.0,0.0,0.0,0.0,0.0,0.0,0.0,0.0,0.0,0.0,0.0,0.0,0.0,0.0,0.0,0.0,0.0,0.0,0.0,0.0,0.0,0.0,0.0,0.0,0.0,0.0,0.0,0.0,0.0,0.0,0.0,0.0,0.0,0.0,0.0,0.0,0.0,0.0,0.0,0.0,0.0,0.0,0.0,0.0,0.0,0.0,0.0,0.0,0.0,0.0,0.0,0.0,0.0,0.0,0.0,0.0,0.0,0.0,3.9551,3.9748,3.99,3.99,3.99,3.99,3.99,3.99,3.99,3.99,0.0,0.0,0.0,0.0,0.0,0.0,0.0,0.0,0.0,0.0,0.0,0.0,0.0,0.0,0.0,0.0,0.0,0.0,0.0,0.0,0.0,0.0,0.0,0.0,0.0,0.0,0.0,0.0,0.0,0.0,0.0,0.0,0.0,0.0,0.0,0.0,0.0,0.0,0.0,0.0,0.0,0.0,0.0,0.0,0.0,0.0,0.0,0.0,0.0,0.0,0.0,0.0,0.0,0.0,0.0,0.0,0.0,0.0,0.0,0.0,0.0,0.0,0.0,0.0,0.0,0.0,0.0,0.0,0.0,0.0,0.0,0.0,0.0,0.0,0.0,0.0,0.0,0.0,0.0,0.0,0.0,0.0,0.0,0.0,0.0,0.0,0.0,0.0,0.0,0.0,0.0,0.0,0.0,0.0,0.0,0.0,0.0,0.0,0.0,0.0,0.0,0.0,3.99,3.99,3.99,3.99,3.99,3.99,3.99,3.99,3.99,3.99,0.0,0.0,0.0,0.0,0.0,0.0,0.0,0.0,0.0,0.0,0.0,0.0,0.0,0.0,0.0,0.0,0.0,0.0,0.0,0.0,0.0,0.0,0.0,0.0,0.0,0.0,0.0,0.0,0.0,0.0,0.0,0.0,0.0,0.0,0.0,0.0,0.0,0.0,0.0,0.0,0.0,0.0,0.0,0.0,0.0,0.0,0.0,0.0,0.0,0.0,0.0,0.0,0.0,0.0,0.0,0.0,0.0,0.0,0.0,0.0,0.0,0.0,0.0,0.0,0.0,0.0,0.0,0.0,0.0,0.0,0.0,0.0,0.0,0.0,0.0,0.0,0.0,0.0,0.0,0.0,0.0,0.0,0.0,0.0,0.0,0.0,0.0,0.0,0.0,0.0,0.0,0.0,0.0,0.0,0.0,0.0,0.0,0.0,0.0,0.0,0.0,0.0,3.99,3.99,3.99,3.99,3.99,3.99,3.99,3.99,3.99,3.99,0.0,0.0,0.0,0.0,0.0,0.0,0.0,0.0,0.0,0.0,0.0,0.0,0.0,0.0,0.0,0.0,0.0,0.0,0.0,0.0,0.0,0.0,0.0,0.0,0.0,0.0,0.0,0.0,0.0,0.0,0.0,0.0,0.0,0.0,0.0,0.0,0.0,0.0,0.0,0.0,0.0,0.0,0.0,0.0,0.0,0.0,0.0,0.0,0.0,0.0,0.0,0.0,0.0,0.0,0.0,0.0,0.0,0.0,0.0,0.0,3.6201,0.0,0.0,0.0,0.0,0.0,0.0,0.0,0.0,0.0,0.0,0.0,0.0,0.0,0.0,0.0,0.0,0.0,0.0,0.0,0.0,0.0,0.0,0.0,0.0,0.0,0.0,0.0,0.0,0.0,0.0,0.0,0.0,0.0,0.0,0.0,0.0,0.0,0.0,0.0,0.0,0.0,3.99,3.99,3.99,3.99,3.99,3.99,3.99,3.99,3.99,3.99,3.99,0.0,0.0,0.0,0.0,0.0,0.0,0.0,0.0,0.0,0.0,0.0,0.0,0.0,0.0,0.0,0.0,0.0,0.0,0.0,0.0,0.0,0.0,0.0,0.0,0.0,0.0,0.0,0.0,0.0,0.0,0.0,0.0,0.0,0.0,0.0,0.0,0.0,0.0,0.0,0.0,0.0,0.0,0.0,0.0,0.0,0.0,0.0,0.0,0.0,0.0,0.0,0.0,0.0,0.0,0.0,0.0,0.0,0.0,0.0,0.0,3.6766,0.0,0.0,0.0,0.0,0.0,0.0,0.0,0.0,0.0,0.0,0.0,0.0,0.0,0.0,0.0,0.0,0.0,0.0,0.0,0.0,0.0,0.0,0.0,0.0,0.0,0.0,0.0,0.0,0.0,0.0,0.0,0.0,0.0,0.0,0.0,0.0,0.0,0.0,0.0,0.0,3.9911,3.99,3.99,3.99,3.99,3.99,3.99,3.99,3.99,3.99,3.99,0.0,0.0,0.0,0.0,0.0,0.0,0.0,0.0,0.0,0.0,0.0,0.0,0.0,0.0,0.0,0.0,0.0,0.0,0.0,0.0,0.0,0.0,0.0,0.0,0.0,0.0,0.0,0.0,0.0,0.0,0.0,0.0,0.0,0.0,0.0,0.0,0.0,0.0,0.0,0.0,0.0,0.0,0.0,0.0,0.0,0.0,0.0,0.0,0.0,0.0,0.0,0.0,0.0,3.7458,3.7802,3.8509,3.8509,3.8575,3.87,3.7978,3.799,3.85,3.85,0.0,0.0,0.0,0.0,0.0,0.0,0.0,0.0,0.0,0.0,0.0,0.0,0.0,0.0,0.0,0.0,0.0,0.0,0.0,0.0,0.0,0.0,0.0,0.0,4.0326,4.0266,0.0,0.0,0.0,0.0,0.0,0.0,0.0,0.0,0.0,0.0,0.0,0.0,3.9922,3.99,3.99,3.99,3.99,3.99,3.99,3.99,3.99,3.99,3.99,3.99,0.0,0.0,0.0,0.0,0.0,0.0,0.0,0.0,0.0,0.0,0.0,0.0,0.0,0.0,0.0,0.0,0.0,0.0,0.0,0.0,0.0,0.0,0.0,0.0,0.0,0.0,0.0,0.0,0.0,0.0,0.0,0.0,3.5795,3.5795,0.0,0.0,0.0,0.0,0.0,0.0,0.0,0.0,0.0,0.0,0.0,0.0,0.0,3.7481,3.8245,3.8199,3.8221,3.8339,3.8339,3.8394,3.8491,3.8491,3.8919,3.9619,3.9502,0.0,3.85,3.85,0.0,0.0,0.0,0.0,0.0,0.0,0.0,0.0,0.0,0.0,0.0,0.0,0.0,0.0,0.0,0.0,0.0,0.0,0.0,0.0,0.0,0.0,4.0439,4.0334,4.0391,4.0431,0.0,4.0167,4.0071,4.0091,4.0101,0.0,0.0,0.0,0.0,0.0,0.0,0.0,3.9922,3.99,3.99,3.99,3.99,3.99,3.99,3.99,3.99,3.99,3.99,3.99,3.99,3.99,0.0,0.0,0.0,0.0,0.0,0.0,0.0,0.0,0.0,0.0,0.0,0.0,0.0,0.0,0.0,0.0,0.0,0.0,0.0,0.0,0.0,0.0,0.0,0.0,0.0,0.0,0.0,0.0,0.0,3.5795,3.5795,3.5795,3.5795,3.5795,0.0,0.0,0.0,0.0,0.0,0.0,0.0,0.0,0.0,3.7917,3.7966,3.817,3.8591,3.856,3.8778,3.9227,3.9232,3.949,3.9961,3.9961,4.0175,4.0522,4.0522,4.0319,3.9967,3.9969,3.9964,4.0,0.0,0.0,0.0,0.0,4.1107,4.1107,4.1107,4.1078,0.0,4.1068,0.0,0.0,0.0,0.0,0.0,0.0,0.0,0.0,0.0,0.0,4.0654,4.0586,4.0633,4.0654,4.0586,4.0462,4.0326,0.0,4.0326,4.037,4.0462,0.0,0.0,0.0,0.0,4.0157,4.003,3.9946,3.99,3.99,3.99,3.99,3.99,3.99,3.99,3.99,3.99,3.99,3.99,3.99,3.99,0.0,0.0,0.0,0.0,0.0,0.0,0.0,0.0,0.0,0.0,0.0,0.0,0.0,0.0,0.0,0.0,0.0,0.0,0.0,0.0,0.0,0.0,0.0,0.0,0.0,0.0,0.0,0.0,3.6391,3.64,3.6377,3.6414,3.6442,0.0,0.0,0.0,0.0,0.0,0.0,3.8422,3.8462,3.8583,3.8805,3.8816,3.8969,3.9235,3.9235,3.9548,4.0132,4.0132,4.0472,4.1108,4.1108,4.1092,4.1093,4.1093,4.1093,4.1091,4.1095,4.1092,4.1106,4.1092,4.1109,4.1106,4.1094,4.1107,4.1107,4.1107,4.1085,4.1075,4.1075,4.103,4.0975,4.0943,0.0,0.0,0.0,0.0,4.1443,4.1443,4.1447,4.1429,4.1429,4.1429,4.1429,4.1429,4.1331,4.1068,0.0,4.0511,4.0559,4.07,0.0,0.0,0.0,0.0,4.0309,4.0177,4.0051,4.0,4.0,3.9977,3.9946,3.9946,3.9922,3.99,3.99,3.99,3.99,3.99,3.99,3.99,3.99,0.0,0.0,0.0,0.0,0.0,0.0,0.0,0.0,0.0,0.0,0.0,0.0,0.0,0.0,0.0,0.0,0.0,0.0,0.0,0.0,0.0,0.0,0.0,0.0,0.0,0.0,0.0,0.0,0.0,3.7906,3.8111,0.0,0.0,0.0,0.0,3.8141,3.8199,3.8202,3.8204,3.8341,3.8776,3.961,3.97,4.0132,4.0973,4.0973,4.0992,4.1031,4.1031,4.1051,4.1091,4.1091,4.1091,4.1093,4.1093,4.1102,4.1093,4.1091,4.1106,4.1103,4.1103,4.1092,4.1107,4.1106,4.1107,4.1107,4.1107,4.1068,4.1019,4.1019,4.0967,4.0883,4.0833,4.1394,0.0,0.0,4.2582,4.3169,4.3169,4.3169,4.3169,4.3169,4.3169,4.3169,4.3169,4.3163,4.2626,0.0,4.0511,4.0511,4.0518,0.0,4.0739,4.0526,4.0484,4.0439,4.0309,4.0292,4.0283,4.0283,4.0177,4.0091,4.0091,3.9977,3.99,3.99,3.99,3.99,3.99,3.99,3.99,3.99,3.99,0.0,0.0,0.0,0.0,0.0,0.0,0.0,0.0,0.0,0.0,0.0,0.0,0.0,0.0,0.0,0.0,0.0,0.0,0.0,0.0,0.0,0.0,0.0,0.0,0.0,0.0,0.0,0.0,3.8021,3.8086,0.0,3.8041,3.8582,3.8942,3.898,3.945,3.977,3.9813,3.9908,4.0081,4.039,4.0435,4.059,4.0905,4.0905,4.0905,4.0905,4.0989,4.1044,4.1047,4.1078,4.1109,4.1109,4.1109,4.1094,4.11,4.1106,4.1093,4.1107,4.1101,4.1099,4.1098,4.1109,4.1106,4.1103,4.1103,4.1089,4.1151,4.1676,4.217,4.2552,4.2488,4.2687,4.2933,4.2885,4.3092,4.3305,4.3305,4.3305,4.3305,4.3305,4.3305,4.3305,4.3305,4.3305,4.3098,4.2426,4.2297,4.2297,4.2297,4.235,4.2383,4.2304,4.222,4.216,4.2101,4.2027,4.1967,4.1967,4.1922,4.1895,4.1895,4.1858,4.178,4.1707,4.1182,4.0826,4.0745,4.0203,3.99,3.99,3.99,3.99,0.0,0.0,0.0,0.0,0.0,0.0,0.0,0.0,0.0,0.0,0.0,0.0,0.0,0.0,0.0,0.0,0.0,0.0,0.0,0.0,0.0,0.0,0.0,0.0,0.0,0.0,3.8799,3.8773,3.884,3.8849,3.8777,3.9341,3.9704,3.9744,4.0234,4.0551,4.0636,4.0969,4.1164,4.1175,4.15,4.168,4.168,4.168,4.168,4.168,4.1793,4.1848,4.1851,4.1948,4.1988,4.1988,4.1988,4.1988,4.1988,4.1988,4.1983,4.1914,4.1327,4.1092,4.1131,4.1422,4.1537,4.1575,4.1876,4.1989,4.2061,4.2579,4.3104,4.352,4.3441,4.3646,4.3865,4.3792,4.3975,4.4201,4.4169,4.4136,4.4136,4.4136,4.4136,4.4136,4.4136,4.4136,4.4136,4.4136,4.3692,4.3305,4.3305,4.3305,4.3305,4.3305,4.3231,4.3168,4.3168,4.3092,4.3025,4.3025,4.2992,4.2966,4.2966,4.2923,4.2851,4.2766,4.2221,4.1847,4.1716,4.1199,4.0731,4.0355,4.0336,4.0468,4.0734,0.0,0.0,0.0,0.0,0.0,0.0,0.0,0.0,0.0,0.0,0.0,0.0,0.0,0.0,0.0,0.0,0.0,0.0,0.0,0.0,0.0,0.0,0.0,4.0301,4.0351,4.0366,4.0301,4.0476,4.0527,4.0344,4.0447,4.0526,4.0483,4.0475,4.0501,4.057,4.1439,4.1924,4.1919,4.2887,4.3388,4.3388,4.3388,4.3388,4.3388,4.3455,4.3497,4.35,4.3621,4.3683,4.3683,4.3683,4.3704,4.3705,4.3705,4.3705,4.3531,4.1849,4.1189,4.1287,4.2127,4.2436,4.2554,4.3414,4.3727,4.3725,4.3657,4.3653,4.3668,4.3595,4.4167,4.4829,4.4759,4.5341,4.5961,4.5835,4.5814,4.5814,4.5814,4.5807,4.5807,4.5807,4.5807,4.5807,4.5807,4.4485,4.3382,4.3382,4.3382,4.3382,4.3382,4.3382,0.0,4.3382,4.3382,4.3382,4.3382,4.3253,4.3173,4.3173,4.306,4.2982,4.2982,4.2963,4.289,4.2744,4.2833,4.2384,4.1268,4.1237,4.1624,4.2401,0.0,0.0,0.0,0.0,0.0,0.0,0.0,0.0,0.0,0.0,0.0,0.0,0.0,0.0,0.0,0.0,0.0,0.0,0.0,0.0,0.0,0.0,4.0301,4.0301,4.0319,4.0309,4.031,4.0355,4.0593,4.1122,4.1197,4.1474,4.2087,4.2145,4.2145,4.2162,4.2462,4.2646,4.2694,4.3007,4.318,4.318,4.318,4.318,4.318,4.3247,4.3282,4.3288,4.3423,4.3502,4.3551,4.3551,4.3614,4.3705,4.3705,4.3705,4.3647,4.3165,4.299,4.3011,4.325,4.3336,4.3379,4.3613,4.4081,4.4565,4.4543,4.4972,4.5476,4.5418,4.5581,4.5799,4.5735,4.5885,4.606,4.6035,4.5973,4.5953,4.5953,4.5861,4.5807,4.5807,4.5807,4.5807,4.5807,4.5439,4.5104,4.5104,4.5104,4.5104,4.5104,4.5104,0.0,4.5104,4.5104,4.5104,4.5104,4.5083,4.5068,4.5068,4.502,4.4967,4.487,4.4311,4.3906,4.3714,4.3195,4.2709,4.2299,4.2139,4.2185,0.0,0.0,0.0,0.0,0.0,0.0,0.0,0.0,0.0,0.0,0.0,0.0,0.0,0.0,0.0,0.0,0.0,0.0,0.0,0.0,0.0,0.0,4.0807,4.0941,4.1304,4.1036,4.0807,4.0807,4.1132,4.1533,4.1991,4.203,4.224,4.2756,4.2794,4.2794,4.2795,4.3187,4.3435,4.349,4.388,4.4117,4.4117,4.4135,4.4143,4.4152,4.4233,4.4284,4.4291,4.4403,4.4472,4.4506,4.4506,4.4572,4.4712,4.4712,4.4742,0.0,0.0,0.0,0.0,0.0,4.4474,4.4796,4.4796,4.5093,4.5487,4.5487,4.5839,4.623,4.619,4.6208,4.6222,4.6154,4.6136,4.6145,4.6109,4.6064,4.6046,4.6046,4.5966,4.5873,4.5873,4.5848,4.5807,4.5807,4.5807,0.0,4.5807,4.5807,4.5807,4.5807,4.5807,4.5807,4.5807,4.5807,4.5807,4.5807,4.5807,4.5807,4.5807,4.5807,0.0,0.0,0.0,4.4928,4.4829,4.389,0.0,0.0,0.0,4.3209,4.357,0.0,0.0,0.0,4.3398,4.3189,0.0,0.0,0.0,0.0,0.0,0.0,0.0,0.0,0.0,0.0,0.0,0.0,0.0,0.0,0.0,0.0,4.1599,4.1867,4.2698,4.2202,4.1743,4.1648,4.2335,4.2832,4.2928,4.2947,4.2985,4.3061,4.308,4.3081,4.3082,0.0,0.0,0.0,0.0,4.5495,4.5504,4.5559,4.5586,4.5594,4.5712,4.5778,4.5786,4.5834,4.5872,4.5883,4.5883,4.5964,4.6087,4.6087,4.6167,4.6138,4.458,4.3998,4.4094,4.4855,4.5636,4.63,4.63,0.0,0.0,4.63,4.63,4.6302,4.6309,4.6293,4.628,4.6227,4.6219,4.6192,4.6142,4.6118,4.6112,4.6112,4.6052,4.6017,4.6002,4.5917,4.5827,4.5807,4.5807,4.5807,4.5807,4.5807,4.5807,4.5807,4.5807,4.5807,4.5807,4.5807,4.5807,4.5807,0.0,0.0,4.5807,4.5807,4.5807,4.5807,4.5807,4.5807,4.5807,4.4812,4.4696,4.5577,4.4585,4.4431,4.5192,4.5014,4.4919,4.4876,4.4175,4.3834,0.0,0.0,0.0,0.0,0.0,0.0,0.0,0.0,0.0,0.0,0.0,0.0,0.0,0.0,0.0,4.2109,4.2147,4.23,4.2745,4.3214,4.3291,4.2622,4.2698,4.3061,4.3701,4.3758,4.4074,4.4762,4.4819,4.485,4.4881,4.5063,4.516,4.517,4.5333,4.5457,4.5504,4.5513,4.555,4.5594,0.0,0.0,4.5646,4.564,4.5715,4.5828,4.5828,4.5865,4.5935,4.5935,4.6009,4.6125,4.5898,4.5792,4.5812,4.5987,4.6163,4.63,4.63,4.63,4.63,4.63,4.63,4.6302,4.6303,4.6308,0.0,4.6286,4.6288,4.6289,4.6267,4.6213,4.6171,4.6171,4.6131,4.608,4.6017,4.598,4.5935,4.5827,4.5807,4.5807,4.5807,4.5807,4.5807,4.5807,4.5807,4.5807,4.5807,4.5807,4.5807,4.5807,4.5807,4.5807,4.5807,4.5807,4.5807,4.5807,4.5807,4.5807,4.5807,4.5472,4.5406,4.5605,4.5284,4.5138,4.5192,4.5159,4.5068,4.4895,4.4743,4.4668,0.0,0.0,0.0,0.0,0.0,0.0,0.0,0.0,0.0,0.0,0.0,4.1961,0.0,0.0,4.2234,4.263,4.2706,4.2907,4.3526,4.3954,4.3992,4.347,4.3787,4.4208,4.4609,4.4647,4.4838,4.5269,4.5307,4.5317,4.5348,4.5348,4.556,4.5993,4.6042,4.6292,4.6801,4.6809,4.6818,4.6855,4.6855,4.6855,4.6855,4.6855,4.6889,4.6954,4.6954,4.7008,4.7107,4.7167,4.7241,4.7319,4.7444,4.7001,4.63,4.63,4.63,4.63,4.63,4.63,4.63,4.63,4.63,4.63,4.63,4.6303,4.6308,4.6296,4.6301,4.6305,4.6308,4.6288,4.6243,4.6243,4.6202,4.6139,4.6109,4.6068,4.6022,4.5954,4.5944,4.5942,4.5904,4.5892,4.5886,4.5814,4.5807,4.5807,4.5807,4.5807,4.5807,4.5807,4.5807,4.5807,4.5807,4.5807,4.5807,4.5807,4.5807,4.5807,4.5807,4.5749,4.57,4.57,4.5571,4.5465,4.54,4.5321,4.5239,4.5154,4.5084,4.501,0.0,0.0,0.0,0.0,0.0,0.0,0.0,0.0,4.1595,4.177,4.1908,4.1969,4.1908,4.2131,4.2515,4.317,4.3264,4.3549,4.4289,4.4533,4.4546,4.4338,4.4794,4.5129,4.5129,4.5281,4.5365,4.5365,4.5498,4.5593,4.5593,4.5657,4.6007,4.6699,4.6853,4.7298,4.8077,4.8078,4.8087,4.8105,4.8105,4.8105,4.8105,4.8105,4.8105,4.8105,4.8105,4.8167,4.8269,4.8412,4.8463,4.8481,4.8618,4.7859,4.6723,4.6763,4.6788,4.6768,4.6612,4.6554,4.6515,4.6358,4.63,4.63,4.63,4.63,4.6302,4.6291,4.6296,4.6301,4.6306,4.6308,4.6308,4.6308,4.6265,4.621,4.6204,4.6155,4.6115,4.6102,4.6098,4.608,4.6027,4.6013,4.5966,4.5815,4.5807,4.5807,4.5807,4.5807,4.5807,4.5807,4.5807,4.5807,4.5807,4.5807,4.5807,4.5807,4.5807,4.5807,4.5807,4.5807,4.5807,4.5807,4.5692,4.5629,4.5605,4.5493,4.5438,4.54,4.529,4.5129,4.0474,4.1125,4.1866,4.2184,4.2618,4.2966,0.0,0.0,4.359,4.3965,4.4051,4.398,4.3754,4.3742,4.3791,4.3884,4.3903,4.4028,4.4355,4.5026,4.5453,4.5416,4.4879,4.4511,4.4511,4.5143,4.5561,4.5561,4.6224,4.6638,4.6638,4.6919,4.7119,4.7226,4.7514,4.7769,4.7999,4.8009,4.8039,4.8105,4.8105,4.8105,4.8105,4.8105,4.8105,4.8105,4.8105,4.8115,4.8132,4.8261,4.8322,4.8336,4.8475,4.8411,4.8273,4.8452,4.8525,4.8427,4.7705,4.745,4.7332,4.6554,4.63,4.63,4.63,4.63,4.6302,4.6291,4.6294,4.6296,4.6305,4.6307,4.6307,4.6308,4.6289,4.6267,4.6209,4.6199,4.6165,4.6112,4.6098,4.6098,4.6087,4.6087,4.6011,4.5828,4.5807,4.5807,4.5807,4.5807,4.5807,4.5807,4.5807,4.5807,4.5807,4.5807,4.5807,4.5807,4.5807,4.5807,4.5807,4.5807,4.5807,4.5807,4.5793,4.5715,4.5605,4.5588,4.5519,4.54,4.539,4.5291,4.1778,4.2177,4.2523,4.2649,4.2923,4.3141,4.3152,4.3373,4.3614,4.3823,4.3871,4.3839,4.3732,4.3716,4.3716,0.0,4.4105,4.445,4.4561,4.5282,4.5766,4.5766,4.5486,4.5406,4.5752,4.61,4.6292,4.6292,4.6611,4.6798,4.6798,4.7116,4.7548,4.8112,4.8407,4.8843,4.9446,4.9496,4.9537,4.9557,4.9596,4.9606,4.9606,4.9606,4.9606,4.9606,4.9606,4.9606,4.9615,4.967,4.9705,4.9704,4.9833,4.9891,4.9808,4.9025,4.873,4.8697,4.8398,4.8291,4.8232,4.7861,4.7744,4.7744,4.7744,4.7744,4.7746,4.7749,4.7754,4.7758,4.7744,4.7786,4.7808,4.7811,4.7812,4.7812,4.777,4.7769,4.7767,4.7737,4.7735,4.773,4.7684,4.766,4.7424,4.6727,4.622,4.5899,4.5814,4.5807,4.5807,4.5807,4.5807,4.5807,4.5807,4.5807,4.5807,4.5807,4.5807,4.5807,4.5807,4.5807,4.5807,4.5807,4.5807,4.5759,4.5715,4.5715,4.5685,4.5629,4.5554,4.5484,4.2737,4.2938,4.2957,4.2975,4.3087,4.3215,4.3269,4.3358,4.3446,4.3497,4.3515,4.3515,4.3515,4.3515,4.357,4.3791,4.4323,4.4764,4.5002,4.5718,4.6232,4.6232,4.6434,4.6726,4.7164,4.7007,4.6877,4.6877,4.7082,4.7213,4.7213,4.7519,4.8023,4.8697,4.9011,4.9532,5.0321,5.0385,5.0459,5.0582,5.0633,5.0663,5.0663,5.0683,5.0712,5.0712,5.0712,5.0712,5.0712,5.0712,5.0712,5.0702,5.081,5.0841,5.072,4.9681,4.9342,4.9379,4.9211,4.9169,4.9111,4.8876,4.8798,4.8798,4.8798,4.8798,4.8798,4.8798,4.8804,4.8808,4.879,4.8833,4.8878,4.8903,4.8903,4.8904,4.8906,4.8906,4.8906,4.8906,4.8906,4.8886,4.8837,4.8833,4.856,4.7751,4.7142,4.6538,4.5873,4.5807,4.5807,4.5807,4.5807,4.5807,4.5807,4.5807,4.5807,4.5807,4.5807,4.5807,4.5807,4.5807,4.5807,4.5807,4.5807,4.5807,4.5807,4.5807,4.5807,4.58,4.57,4.5653,4.2901,4.2994,4.3123,4.3178,4.3305,4.3394,4.348,4.3479,4.3497,4.3515,4.3515,4.3515,4.3515,4.3515,4.3754,4.4544,4.4673,4.4984,4.5755,4.6562,4.7058,4.7058,4.7736,4.8233,0.0,4.7554,4.7095,4.7095,4.7811,4.8252,4.8252,4.8567,4.8759,4.8796,4.9123,4.9489,4.9923,4.9923,5.0106,5.0511,5.0582,5.0603,5.0603,5.0663,5.0712,5.0712,5.0712,5.0712,5.0712,5.0712,5.0712,5.0693,5.0693,5.0721,5.0721,5.0808,5.0971,5.102,5.0304,5.0065,4.9928,4.9072,4.8798,4.8798,4.8798,4.8798,4.8798,4.8798,4.8798,4.88,4.8808,4.8792,4.8813,4.8877,4.8898,4.89,4.8904,4.8905,4.8905,4.8906,4.8906,4.8906,4.8906,4.8906,4.8865,4.8765,4.872,4.8002,4.6054,4.5807,4.5807,4.5807,4.5807,4.5807,4.5807,4.5807,4.5807,4.5807,4.5807,4.5807,4.5807,4.5807,4.5807,4.5807,4.5807,4.5807,4.5807,4.5807,4.5807,4.5807,4.58,4.578,4.2825,4.2938,4.2957,4.2994,4.3087,4.3215,4.3233,4.334,4.3429,4.3429,4.3868,4.4252,4.4287,4.4692,4.5132,4.5443,4.5938,4.6379,4.6654,4.7388,4.7901,4.7901,4.8141,0.0,0.0,0.0,0.0,4.7901,4.8159,4.8306,4.8306,4.8623,4.8799,4.8799,4.9129,4.936,4.9512,4.9556,4.9738,5.0106,5.0448,5.0623,5.0663,5.0683,5.0712,5.0712,5.0712,5.0712,5.0712,5.0712,5.0712,5.0712,5.0712,5.0712,5.0712,5.085,5.0942,5.0978,5.0864,5.083,5.0797,5.0584,5.0535,5.0535,5.0535,5.0535,5.0535,5.0535,5.0535,5.0537,5.0528,5.0529,5.0533,5.0542,5.0563,5.0564,5.0566,5.0566,5.0566,5.0566,5.0566,5.0566,5.0566,5.0566,5.033,4.9685,4.9036,4.837,4.7672,4.7552,4.7521,4.7521,4.6999,4.6651,4.6651,4.6136,4.5807,4.5807,4.5807,4.5807,4.5807,4.5807,4.5807,4.5807,4.5807,4.5807,4.5807,4.5807,4.5807,4.5807,4.5807,4.5807,4.2575,4.2769,4.2901,4.2957,4.303,4.3104,4.3123,4.3233,4.334,4.3394,4.3998,4.4565,4.4673,4.5315,4.592,4.6269,4.6746,4.7204,4.748,4.7957,4.8306,4.8306,4.8306,4.8306,0.0,0.0,0.0,4.8306,4.8306,4.8306,4.8306,4.8495,4.8623,4.8623,4.8832,4.8999,4.9129,4.9158,4.9439,4.991,5.0233,5.0492,5.0682,5.0702,5.0712,5.0712,5.0712,5.0712,5.0712,5.0712,5.0712,5.0712,5.0712,5.0712,5.0702,5.0793,5.0836,5.0866,5.1061,5.1155,5.1211,5.1297,5.1362,5.1394,5.1394,5.1394,5.1394,5.1394,5.1394,5.1396,5.1407,5.1409,5.1393,5.1402,5.1403,5.1404,5.1406,5.1406,5.1406,5.1406,5.1406,5.1406,5.1406,5.1406,5.1191,5.0597,4.9931,4.9259,4.8582,4.8457,4.8437,4.8399,4.7908,4.756,4.756,4.7038,4.6728,4.6728,4.6728,4.6728,4.6728,4.6728,4.6728,4.6728,4.6728,4.6728,4.6728,4.6728,4.6728,4.6728,4.6728,4.6728,4.2157,4.2498,4.29,4.2993,4.3012,4.3049,4.3123,4.3142,4.3215,4.3377,4.3944,4.4491,0.0,0.0,4.6157,4.702,4.7168,4.7424,4.8196,4.8306,4.8306,0.0,0.0,0.0,0.0,0.0,0.0,4.8306,0.0,4.8306,4.8306,4.8306,4.8306,4.8306,4.8306,4.8439,4.8764,4.8799,4.9161,4.987,4.9955,5.0202,5.0593,5.0663,5.0712,5.0712,5.0712,5.0712,5.0712,5.0712,5.0712,5.0712,5.0712,5.0712,5.0712,5.0712,5.0712,5.0721,5.0912,5.1063,5.1191,5.1199,5.1291,5.139,5.1394,5.1394,5.1394,5.1394,5.1394,5.1396,5.1408,5.139,5.1391,5.1398,5.1399,5.14,5.1404,5.1405,5.1405,5.1406,5.1406,5.1406,5.1406,5.1406,5.1406,5.1406,5.1358,5.0661,4.8871,4.8635,4.8598,4.8537,4.8496,4.8469,4.8469,4.843,4.8392,4.8392,4.8392,4.8392,4.8392,4.8392,4.8392,4.8392,4.8392,4.8392,4.8392,4.8392,4.8392,4.8392,4.8392,4.8392,4.1678,4.2015,4.23,4.1973,4.1909,4.1994,4.236,4.2537,4.2757,4.335,4.4086,4.4847,0.0,0.0,0.0,4.7802,4.7955,0.0,4.8269,4.8306,0.0,4.8306,0.0,4.8306,4.8306,4.8306,0.0,0.0,4.8306,4.8306,4.8306,4.8306,4.8306,4.8306,4.8306,4.8344,4.8439,4.8765,4.9069,4.9305,4.9819,5.0159,5.0313,5.0584,5.0712,5.0712,5.0712,5.0712,5.0712,5.0712,5.0712,5.0712,5.0712,5.0712,5.0712,5.0712,5.0712,5.0702,5.0766,5.0859,5.1005,5.1156,5.1214,5.1262,5.1364,5.1394,5.1394,5.1394,5.1394,5.1398,5.1394,5.1396,5.1398,5.1405,5.1406,5.1406,5.1406,5.1406,5.1406,5.1406,5.1406,5.1406,5.1406,5.1406,5.1406,5.1406,5.1386,5.1181,5.0645,5.049,5.0433,5.0416,4.9799,4.9378,4.9378,4.8778,4.8392,4.8392,4.8392,4.8392,4.8392,4.8392,4.8392,4.8392,4.8392,4.8392,4.8392,4.8392,4.8392,4.8392,4.8392,4.8392,4.1253,4.1696,4.2095,4.163,4.1503,4.1635,4.2228,4.2424,4.2718,4.3517,4.4259,4.496,4.5548,4.6502,4.7342,0.0,0.0,0.0,4.8306,4.8306,4.8306,0.0,4.8306,0.0,4.8306,4.8306,4.8306,0.0,4.8306,4.8306,4.8306,4.8306,4.8306,4.8306,4.8306,4.8306,4.8306,4.8605,4.8853,4.9055,4.9622,4.9987,5.0171,5.0544,5.0712,5.0712,0.0,5.0712,5.0712,5.0712,5.0712,5.0712,5.0712,5.0712,5.0712,5.0712,5.0712,5.0712,5.0712,5.0749,5.0841,5.1004,5.1138,5.1211,5.1291,5.1357,5.1394,5.1394,5.1394,5.1398,5.1395,5.1398,5.1401,5.1406,5.1406,5.1406,5.1406,5.1406,5.1406,5.1406,5.1406,5.1406,5.1406,5.1406,5.1406,5.1406,5.1406,5.1386,5.1359,5.1261,5.1171,5.1117,5.063,5.0284,5.0229,4.9784,4.9494,4.9494,4.9494,4.9494,4.9494,4.9494,4.9494,4.9494,4.9494,4.9494,4.9494,4.9494,4.9494,4.9494,4.9494,4.9494,4.0832,4.1343,4.1888,4.1415,4.1303,4.1536,4.2328,4.252,4.2753,4.3594,4.423,4.4727,4.5012,4.6087,4.7046,4.7324,0.0,4.8306,4.8306,4.8306,4.8306,4.8306,4.8306,4.8306,4.8306,4.8306,4.8306,4.8306,4.8306,4.8306,4.8306,4.8306,4.8306,4.8306,4.8306,4.8306,4.8306,4.8438,4.866,4.8956,4.9375,4.9728,5.0068,5.0462,5.0663,5.0712,5.0712,5.0712,5.0712,5.0712,5.0712,5.0712,5.0712,5.0712,5.0712,5.0712,5.0712,5.0712,5.0712,5.0712,5.0721,5.0858,5.1017,5.1187,5.1199,5.1294,5.1394,5.1394,5.1394,5.1398,5.1394,5.1397,5.1401,5.1406,5.1406,5.1406,5.1406,5.1406,5.1406,5.1406,5.1406,5.1406,5.1406,5.1406,5.1406,5.1406,5.1406,5.1406,5.1406,5.1337,5.1263,5.1132,5.1103,5.1056,5.0944,5.0914,5.0898,5.0898,5.0898,5.0898,5.0898,5.0898,5.0898,5.0898,5.0898,5.0898,5.0898,5.0898,5.0898,5.0898,5.0898,5.0898,4.0353,4.0611,4.0926,4.0458,4.0336,4.0622,4.1757,4.2026,0.0,4.2987,4.3247,4.3523,4.4239,4.5058,4.5967,4.7064,4.7838,4.8306,4.8306,4.8306,4.8306,0.0,4.8306,4.8306,4.8306,4.8306,0.0,0.0,4.8306,4.8306,4.8306,4.8306,4.8306,4.8306,4.8306,4.8306,4.8306,4.8495,4.8605,4.8678,4.9185,4.9583,4.9851,5.0147,5.0432,5.0712,5.0712,0.0,5.0712,5.0712,5.0712,5.0712,5.0712,5.0712,5.0712,5.0712,5.0712,5.0712,5.0712,5.0712,5.0721,5.0858,5.0952,5.1053,5.1178,5.1294,5.1394,5.1394,5.1394,5.1396,5.1408,5.1395,5.14,5.1404,5.1406,5.1406,5.1406,5.1406,5.1406,5.1406,5.1406,5.1406,5.1406,5.1406,5.1406,5.1406,5.1406,5.1406,5.1406,5.1337,5.1291,5.1272,5.1176,5.1093,5.1069,5.0954,5.0898,5.0898,5.0898,5.0898,5.0898,5.0898,5.0898,5.0898,5.0898,5.0898,5.0898,5.0898,5.0898,5.0898,5.0898,5.0898,4.0221,4.0434,4.07,4.0221,4.0096,4.0434,4.1793,4.1809,4.1861,4.2978,4.2893,4.2765,4.315,4.4098,4.5129,4.6056,4.7117,4.7937,4.8267,4.8306,4.8306,4.8306,4.8306,4.8306,4.8306,4.8306,4.8306,4.8306,4.8306,4.8306,4.8306,4.8306,4.8306,4.8306,4.8306,4.8306,4.8306,4.8495,4.8605,4.8605,4.9141,4.9472,4.9598,5.0006,5.0283,5.0442,5.0624,0.0,5.0712,5.0712,5.0712,5.0712,5.0712,5.0712,5.0712,5.0712,5.0712,5.0712,5.0712,5.0712,5.0702,5.0785,5.0851,5.0966,5.1072,5.1195,5.13,5.1388,5.1394,5.1396,5.1407,5.1394,5.1399,5.1404,5.1406,5.1406,5.1406,5.1406,5.1406,5.1406,5.1406,5.1406,5.1406,5.1406,5.1406,5.1406,5.1406,5.1406,5.1406,5.1365,5.1335,5.1299,5.1249,5.1189,5.1111,5.1043,5.0969,5.0906,5.0898,5.0898,5.0898,5.0898,5.0898,5.0898,5.0898,5.0898,5.0898,5.0898,5.0898,5.0898,5.0898,5.0898,4.0196,4.0377,4.0556,4.0196,4.0096,4.0451,4.1745,4.1627,4.1542,4.2682,4.2472,4.2049,4.2049,4.3211,4.4366,4.4994,4.6391,4.7572,4.8035,4.821,4.8306,4.8306,4.8306,0.0,4.8306,4.8306,0.0,4.8306,4.8306,4.8306,4.8306,4.8306,4.8306,4.8306,4.8306,4.8306,4.8306,4.8495,4.8605,4.8605,4.9075,4.9337,4.9396,4.983,5.0099,5.0206,5.0483,0.0,0.0,5.0712,5.0712,5.0712,5.0712,5.0712,5.0712,5.0712,5.0712,5.0712,5.0712,5.0712,5.0712,5.0712,5.0784,5.0917,5.0953,5.1088,5.1214,5.1327,5.1386,5.1396,5.1405,5.1393,5.14,5.1405,5.1406,5.1406,5.1406,5.1406,5.1406,5.1406,5.1406,5.1406,5.1406,5.1406,5.1406,5.1406,5.1406,5.1406,5.1406,5.1406,5.1386,5.1331,5.1302,5.1258,5.1141,5.1117,5.1043,5.0914,5.0898,5.0898,5.0898,5.0898,5.0898,5.0898,5.0898,5.0898,5.0898,5.0898,5.0898,5.0898,5.0898,5.0898,4.0096,4.0121,4.0146,4.0096,4.0096,4.0316,4.1119,4.1255,4.1238,4.1373,4.1356,4.1305,4.1305,4.2439,4.3645,4.4354,4.612,4.7406,4.747,4.7957,4.8306,4.8306,0.0,0.0,4.8306,4.8306,4.8306,4.8306,4.8306,4.8306,4.8306,4.8306,4.8306,4.8306,4.8306,4.8306,4.8306,4.8495,4.8605,4.8605,4.8838,4.911,4.9415,4.9442,4.974,5.0206,5.023,0.0,0.0,5.0712,5.0712,5.0712,5.0712,5.0712,5.0712,5.0712,5.0712,5.0712,5.0712,5.0712,5.0712,5.0712,5.0784,5.0894,5.091,5.1047,5.1203,5.1211,5.1319,5.1394,5.1396,5.1408,5.1401,5.1406,5.1406,5.1406,5.1406,5.1406,5.1406,5.1406,5.1406,5.1406,5.1406,5.1406,5.1406,5.1406,5.1406,5.1406,5.1406,5.1406,5.1406,5.1386,5.1335,5.1274,5.1199,5.1146,5.1043,5.0914,5.0898,5.0898,5.0898,5.0898,5.0898,5.0898,5.0898,5.0898,5.0898,5.0898,5.0898,5.0898,5.0898,5.0898,4.0096,4.0096,4.0096,4.0096,4.0096,4.0299,4.1035,4.0849,4.0646,4.1119,4.0849,4.0527,4.0527,4.1733,4.2937,4.3615,4.547,4.6932,4.7342,4.7917,4.8306,4.8306,4.8306,0.0,0.0,0.0,4.8306,4.8306,4.8306,4.8306,4.8306,4.8306,4.8306,4.8306,4.8306,4.8306,4.8306,4.8495,4.8605,4.8605,4.8803,4.8959,4.911,4.9484,4.9749,4.9968,5.0336,0.0,0.0,5.0712,5.0712,5.0712,5.0712,5.0712,5.0712,5.0712,5.0712,5.0712,5.0712,5.0712,5.0712,5.0712,5.075,5.0793,5.0882,5.0979,5.1108,5.1187,5.1294,5.1394,5.1394,5.1408,5.14,5.1405,5.1406,5.1406,5.1406,5.1406,5.1406,5.1406,5.1406,5.1406,5.1406,5.1406,5.1406,5.1406,5.1406,5.1406,5.1406,5.1406,5.1406,5.1406,5.1337,5.1277,5.1207,5.1132,5.1043,5.0914,5.0898,5.0898,5.0898,5.0898,5.0898,5.0898,5.0898,5.0898,5.0898,5.0898,5.0898,5.0898,5.0898,5.0898,4.0096,4.0096,4.0096,4.0096,4.0096,4.0248,4.0747,4.046,4.0248,4.0764,4.0468,4.0096,4.0096,4.1119,4.2278,4.3158,4.4869,4.6374,4.7284,4.7917,4.8306,4.8306,0.0,4.8306,0.0,4.8306,4.8306,4.8306,4.8306,4.8306,4.8306,4.8306,4.8306,4.8306,4.8306,4.8306,4.8306,4.8495,4.8605,4.8605,4.8803,4.8909,4.8907,4.9343,4.9637,4.9811,5.0256,0.0,0.0,5.0712,5.0712,5.0712,5.0712,5.0712,5.0712,5.0712,5.0712,5.0712,5.0712,5.0712,5.0712,5.0712,5.0712,5.0721,5.0819,5.0894,5.0997,5.1113,5.1278,5.1394,5.1398,5.139,5.1399,5.1404,5.1406,5.1406,5.1406,5.1406,5.1406,5.1406,5.1406,5.1406,5.1406,5.1406,5.1406,5.1406,5.1406,5.1406,5.1406,5.1406,5.1406,5.1406,5.1337,5.1277,5.1207,5.1162,5.1068,5.0914,5.0898,5.0898,5.0898,5.0898,5.0898,5.0898,5.0898,5.0898,5.0898,5.0898,5.0898,5.0898,5.0898,5.0898,4.0096,4.0096,4.0096,4.0096,4.0096,4.0096,4.0113,4.0113,4.0096,4.0113,4.0113,4.0096,4.0096,4.0696,4.1656,4.3071,4.4437,4.5797,4.7194,4.7917,4.8306,0.0,0.0,4.8306,4.8306,4.8306,4.8306,4.8306,4.8306,0.0,4.8306,4.8306,4.8306,4.8306,4.8306,4.8306,4.8306,4.8495,4.8605,4.8605,4.8803,4.8909,4.8909,4.8909,4.9252,0.0,0.0,0.0,0.0,5.0712,5.0712,5.0712,5.0712,5.0712,5.0712,5.0712,5.0712,5.0712,5.0712,5.0712,5.0712,5.0712,5.0712,5.0712,5.0693,5.0793,5.0932,5.0972,5.1199,5.1396,5.1407,5.1394,5.1399,5.1404,5.1406,5.1406,5.1406,5.1406,5.1406,5.1406,5.1406,5.1406,5.1406,5.1406,5.1406,5.1406,5.1406,5.1406,5.1406,5.1406,5.1406,5.1406,5.1337,5.1277,5.1207,5.1199,5.1118,5.0902,5.0898,5.0898,5.0898,5.0898,5.0898,5.0898,5.0898,5.0898,5.0898,5.0898,5.0898,5.0898,5.0898,5.0898,4.0096,4.0096,4.0096,4.0096,4.0096,4.0096,4.0096,4.0096,4.0096,4.0096,4.0096,4.0096,4.0096,4.0949,4.2016,4.312,4.4693,4.6147,0.0,0.0,0.0,4.8306,4.8306,4.8306,0.0,0.0,4.8306,4.8306,4.8306,4.8306,4.8306,4.8306,4.8306,4.8306,4.8306,4.8306,4.8306,4.8495,4.8605,4.8605,4.8803,4.8909,4.8909,4.9144,4.9454,0.0,0.0,0.0,0.0,5.0712,5.0712,5.0712,5.0712,5.0712,5.0712,5.0712,5.0712,5.0712,5.0712,5.0712,5.0712,5.0712,5.0712,5.0712,5.0712,5.0793,5.0928,5.1088,5.1258,5.1396,5.1407,5.1394,5.1399,5.1404,5.1406,5.1406,5.1406,5.1406,5.1406,5.1406,5.1406,5.1406,5.1406,5.1406,5.1406,5.1406,5.1406,5.1406,5.1406,5.1406,5.1406,5.1406,5.1386,5.1328,5.1214,5.1162,5.1074,5.0914,5.0898,5.0898,5.0898,5.0898,5.0898,5.0898,5.0898,5.0898,5.0898,5.0898,5.0898,5.0898,5.0898,5.0898,4.0096,4.0096,4.0096,4.0096,4.0096,4.0096,4.0096,4.0096,4.0096,4.0096,4.0096,4.0146,4.0328,4.1229,4.2365,4.3704,4.5098,0.0,0.0,0.0,0.0,4.8306,0.0,0.0,0.0,4.8306,4.8306,4.8306,4.8306,4.8306,4.8306,4.8306,4.8306,4.8306,4.8306,4.8306,4.8306,4.8495,4.8605,4.8605,4.8803,4.8909,4.8909,4.911,4.9439,0.0,0.0,0.0,0.0,5.0712,5.0712,5.0712,5.0712,5.0712,5.0712,5.0712,5.0712,5.0712,5.0712,5.0712,5.0712,5.0712,5.0712,5.0712,5.0712,5.0816,5.0959,5.1093,5.1255,5.1396,5.1407,5.1394,5.1399,5.1404,5.1406,5.1406,5.1406,5.1406,5.1406,5.1406,5.1406,5.1406,5.1406,5.1406,5.1406,5.1406,5.1406,5.1406,5.1406,5.1406,5.1406,5.1406,5.1385,5.1327,5.1214,5.1167,5.108,5.0914,5.0898,5.0898,5.0898,5.0898,5.0898,5.0898,5.0898,5.0898,5.0898,5.0898,5.0898,5.0898,5.0898,5.0898,0.0,4.0096,4.0096,4.0096,4.0096,4.0096,4.0096,4.0096,0.0,4.0096,4.0096,4.0229,4.0707,4.1494,4.2696,4.4591,4.5606,0.0,0.0,4.8306,0.0,0.0,4.8306,0.0,4.8306,4.8306,4.8306,4.8306,4.8306,4.8306,4.8306,4.8306,4.8306,4.8306,4.8306,4.8306,4.8306,4.8495,4.8605,4.8624,4.8803,4.8909,4.8909,4.8907,4.9249,0.0,0.0,0.0,5.0712,5.0712,5.0712,5.0712,5.0712,5.0712,5.0712,5.0712,5.0712,5.0712,5.0712,5.0712,5.0712,5.0712,5.0712,5.0712,5.0712,5.0844,5.099,5.1002,5.1191,5.1392,5.1407,5.1395,5.14,5.1404,5.1406,5.1406,5.1406,5.1406,5.1406,5.1406,5.1406,5.1406,5.1406,5.1406,5.1406,5.1406,5.1406,5.1406,5.1406,5.1406,5.1406,5.1406,5.1337,5.1277,5.1207,5.1195,5.1113,5.0902,5.0898,5.0898,5.0898,5.0898,5.0898,5.0898,5.0898,5.0898,5.0898,5.0898,5.0898,5.0898,5.0898,5.0898,4.0096,0.0,4.0096,4.0096,4.0096,4.0096,0.0,4.0096,4.0096,4.0096,4.0096,4.0229,4.0707,4.183,4.3156,4.4671,4.5969,4.714,4.8157,4.8306,0.0,4.8306,4.8306,4.8306,4.8306,4.8306,4.8306,4.8306,4.8306,4.8306,4.8306,4.8306,4.8306,4.8306,4.8306,4.8363,4.8457,4.855,4.866,4.875,4.8856,4.8909,4.8909,4.9176,4.9465,0.0,0.0,5.0336,5.0712,5.0712,5.0712,5.0712,5.0712,5.0712,5.0712,5.0712,5.0712,5.0712,5.0712,5.0712,5.0712,5.0712,5.0712,5.0712,5.0712,5.0799,5.093,5.0997,5.1128,5.1268,5.1367,5.1397,5.14,5.1406,5.1406,5.1406,5.1406,5.1406,5.1406,5.1406,5.1406,5.1406,5.1406,5.1406,5.1406,5.1406,5.1406,5.1406,5.1406,5.1406,5.1406,5.1406,5.1337,5.1277,5.1207,5.1157,5.1062,5.0914,5.0898,5.0898,5.0898,5.0898,5.0898,5.0898,5.0898,5.0898,5.0898,5.0898,5.0898,5.0898,5.0898,5.0898,4.0096,4.0096,4.0096,4.0096,4.0096,4.0096,4.0096,4.0096,4.0096,4.0096,4.0254,4.0707,4.1586,4.286,4.4246,4.5635,4.6807,0.0,0.0,0.0,4.8306,4.8306,4.8306,4.8306,0.0,4.8306,4.8306,4.8306,4.8306,4.8306,4.8306,4.8306,4.8306,4.8306,4.8306,4.8363,4.8513,4.8587,4.866,4.8804,4.901,4.9127,4.9144,4.9321,4.9612,0.0,0.0,5.0279,5.0712,5.0712,5.0712,5.0712,5.0712,5.0712,5.0712,5.0712,5.0712,5.0712,5.0712,5.0712,5.0712,5.0712,5.0712,5.0712,5.0712,5.0749,5.0841,5.0953,5.1108,5.1229,5.1369,5.1398,5.1401,5.1406,5.1406,5.1406,5.1406,5.1406,5.1406,5.1406,5.1406,5.1406,5.1406,5.1406,5.1406,5.1406,5.1406,5.1406,5.1406,5.1406,5.1406,5.1406,5.1337,5.1277,5.1207,5.1132,5.1043,5.0914,5.0898,5.0898,5.0898,5.0898,5.0898,5.0898,5.0898,5.0898,5.0898,5.0898,5.0898,5.0898,5.0898,5.0898,4.0096,4.0146,4.0196,4.0121,4.0096,4.0096,4.0096,4.0096,4.0121,4.0196,4.0641,4.1424,4.2758,4.4107,4.5452,0.0,0.0,0.0,4.8287,4.8306,4.8306,4.8306,4.8306,0.0,4.8306,4.8306,4.8306,4.8306,4.8306,4.8306,4.8306,4.8306,4.8306,4.8306,4.8306,4.8382,4.8513,4.8569,4.8696,4.891,4.9241,4.9411,4.9472,4.9499,4.9762,5.0195,0.0,0.0,5.0712,5.0712,5.0712,5.0712,5.0712,5.0712,5.0712,5.0712,5.0712,5.0712,5.0712,5.0712,5.0712,5.0712,5.0712,5.0712,5.0712,5.0712,5.073,5.0946,5.1079,5.1214,5.1367,5.1398,5.1401,5.1406,5.1406,5.1406,5.1406,5.1406,5.1406,5.1406,5.1406,5.1406,5.1406,5.1406,5.1406,5.1406,5.1406,5.1406,5.1406,5.1406,5.1406,5.1406,5.1337,5.1277,5.1207,5.1132,5.1043,5.0914,5.0898,5.0898,5.0898,5.0898,5.0898,5.0898,5.0898,5.0898,5.0898,5.0898,5.0898,5.0898,5.0898,5.0898,4.0096,4.0402,4.0604,4.0196,4.0096,4.0096,4.0096,4.0096,4.0204,4.0604,4.1391,4.2283,4.3312,4.491,4.6269,0.0,0.0,4.8287,0.0,0.0,4.8306,4.8306,0.0,4.8306,4.8306,4.8306,4.8306,4.8306,4.8306,4.8306,4.8306,4.8306,4.8306,4.8306,4.8401,4.8513,4.8569,4.8587,4.8837,4.9305,4.9384,4.9514,4.9749,4.9968,5.0123,5.0206,0.0,5.0614,5.0712,5.0712,5.0712,5.0712,5.0712,5.0712,5.0712,5.0712,5.0712,5.0712,5.0712,5.0712,5.0712,5.0712,5.0712,5.0712,5.0712,5.0712,5.073,5.0946,5.102,5.1094,5.1341,5.1398,5.1401,5.1406,5.1406,5.1406,5.1406,5.1406,5.1406,5.1406,5.1406,5.1406,5.1406,5.1406,5.1406,5.1406,5.1406,5.1406,5.1406,5.1406,5.1406,5.1406,5.1337,5.1277,5.1207,5.1132,5.1043,5.0914,5.0898,5.0898,5.0898,5.0898,5.0898,5.0898,5.0898,5.0898,5.0898,5.0898,5.0898,5.0898,5.0898,5.0898,4.0096,4.0271,4.041,4.0458,4.0731,4.0949,4.0949,4.1337,4.1731,4.1943,4.289,4.3956,4.489,0.0,4.6896,4.7587,0.0,4.8306,4.8306,4.8306,4.8306,0.0,0.0,4.8306,4.8306,4.8306,4.8306,4.8306,4.8306,4.8306,4.8306,4.8306,4.8306,4.8306,4.8363,4.8476,4.8605,4.8783,4.9057,4.9415,4.9544,4.9749,5.0019,5.0147,5.0294,5.0472,0.0,5.0525,5.0712,5.0712,5.0712,5.0712,5.0712,5.0712,5.0712,5.0712,5.0712,5.0712,5.0712,5.0712,5.0712,5.0712,5.0712,5.0712,5.0712,5.0712,5.073,5.0894,5.0966,5.1055,5.1322,5.14,5.1404,5.1406,5.1406,5.1406,5.1406,5.1406,5.1406,5.1406,5.1406,5.1406,5.1406,5.1406,5.1406,5.1406,5.1406,5.1406,5.1406,5.1406,5.1406,5.1406,5.1337,5.1277,5.1207,5.1132,5.1043,5.0914,5.0898,5.0898,5.0898,5.0898,5.0898,5.0898,5.0898,5.0898,5.0898,5.0898,5.0898,5.0898,5.0898,5.0898,4.0096,4.0254,4.0514,4.0879,4.1225,4.1534,4.1666,4.2365,4.3026,4.3156,4.4259,4.547,4.6325,4.6934,0.0,4.8195,4.8306,4.8306,4.8306,4.8306,4.8306,4.8306,4.8306,4.8306,4.8306,4.8306,4.8306,4.8306,4.8306,4.8306,4.8306,4.8306,4.8306,4.8306,4.8344,4.8439,4.8605,4.8971,4.9283,4.9484,4.9762,5.005,5.0325,5.0325,5.0472,5.0683,5.0432,5.0453,5.0712,5.0712,5.0712,5.0712,5.0712,5.0712,5.0712,5.0712,5.0712,5.0712,5.0712,5.0712,5.0712,5.0712,5.0712,5.0712,5.0712,5.0712,5.0731,5.0866,5.0959,5.1074,5.1293,5.138,5.1405,5.1406,5.1406,5.1406,5.1406,5.1406,5.1406,5.1406,5.1406,5.1406,5.1406,5.1406,5.1406,5.1406,5.1406,5.1406,5.1406,5.1406,5.1406,5.1406,5.1341,5.1291,5.1211,5.1106,5.101,5.0906,5.0898,5.0898,5.0898,5.0898,5.0898,5.0898,5.0898,5.0898,5.0898,5.0898,5.0898,5.0898,5.0898,5.0898,4.0096,4.0737,4.1415,4.1437,4.1139,4.1013,4.1561,4.2335,4.304,4.3548,4.5014,4.6341,0.0,4.7642,4.8213,4.8306,4.8306,4.8306,4.8306,0.0,4.8306,4.8306,4.8306,4.8306,4.8306,4.8306,4.8306,4.8306,4.8306,4.8306,4.8306,4.8306,4.8306,4.8306,4.8476,4.8587,4.8605,4.9125,4.9514,4.9776,5.0031,5.0347,5.0663,5.0663,5.0673,5.0712,5.0673,5.0673,5.0712,5.0712,5.0712,5.0712,5.0712,5.0712,5.0712,5.0712,5.0712,5.0712,5.0712,5.0712,5.0712,5.0712,5.0712,5.0712,5.0712,5.0712,5.0731,5.0866,5.0992,5.1113,5.1187,5.1306,5.1405,5.1406,5.1406,5.1406,5.1406,5.1406,5.1406,5.1406,5.1406,5.1406,5.1406,5.1406,5.1406,5.1406,5.1406,5.1406,5.1406,5.1406,5.1406,5.1406,5.1406,5.1337,5.1214,5.1024,5.0914,5.0898,5.0898,5.0898,5.0898,5.0898,5.0898,5.0898,5.0898,5.0898,5.0898,5.0898,5.0898,5.0898,5.0898,5.0898,4.0096,4.0594,4.1196,4.1437,4.2053,4.2747,4.3256,4.4066,4.4909,4.5672,4.6734,4.7597,0.0,0.0,4.8306,4.8306,4.8306,4.8306,4.8306,4.8306,4.8306,4.8306,4.8306,4.8306,4.8306,4.8306,4.8306,4.8306,4.8306,4.8306,4.8306,4.8306,4.8306,4.8306,4.8457,4.866,4.8903,4.9317,4.9697,5.0062,5.0159,5.0369,5.0712,5.0712,5.0712,5.0712,5.0712,5.0712,5.0712,5.0712,5.0712,5.0712,5.0712,5.0712,5.0712,5.0712,5.0712,5.0712,5.0712,5.0712,5.0712,5.0712,5.0712,5.0712,5.0712,5.0712,5.0702,5.0767,5.0925,5.1113,5.118,5.1307,5.1406,5.1406,5.1406,5.1406,5.1406,5.1406,5.1406,5.1406,5.1406,5.1406,5.1406,5.1406,5.1406,5.1406,5.1406,5.1406,5.1406,5.1406,5.1406,5.1406,5.133,5.1245,5.1142,5.0984,5.0898,5.0898,5.0898,5.0898,5.0898,5.0898,5.0898,5.0898,5.0898,5.0898,5.0898,5.0898,5.0898,5.0898,5.0898,5.0898,4.0328,4.0814,4.1397,4.17,4.2849,4.4055,4.4691,4.5534,4.6359,4.6965,4.7736,4.8306,4.8306,0.0,0.0,0.0,4.8306,4.8306,4.8306,4.8306,4.8306,4.8306,4.8306,4.8306,4.8306,4.8306,4.8306,4.8306,4.8306,4.8306,4.8306,4.8306,4.8306,4.8363,4.8476,4.8713,4.9118,4.9479,4.984,5.0195,5.0306,5.0483,5.0712,5.0712,5.0712,5.0712,5.0712,5.0712,5.0712,5.0712,5.0712,5.0712,5.0712,5.0712,5.0712,5.0712,5.0712,5.0712,5.0712,5.0712,5.0712,5.0712,5.0712,5.0712,5.0712,5.0712,5.0693,5.0702,5.0889,5.1108,5.116,5.1285,5.1406,5.1406,5.1406,5.1406,5.1406,5.1406,5.1406,5.1406,5.1406,5.1406,5.1406,5.1406,5.1406,5.1406,5.1406,5.1406,5.1406,5.1406,5.1406,5.1406,5.1282,5.1178,5.1146,5.0984,5.0898,5.0898,5.0898,5.0898,5.0898,5.0898,5.0898,5.0898,5.0898,5.0898,5.0898,5.0898,5.0898,5.0898,5.0898,5.0898,4.0802,4.1477,4.2236,4.2376,4.3362,4.458,4.557,4.6432,4.7018,4.7094,4.7736,4.8306,4.8306,4.8306,0.0,4.8306,4.8306,4.8306,4.8306,4.8306,4.8306,4.8306,4.8306,4.8306,4.8306,4.8306,4.8306,4.8306,4.8306,4.8306,4.8306,4.8306,4.8363,4.8494,4.8569,4.8801,4.9214,4.9603,4.993,5.0206,5.0544,5.0712,5.0712,5.0712,5.0712,5.0712,5.0712,5.0712,5.0712,5.0712,5.0712,5.0712,5.0712,5.0712,5.0712,5.0712,5.0712,5.0712,5.0712,5.0712,5.0712,5.0712,5.0712,5.0712,5.0712,5.0712,5.0702,5.0702,5.0884,5.1099,5.1107,5.1249,5.1406,5.1406,5.1406,5.1406,5.1406,5.1406,5.1406,5.1406,5.1406,5.1406,5.1406,5.1406,5.1406,5.1406,5.1406,5.1406,5.1406,5.1406,5.1406,5.1406,5.1282,5.1203,5.1199,5.1017,5.0898,5.0898,5.0898,5.0898,5.0898,5.0898,5.0898,5.0898,5.0898,5.0898,5.0898,5.0898,5.0898,5.0898,5.0898,5.0898,4.0707,4.1348,4.1997,4.2318,4.3917,4.548,4.5754,4.6432,4.7165,4.781,4.8141,4.8306,4.8306,4.8306,0.0,4.8306,4.8306,4.8306,4.8306,4.8306,4.8306,4.8306,4.8306,4.8306,4.8306,4.8306,4.8306,4.8306,4.8306,4.8306,4.8306,4.8306,4.8363,4.8494,4.8802,4.9132,4.9475,4.9885,5.0237,5.0554,5.0663,5.0712,5.0712,5.0712,5.0712,5.0712,5.0712,5.0712,5.0712,5.0712,5.0712,5.0712,5.0712,5.0712,5.0712,5.0712,5.0712,5.0712,5.0712,5.0712,5.0712,5.0712,5.0712,5.0712,5.0712,5.0712,5.0693,5.0702,5.0889,5.1094,5.1103,5.1243,5.1406,5.1406,5.1406,5.1406,5.1406,5.1406,5.1406,5.1406,5.1406,5.1406,5.1406,5.1406,5.1406,5.1406,5.1406,5.1406,5.1406,5.1406,5.1386,5.1334,5.1258,5.1174,5.1122,5.0997,5.0898,5.0898,5.0898,5.0898,5.0898,5.0898,5.0898,5.0898,5.0898,5.0898,5.0898,5.0898,5.0898,5.0898,5.0898,5.0898,4.1316,4.1892,4.2422,4.2731,4.4344,4.603,4.6653,4.7184,4.768,4.8195,4.8306,4.8306,4.8306,4.8306,0.0,4.8306,4.8306,4.8306,4.8306,4.8306,4.8306,4.8306,4.8306,4.8306,4.8306,4.8306,4.8306,4.8306,4.8306,4.8306,4.8306,4.8306,4.8439,4.8732,4.8971,4.9333,4.9834,5.0092,5.0369,5.0712,5.0712,5.0712,5.0712,5.0712,5.0712,5.0712,5.0712,5.0712,5.0712,5.0712,5.0712,5.0712,5.0712,5.0712,5.0712,5.0712,5.0712,5.0712,5.0712,5.0712,5.0712,5.0712,5.0712,5.0712,5.0712,5.0712,5.0721,5.074,5.0903,5.1113,5.1137,5.1267,5.1406,5.1406,5.1406,5.1406,5.1406,5.1406,5.1406,5.1406,5.1406,5.1406,5.1406,5.1406,5.1406,5.1406,5.1406,5.1406,5.1406,5.1406,5.1365,5.1301,5.1249,5.1165,5.1111,5.0976,5.0898,5.0898,5.0898,5.0898,5.0898,5.0898,5.0898,5.0898,5.0898,5.0898,5.0898,5.0898,5.0898,5.0898,5.0898,5.0898,4.2216,4.2731,4.3178,4.3358,4.462,4.6249,4.792,4.8306,4.8306,4.8306,4.8306,4.8306,4.8306,4.8306,4.8306,4.8306,4.8306,4.8306,4.8306,4.8306,4.8306,4.8306,4.8306,4.8306,4.8306,4.8306,4.8306,4.8306,4.8306,4.8306,4.8306,4.8344,4.8587,4.9069,4.915,4.9512,5.0195,5.023,5.041,5.0712,5.0712,5.0712,5.0712,5.0712,5.0712,5.0712,5.0712,5.0712,5.0712,5.0712,5.0712,5.0712,5.0712,5.0712,5.0712,5.0712,5.0712,5.0712,5.0712,5.0712,5.0712,5.0712,5.0712,5.0712,5.0712,5.0712,5.0712,5.0766,5.0932,5.1103,5.1187,5.1295,5.1406,5.1406,5.1406,5.1406,5.1406,5.1406,5.1406,5.1406,5.1406,5.1406,5.1406,5.1406,5.1406,5.1406,5.1406,5.1406,5.1406,5.1406,5.1365,5.1295,5.1242,5.1161,5.1099,5.0961,5.0898,5.0898,5.0898,5.0898,5.0898,5.0898,5.0898,5.0898,5.0898,5.0898,5.0898,5.0898,5.0898,5.0898,5.0898,5.0898,4.1713,4.2318,4.2901,4.3305,4.4638,4.6305,4.792,4.8306,4.8306,4.8306,4.8306,4.8306,4.8306,4.8306,4.8306,4.8306,4.8306,4.8306,4.8306,4.8306,4.8306,4.8306,4.8306,4.8306,4.8306,4.8306,4.8306,4.8306,4.8306,4.8306,4.8306,4.855,4.8816,4.9104,4.9556,4.9924,5.0195,5.0453,5.0624,5.0712,5.0712,5.0712,5.0712,5.0712,5.0712,5.0712,5.0712,5.0712,5.0712,5.0712,5.0712,5.0712,5.0712,5.0712,5.0712,5.0712,5.0712,5.0712,5.0712,5.0712,5.0712,5.0712,5.0712,5.0712,5.0712,5.0712,5.0693,5.0721,5.0889,5.1094,5.1123,5.1262,5.1406,5.1406,5.1406,5.1406,5.1406,5.1406,5.1406,5.1406,5.1406,5.1406,5.1406,5.1406,5.1406,5.1406,5.1406,5.1406,5.1406,5.1406,5.1341,5.1223,5.1211,5.1133,5.0954,5.0921,5.0898,5.0898,5.0898,5.0898,5.0898,5.0898,5.0898,5.0898,5.0898,5.0898,5.0898,5.0898,5.0898,5.0898,5.0898,5.0898,4.1952,4.2557,4.3287,4.4345,4.5242,4.6324,4.7939,4.8306,4.8306,4.8306,4.8306,4.8306,4.8306,4.8306,4.8306,4.8306,4.8306,4.8306,4.8306,4.8306,4.8306,4.8306,4.8306,4.8306,4.8306,4.8306,4.8306,4.8306,4.8306,4.8364,4.8532,4.8712,4.9015,4.9512,4.9832,5.0147,5.0432,5.0614,5.0712,5.0712,5.0712,5.0712,5.0712,5.0712,5.0712,5.0712,5.0712,5.0712,5.0712,5.0712,5.0712,5.0712,5.0712,5.0712,5.0712,5.0712,5.0712,5.0712,5.0712,5.0712,5.0712,5.0712,5.0712,5.0712,5.0712,5.0712,5.0693,5.0693,5.0889,5.1094,5.1108,5.1245,5.1406,5.1406,5.1406,5.1406,5.1406,5.1406,5.1406,5.1406,5.1406,5.1406,5.1406,5.1406,5.1406,5.1406,5.1406,5.1406,5.1406,5.1406,5.1358,5.1218,5.1203,5.1123,5.0929,5.0898,5.0898,5.0898,5.0898,5.0898,5.0898,5.0898,5.0898,5.0898,5.0898,5.0898,5.0898,5.0898,5.0898,5.0898,5.0898,5.0898,4.2244,4.2883,4.3796,4.548,4.5902,4.6324,4.7939,4.8306,4.8306,4.8306,4.8306,4.8306,4.8306,4.8306,4.8306,4.8306,4.8306,4.8306,4.8306,4.8306,4.8306,4.8306,4.8306,4.8306,4.8306,4.8306,4.8306,4.8306,4.8345,4.8514,4.8781,4.89,4.9283,4.9981,5.0062,5.0272,5.0702,5.0712,5.0712,5.0712,5.0712,5.0712,5.0712,5.0712,5.0712,5.0712,5.0712,5.0712,5.0712,5.0712,5.0712,5.0712,5.0712,5.0712,5.0712,5.0712,5.0712,5.0712,5.0712,5.0712,5.0712,5.0712,5.0712,5.0712,5.0712,5.0712,5.0702,5.0702,5.0884,5.1099,5.1107,5.1249,5.1406,5.1406,5.1406,5.1406,5.1406,5.1406,5.1406,5.1406,5.1406,5.1406,5.1406,5.1406,5.1406,5.1406,5.1406,5.1406,5.1406,5.1406,5.1358,5.1218,5.1203,5.1123,5.0929,5.0898,5.0898,5.0898,5.0898,5.0898,5.0898,5.0898,5.0898,5.0898,5.0898,5.0898,5.0898,5.0898,5.0898,5.0898,5.0898,5.0898,4.1778,4.2595,4.3796,4.548,4.5902,4.6324,4.7939,4.8306,4.8306,0.0,4.8306,4.8306,4.8306,4.8306,4.8306,4.8306,4.8306,4.8306,4.8306,4.8306,4.8306,4.8306,4.8306,4.8306,4.8306,4.8306,4.8306,4.8306,4.8587,4.8746,4.8799,4.9348,4.9771,4.9993,5.0279,5.0532,5.0712,5.0712,5.0712,5.0712,5.0712,5.0712,5.0712,5.0712,5.0712,5.0712,5.0712,5.0712,5.0712,5.0712,5.0712,5.0712,5.0712,5.0712,5.0712,5.0712,5.0712,5.0712,5.0712,5.0712,5.0712,5.0712,5.0712,5.0712,5.0712,5.0712,5.0702,5.0702,5.0884,5.1099,5.1107,5.1249,5.1406,5.1406,5.1406,5.1406,5.1406,5.1406,5.1406,5.1406,5.1406,5.1406,5.1406,5.1406,5.1406,5.1406,5.1406,5.1406,5.1406,5.1406,5.1358,5.1218,5.1203,5.1123,5.0929,5.0898,5.0898,5.0898,5.0898,5.0898,5.0898,5.0898,5.0898,5.0898,5.0898,5.0898,5.0898,5.0898,5.0898,5.0898,5.0898,5.0898,4.236,4.2957,4.3796,4.548,4.5902,4.6324,4.7939,4.8306,4.8306,4.8306,4.8306,4.8306,4.8306,4.8306,4.8306,4.8306,4.8306,4.8306,4.8306,4.8306,4.8306,4.8306,4.8306,4.8306,4.8306,4.8458,4.8568,4.8568,4.89,4.9161,4.9348,4.9674,4.9987,5.0268,5.0459,5.0603,5.0712,5.0712,5.0712,5.0712,5.0712,5.0712,5.0712,5.0712,5.0712,5.0712,5.0712,5.0712,5.0712,5.0712,5.0712,5.0712,5.0712,5.0712,5.0712,5.0712,5.0712,5.0712,5.0712,5.0712,5.0712,5.0712,5.0712,5.0712,5.0712,5.0712,5.0721,5.0791,5.0959,5.1108,5.1152,5.1283,5.1406,5.1406,5.1406,5.1406,5.1406,5.1406,5.1406,5.1406,5.1406,5.1406,5.1406,5.1406,5.1406,5.1406,5.1406,5.1406,5.1406,5.1406,5.1358,5.1218,5.1203,5.1123,5.0929,5.0898,5.0898,5.0898,5.0898,5.0898,5.0898,5.0898,5.0898,5.0898,5.0898,5.0898,5.0898,5.0898,5.0898,5.0898,5.0898,5.0909,4.292,4.3269,4.376,4.548,4.5902,4.6324,4.7939,4.8306,4.8306,0.0,4.8306,4.8306,4.8306,4.8306,4.8306,4.8306,4.8306,4.8306,4.8306,4.8364,4.8402,4.8306,4.8383,4.8402,4.8306,4.8604,4.8799,4.8799,4.9193,4.9541,4.979,4.9923,5.0149,5.05,5.0542,5.0613,5.0712,5.0712,5.0712,5.0712,5.0712,5.0712,5.0712,5.0712,5.0712,5.0712,5.0712,5.0712,5.0712,5.0712,5.0712,5.0712,5.0712,5.0712,5.0712,5.0712,5.0712,5.0712,5.0712,5.0712,5.0712,5.0712,5.0712,5.0712,5.0712,5.0712,5.0731,5.0855,5.0998,5.1117,5.1206,5.1312,5.1406,5.1406,5.1406,5.1406,5.1406,5.1406,5.1406,5.1406,5.1406,5.1406,5.1406,5.1406,5.1406,5.1406,5.1406,5.1406,5.1406,5.1406,5.1358,5.1218,5.1203,5.1123,5.0929,5.0898,5.0898,5.0898,5.0898,5.0898,5.0898,5.0898,5.0898,5.0898,5.0898,5.0898,5.0898,5.0898,5.0898,5.0898,5.0898,5.0901,4.3013,4.3214,4.3652,4.5462,4.5902,4.6324,4.7939,0.0,4.8306,4.8306,4.8306,4.8306,4.8306,4.8306,4.8306,4.8306,4.8306,4.8306,4.8306,4.8568,4.8658,4.8344,4.8568,4.8658,4.8344,4.8604,4.8799,4.8799,4.9409,4.9771,4.9803,5.01,5.0348,5.05,5.0511,5.0563,5.0712,5.0712,5.0712,5.0712,5.0712,5.0712,5.0712,5.0712,5.0712,5.0712,5.0712,5.0712,5.0712,5.0712,5.0712,5.0712,5.0712,5.0712,5.0712,5.0712,5.0712,5.0712,5.0712,5.0712,5.0712,5.0712,5.0712,5.0712,5.0712,5.0712,5.0721,5.0867,5.0997,5.1122,5.1261,5.1355,5.1406,5.1406,5.1406,5.1406,5.1406,5.1406,5.1406,5.1406,5.1406,5.1406,5.1406,5.1406,5.1406,5.1406,5.1406,5.1406,5.1406,5.1406,5.1358,5.1218,5.1203,5.1123,5.0929,5.0898,5.0898,5.0898,5.0898,5.0898,5.0898,5.0898,5.0898,5.0898,5.0898,5.0898,5.0898,5.0898,5.0898,5.0898,5.0898,5.0898,4.3013,4.3214,4.3506,4.4802,4.5516,4.6195,4.7278,4.792,4.8306,4.8306,4.8306,4.8306,4.8306,4.8306,4.8306,4.8306,4.8306,4.8306,4.8306,4.8402,4.8514,4.8604,4.855,4.8604,4.8898,4.9048,4.9209,4.9424,4.9857,5.0132,5.0132,5.029,5.0412,5.05,5.0532,5.0613,5.0712,5.0712,5.0712,5.0712,5.0712,5.0712,5.0712,5.0712,5.0712,5.0712,5.0712,5.0712,5.0712,5.0712,5.0712,5.0712,5.0712,5.0712,5.0712,5.0712,5.0712,5.0712,5.0712,5.0712,5.0712,5.0712,5.0712,5.0712,5.0712,5.0712,5.0749,5.0913,5.1023,5.1135,5.1322,5.1384,5.1406,5.1406,5.1406,5.1406,5.1406,5.1406,5.1406,5.1406,5.1406,5.1406,5.1406,5.1406,5.1406,5.1406,5.1406,5.1406,5.1406,5.1363,5.1297,5.1214,5.1167,5.106,5.0921,5.0898,5.0898,5.0898,5.0898,5.0898,5.0898,5.0898,5.0898,5.0898,5.0898,5.0898,5.0898,5.0898,5.0898,5.0898,5.0898,5.0874,4.3068,0.0,4.3853,4.4839,4.5718,4.6526,4.7314,4.7921,4.8306,4.8306,4.8306,4.8306,4.8306,4.8306,4.8306,4.8306,4.8306,4.8306,4.8306,4.8402,4.855,4.8781,4.8693,4.8815,4.9271,4.939,4.9556,4.9771,5.012,0.0,5.0302,5.0348,5.0446,5.0532,5.0603,5.0653,5.0712,5.0712,5.0712,5.0712,5.0712,5.0712,5.0712,5.0712,5.0712,5.0712,5.0712,5.0712,5.0712,5.0712,5.0712,5.0712,5.0712,5.0712,5.0712,5.0712,5.0712,5.0712,5.0712,5.0712,5.0712,5.0712,5.0712,5.0712,5.0712,5.0712,5.0739,5.094,5.1044,5.1139,5.1352,5.1405,5.1406,5.1406,5.1406,5.1406,5.1406,5.1406,5.1406,5.1406,5.1406,5.1406,5.1406,5.1406,5.1406,5.1406,5.1406,5.1406,5.1406,5.1337,5.1279,5.1211,5.1132,5.105,5.0914,5.0898,5.0898,5.0898,5.0898,5.0898,5.0898,5.0898,5.0898,5.0898,5.0898,5.0898,5.0898,5.0898,5.0898,5.0898,5.0909,5.0852,0.0,0.0,0.0,0.0,0.0,0.0,4.8104,0.0,4.8306,4.8306,4.8306,4.8306,4.8306,4.8306,4.8306,4.8306,4.8306,4.8306,4.8306,4.8568,4.8799,4.8799,4.908,4.9283,4.9299,4.9599,4.9784,4.9798,5.012,5.0302,5.0302,5.0379,5.0457,5.0593,5.0682,5.0712,5.0712,5.0712,5.0712,5.0712,5.0712,5.0712,5.0712,5.0712,5.0712,5.0712,5.0712,5.0712,5.0712,5.0712,5.0712,5.0712,5.0712,5.0712,5.0712,5.0712,5.0712,5.0712,5.0712,5.0712,5.0712,5.0712,5.0712,5.0712,5.0712,5.0712,5.073,5.0933,5.1047,5.1159,5.1345,5.1404,5.1406,5.1406,5.1406,5.1406,5.1406,5.1406,5.1406,5.1406,5.1406,5.1406,5.1406,5.1406,5.1406,5.1406,5.1406,5.1406,5.1406,5.1337,5.1277,5.1211,5.1132,5.1043,5.0914,5.0898,5.0898,5.0898,5.0898,5.0898,5.0898,5.0898,5.0898,5.0898,5.0898,5.0898,5.0898,5.0898,5.0898,5.0898,5.0897,5.0829,4.4813,0.0,0.0,0.0,0.0,0.0,0.0,0.0,4.8306,4.8306,4.8306,4.8306,4.8306,4.8306,4.8306,4.8306,4.8306,4.8306,4.8306,4.8383,4.8532,4.8764,4.8883,4.9129,4.9599,4.9744,4.9897,0.0,5.0248,5.0302,5.0302,5.0424,5.0511,5.0593,5.0682,5.0712,5.0712,5.0712,5.0712,5.0712,5.0712,5.0712,5.0712,5.0712,5.0712,5.0712,5.0712,5.0712,5.0712,5.0712,5.0712,5.0712,5.0712,5.0712,5.0712,5.0712,5.0712,5.0712,5.0712,5.0712,5.0712,5.0712,5.0712,5.0712,5.0712,5.0712,5.0739,5.0946,5.1044,5.1144,5.1357,5.1406,5.1406,5.1406,5.1406,5.1406,5.1406,5.1406,5.1406,5.1406,5.1406,5.1406,5.1406,5.1406,5.1406,5.1406,5.1406,5.1406,5.1406,5.1297,5.1225,5.1203,5.1054,5.0952,5.0906,5.0898,5.0898,5.0898,5.0898,5.0898,5.0898,5.0898,5.0898,5.0898,5.0898,5.0898,5.0898,5.0898,5.0898,5.0898,5.0852,5.0784,0.0,0.0,0.0,0.0,0.0,0.0,4.759,4.7957,4.8306,4.8306,4.8306,4.8306,4.8306,4.8306,4.8306,4.8306,4.8306,4.8306,4.8306,4.8306,4.842,4.8764,4.8917,4.9224,4.9744,4.9929,5.0088,5.029,5.0302,5.0325,5.0371,5.0468,5.0542,5.0633,5.0673,5.0712,5.0712,5.0712,5.0712,5.0712,5.0712,5.0712,5.0712,5.0712,5.0712,5.0712,5.0712,5.0712,5.0712,5.0712,5.0712,5.0712,5.0712,5.0712,5.0712,5.0712,5.0712,5.0712,5.0712,5.0712,5.0712,5.0712,5.0712,5.0712,5.0712,5.0712,5.0739,5.094,5.1107,5.1247,5.1365,5.1406,5.1406,5.1406,5.1406,5.1406,5.1406,5.1406,5.1406,5.1406,5.1406,5.1406,5.1406,5.1406,5.1406,5.1406,5.1406,5.1406,5.1406,5.1284,5.1203,5.1203,5.1024,5.0898,5.0898,5.0898,5.0898,5.0898,5.0898,5.0898,5.0898,5.0898,5.0898,5.0898,5.0898,5.0898,5.0898,5.0898,5.0882,5.085,5.0819,5.0757,0.0,0.0,0.0,0.0,0.0,0.0,4.8306,4.8306,4.8306,4.8306,4.8306,4.8306,4.8306,4.8306,4.8306,4.8306,4.8306,4.8306,4.8306,4.8306,4.842,4.8693,4.908,4.9424,4.9716,5.0076,5.0302,5.0302,5.0302,5.0359,5.05,5.05,5.0553,5.0702,5.0712,5.0712,5.0712,5.0712,5.0712,5.0712,5.0712,5.0712,5.0712,5.0712,5.0712,5.0712,5.0712,5.0712,5.0712,5.0712,5.0712,5.0712,5.0712,5.0712,5.0712,5.0712,5.0712,5.0712,5.0712,5.0712,5.0712,5.0712,5.0712,5.0712,5.0712,5.0702,5.0766,5.0979,5.1197,5.14,5.1406,5.1406,5.1406,5.1406,5.1406,5.1406,5.1406,5.1406,5.1406,5.1406,5.1406,5.1406,5.1406,5.1406,5.1406,5.1406,5.1406,5.1406,5.1406,5.1284,5.1203,5.1203,5.1024,5.0898,5.0898,5.0898,5.0898,5.0898,5.0898,5.0898,5.0898,5.0898,5.0898,5.0898,5.0898,5.0898,5.0898,5.0898,5.0877,5.0801,5.0801,5.0767,0.0,0.0,0.0,0.0,0.0,0.0,4.8306,4.8306,4.8306,4.8306,4.8306,4.8306,4.8306,4.8306,4.8306,4.8306,4.8306,4.8306,4.8306,4.8306,4.8325,4.8383,4.8932,4.9333,4.9375,4.9942,5.0302,5.0302,5.0302,5.0359,5.05,5.05,5.0553,5.0702,5.0712,5.0712,5.0712,5.0712,5.0712,5.0712,5.0712,5.0712,5.0712,5.0712,5.0712,5.0712,5.0712,5.0712,5.0712,5.0712,5.0712,5.0712,5.0712,5.0712,5.0712,5.0712,5.0712,5.0712,5.0712,5.0712,5.0712,5.0712,5.0712,5.0712,5.0712,5.0785,5.0898,5.1108,5.1277,5.14,5.1404,5.1406,5.1406,5.1406,5.1406,5.1406,5.1406,5.1406,5.1406,5.1406,5.1406,5.1406,5.1406,5.1406,5.1406,5.1406,5.1406,5.1406,5.1406,5.1284,5.1203,5.1203,5.1024,5.0898,5.0898,5.0898,5.0898,5.0898,5.0898,5.0898,5.0898,5.0898,5.0898,5.0898,5.0898,5.0898,5.0898,5.0898,5.0877,5.0801,5.0801,5.0767,0.0,0.0,0.0,4.7992,0.0,0.0,0.0,4.8306,4.8306,4.8306,4.8306,4.8306,4.8306,4.8306,4.8306,4.8306,4.8306,4.8306,4.8306,4.8306,4.8306,4.8306,4.8881,4.9299,4.9299,4.9916,5.0302,5.0302,5.0302,5.0359,5.05,5.05,5.0553,5.0702,5.0712,5.0712,5.0712,5.0712,5.0712,5.0712,5.0712,5.0712,5.0712,5.0712,5.0712,5.0712,5.0712,5.0712,5.0712,5.0712,5.0712,5.0712,5.0712,5.0712,5.0712,5.0712,5.0712,5.0712,5.0712,5.0712,5.0712,5.0712,5.0712,5.0712,5.0766,5.092,5.1061,5.1168,5.1308,5.1399,5.1404,5.1406,5.1406,5.1406,5.1406,5.1406,5.1406,5.1406,5.1406,5.1406,5.1406,5.1406,5.1406,5.1406,5.1406,5.1406,5.1406,5.1386,5.1341,5.1269,5.1187,5.1157,5.1004,5.0898,5.0898,5.0898,5.0898,5.0898,5.0898,5.0898,5.0898,5.0898,5.0898,5.0898,5.0898,5.0898,5.0898,5.0901,5.0861,5.0801,5.0801,5.0767,0.0,0.0,0.0,0.0,0.0,4.8226,0.0,0.0,0.0,4.8306,4.8306,0.0,0.0,0.0,0.0,0.0,0.0,0.0,0.0,4.7976,0.0,4.8288,4.8832,4.919,4.919,4.9744,5.0156,5.029,5.0236,5.0283,5.0489,5.05,5.0553,5.0702,5.0712,5.0712,5.0712,5.0712,5.0712,5.0712,5.0712,5.0712,5.0712,5.0712,5.0712,5.0712,5.0712,5.0712,5.0712,5.0712,5.0712,5.0712,5.0712,5.0712,5.0712,5.0712,5.0712,5.0712,5.0712,5.0712,5.0712,5.0712,5.0721,5.0776,5.0905,5.1075,5.1211,5.1226,5.1314,5.1399,5.1404,5.1406,5.1406,5.1406,5.1406,5.1406,5.1406,5.1406,5.1406,5.1406,5.1406,5.1406,5.1406,5.1406,5.1406,5.1406,5.1406,5.1386,5.133,5.1258,5.1174,5.1131,5.0997,5.0898,5.0898,5.0898,5.0898,5.0898,5.0898,5.0898,5.0898,5.0898,5.0898,5.0898,5.0898,5.0898,5.0898,5.0897,5.0883,5.0801,5.0793,5.0758,0.0,0.0,0.0,0.0,4.809,0.0,0.0,0.0,4.8306,4.8306,0.0,0.0,0.0,0.0,0.0,0.0,0.0,0.0,4.6379,4.6782,4.7498,4.8233,4.8641,4.8867,4.8867,4.9193,4.966,5.0267,5.0006,5.0044,5.0489,5.05,5.0553,5.0702,5.0712,5.0712,5.0712,5.0712,5.0712,5.0712,5.0712,5.0712,5.0712,5.0712,5.0712,5.0712,5.0712,5.0712,5.0712,5.0712,5.0712,5.0712,5.0712,5.0712,5.0712,5.0712,5.0712,5.0712,5.0712,5.0712,5.0712,5.0712,5.0775,5.0905,5.1113,5.1187,5.1222,5.1332,5.1391,5.1399,5.1404,5.1406,5.1406,5.1406,5.1406,5.1406,5.1406,5.1406,5.1406,5.1406,5.1406,5.1406,5.1406,5.1406,5.1406,5.1406,5.1406,5.1406,5.1386,5.1282,5.1199,5.1187,5.1017,5.0898,5.0898,5.0898,5.0898,5.0898,5.0898,5.0898,5.0898,5.0898,5.0898,5.0898,5.0898,5.0898,5.0898,5.0897,5.0883,5.0801,5.0729,5.0702,0.0,0.0,0.0,0.0,0.0,0.0,4.8287,0.0,4.8306,0.0,0.0,0.0,0.0,0.0,0.0,0.0,4.7865,0.0,0.0,0.0,4.7223,0.0,0.0,0.0,4.8596,4.9066,4.957,5.0248,4.9981,4.9987,5.047,5.05,5.0553,5.0702,5.0712,5.0712,5.0712,5.0712,5.0712,5.0712,5.0712,5.0712,5.0712,5.0712,5.0712,5.0712,5.0712,5.0712,5.0712,5.0712,5.0712,5.0712,5.0712,5.0712,5.0712,5.0712,5.0712,5.0712,5.0712,5.0712,5.0712,5.0784,5.0883,5.0998,5.1141,5.1252,5.1333,5.1384,5.1394,5.1399,5.1404,5.1406,5.1406,5.1406,5.1406,5.1406,5.1406,5.1406,5.1406,5.1406,5.1406,5.1406,5.1406,5.1406,5.1406,5.1406,5.1406,5.1386,5.1358,5.1266,5.1183,5.1142,5.0991,5.0898,5.0898,5.0898,5.0898,5.0898,5.0898,5.0898,5.0898,5.0898,5.0898,5.0898,5.0898,5.0909,5.0905,5.0863,5.0801,5.0729,5.071,5.0692,4.7824,0.0,0.0,0.0,0.0,0.0,0.0,0.0,0.0,0.0,0.0,0.0,0.0,0.0,0.0,0.0,0.0,0.0,0.0,0.0,0.0,0.0,0.0,0.0,0.0,4.8303,4.8855,4.977,4.9619,4.9778,5.047,5.05,5.0553,5.0702,5.0712,5.0712,5.0712,5.0712,5.0712,5.0712,5.0712,5.0712,5.0712,5.0712,5.0712,5.0712,5.0712,5.0712,5.0712,5.0712,5.0712,5.0712,5.0712,5.0712,5.0712,5.0712,5.0712,5.0712,5.0712,5.0731,5.0766,5.0883,5.0992,5.1074,5.1211,5.1325,5.1396,5.1409,5.1395,5.14,5.1405,5.1406,5.1406,5.1406,5.1406,5.1406,5.1406,5.1406,5.1406,5.1406,5.1406,5.1406,5.1406,5.1406,5.1406,5.1406,5.1406,5.1385,5.1302,5.1249,5.1165,5.1117,5.0976,5.0898,5.0898,5.0898,5.0898,5.0898,5.0898,5.0898,5.0898,5.0898,5.0898,5.0898,5.0898,5.0901,5.0897,5.0827,5.0784,5.072,5.0711,5.0702,0.0,0.0,0.0,4.8168,0.0,0.0,0.0,0.0,4.8306,0.0,0.0,0.0,0.0,0.0,0.0,0.0,0.0,0.0,0.0,0.0,0.0,0.0,0.0,0.0,0.0,4.6492,4.7081,4.8553,4.8628,4.9176,5.0432,5.05,5.0553,5.0702,5.0712,5.0712,5.0712,5.0712,5.0712,5.0712,5.0712,5.0712,5.0712,5.0712,5.0712,5.0712,5.0712,5.0712,5.0712,5.0712,5.0712,5.0712,5.0712,5.0712,5.0712,5.0712,5.0712,5.0712,5.0712,5.0775,5.089,5.0979,5.1098,5.1214,5.1357,5.1392,5.1398,5.1395,5.1398,5.14,5.1406,5.1406,5.1406,5.1406,5.1406,5.1406,5.1406,5.1406,5.1406,5.1406,5.1406,5.1406,5.1406,5.1406,5.1406,5.1406,5.1406,5.1385,5.1302,5.1249,5.1165,5.1117,5.0976,5.0898,5.0898,5.0898,5.0898,5.0898,5.0898,5.0898,5.0898,5.0898,5.0898,5.0898,5.0898,5.0898,5.0898,5.0836,5.0801,5.0793,5.074,5.0693,0.0,0.0,4.813,4.8187,0.0,0.0,0.0,0.0,0.0,0.0,0.0,0.0,0.0,0.0,0.0,0.0,0.0,0.0,0.0,0.0,0.0,0.0,0.0,0.0,0.0,0.0,4.7585,4.8539,4.9136,4.9771,5.047,5.0532,5.0613,5.0702,5.0712,5.0712,5.0712,5.0712,5.0712,5.0712,5.0712,5.0712,5.0712,5.0712,5.0712,5.0712,5.0712,5.0712,5.0712,5.0712,5.0712,5.0712,5.0712,5.0712,5.0712,5.0712,5.0712,5.0712,5.0801,5.0866,5.094,5.1078,5.1159,5.1238,5.136,5.1394,5.1398,5.1395,5.1398,5.14,5.1406,5.1406,5.1406,5.1406,5.1406,5.1406,5.1406,5.1406,5.1406,5.1406,5.1406,5.1406,5.1406,5.1406,5.1406,5.1406,5.1406,5.1385,5.1302,5.1249,5.1165,5.1117,5.0976,5.0898,5.0898,5.0898,5.0898,5.0898,5.0898,5.0898,5.0898,5.0898,5.0898,5.0898,5.0898,5.0909,5.0897,5.0827,5.0784,5.0729,5.0702,5.0712,4.8111,4.8169,0.0,4.8246,4.8267,0.0,4.8306,0.0,0.0,0.0,0.0,0.0,0.0,0.0,0.0,0.0,0.0,0.0,0.0,0.0,0.0,0.0,0.0,0.0,0.0,0.0,4.6937,4.8085,4.8795,4.9568,5.0451,5.0553,5.0623,5.0712,5.0712,5.0712,5.0712,5.0712,5.0712,5.0712,5.0712,5.0712,5.0712,5.0712,5.0712,5.0712,5.0712,5.0712,5.0712,5.0712,5.0712,5.0712,5.0712,5.0712,5.0712,5.0712,5.074,5.0775,5.0874,5.0949,5.1023,5.1165,5.1222,5.1291,5.1367,5.1394,5.1398,5.1395,5.1398,5.14,5.1406,5.1406,5.1406,5.1406,5.1406,5.1406,5.1406,5.1406,5.1406,5.1406,5.1406,5.1406,5.1406,5.1406,5.1406,5.1406,5.1406,5.1363,5.1279,5.1232,5.1152,5.103,5.094,5.0898,5.0898,5.0898,5.0898,5.0898,5.0898,5.0898,5.0898,5.0898,5.1053,5.137,5.137,5.1354,5.1349,5.129,5.1073,5.0729,5.0702,5.0712]}]]